Darstellungsparameter: Aktuell verwendete Einstellungen:
Skalierung der Graphiken ... ?
xyx+y,   Skalierungsfaktor:      Skalierung: Modus: x, Faktor: 1
Darstellungszeitraum ... ?
Vom - - bis: - -   Zeitraum: 30.08.2018 - 01.03.2019
Min/Max/Avg-Anzeige ... ?
Zeige MMA aktuell
Zeige MMA Monat
Zeige MMA alles
Zeige --A aktuell
Zeige --A Monat
Zeige --A alles
Keine MMA-Anzeige
MMA:
Average (ber die Originaldaten)
MMA-Basis: 30.08.2018 - 01.03.2019
Quicknavigation für Darstellung... ?
Tage:      1T, 2T, 3T, 5T -1T -2T -3T -5T +1T +2T +3T +5T
Wochen: 1W, 2W, 3W -1W -2W -3W +1W +2W +3W
Monate: 1M, 3M, 6M -1M -3M -6M +1M +3M +6M
Jahre:    1J, 3J, 5J, 10J -1J -3J -5J -10J +1J +3J +5J +10J
Nutze für die Darstellung ... ?
Originaldaten oder Mittelwerte auf ...
Stundenbasis Tagesbasis Wochenbasis
Monatsbasis Jahresbasis      Datenbasis: Original-Daten
Darstellen als:
Statistik (Auto) Statistik J:M      Darstellung:
Zur Graphik,    zurück zur Übersicht aller Sensoren.
 
Tabellarische Datenbersicht: ?
 
Sensor: Nr:Datum:Temp:Feuchte:Taupunkt:
Aussen-T/F 1 30-08-2018 00:00:00 17.2 C 94 % 16.23 C
2 30-08-2018 00:05:00 17.2 C 94 % 16.23 C
3 30-08-2018 00:10:00 17.2 C 94 % 16.23 C
4 30-08-2018 00:15:00 17.2 C 95 % 16.39 C
5 30-08-2018 00:20:00 17.3 C 95 % 16.49 C
6 30-08-2018 00:25:00 17.3 C 95 % 16.49 C
7 30-08-2018 00:30:00 17.2 C 95 % 16.39 C
8 30-08-2018 00:35:00 17.2 C 95 % 16.39 C
9 30-08-2018 00:40:00 17.2 C 95 % 16.39 C
10 30-08-2018 00:45:00 17.1 C 95 % 16.29 C
11 30-08-2018 00:50:00 17.1 C 94 % 16.13 C
12 30-08-2018 00:55:00 16.9 C 94 % 15.93 C
13 30-08-2018 01:00:00 16.9 C 94 % 15.93 C
14 30-08-2018 01:05:00 16.9 C 95 % 16.09 C
15 30-08-2018 01:10:00 16.8 C 95 % 15.99 C
16 30-08-2018 01:15:00 16.7 C 95 % 15.9 C
17 30-08-2018 01:20:00 16.7 C 94 % 15.73 C
18 30-08-2018 01:25:00 16.6 C 94 % 15.63 C
19 30-08-2018 01:30:00 16.6 C 94 % 15.63 C
20 30-08-2018 01:35:00 16.4 C 94 % 15.43 C
21 30-08-2018 01:40:00 16.3 C 94 % 15.33 C
22 30-08-2018 01:45:00 16.2 C 93 % 15.07 C
23 30-08-2018 01:50:00 16.1 C 93 % 14.97 C
24 30-08-2018 01:55:00 16 C 93 % 14.87 C
25 30-08-2018 02:00:00 16 C 93 % 14.87 C
Sensor: Nr:Datum:Temp:Feuchte:Taupunkt:
Aussen-T/F 26 30-08-2018 02:05:00 15.9 C 92 % 14.6 C
27 30-08-2018 02:10:00 16 C 92 % 14.7 C
28 30-08-2018 02:15:00 16 C 92 % 14.7 C
29 30-08-2018 02:20:00 16 C 92 % 14.7 C
30 30-08-2018 02:25:00 15.9 C 92 % 14.6 C
31 30-08-2018 02:30:00 15.9 C 91 % 14.43 C
32 30-08-2018 02:35:00 15.9 C 92 % 14.6 C
33 30-08-2018 02:40:00 15.9 C 92 % 14.6 C
34 30-08-2018 02:45:00 15.9 C 92 % 14.6 C
35 30-08-2018 02:50:00 15.9 C 92 % 14.6 C
36 30-08-2018 02:55:00 15.9 C 92 % 14.6 C
37 30-08-2018 03:00:00 15.9 C 91 % 14.43 C
38 30-08-2018 03:05:00 15.9 C 91 % 14.43 C
39 30-08-2018 03:10:00 15.9 C 91 % 14.43 C
40 30-08-2018 03:15:00 15.9 C 91 % 14.43 C
41 30-08-2018 03:20:00 15.9 C 91 % 14.43 C
42 30-08-2018 03:25:00 15.9 C 91 % 14.43 C
43 30-08-2018 03:30:00 15.9 C 91 % 14.43 C
44 30-08-2018 03:35:00 15.9 C 91 % 14.43 C
45 30-08-2018 03:40:00 15.8 C 91 % 14.33 C
46 30-08-2018 03:45:00 15.8 C 91 % 14.33 C
47 30-08-2018 03:50:00 15.8 C 91 % 14.33 C
48 30-08-2018 03:55:00 15.7 C 91 % 14.24 C
49 30-08-2018 04:00:00 15.7 C 90 % 14.06 C
50 30-08-2018 04:05:00 15.6 C 90 % 13.97 C
Sensor: Nr:Datum:Temp:Feuchte:Taupunkt:
Aussen-T/F 51 30-08-2018 04:10:00 15.6 C 90 % 13.97 C
52 30-08-2018 04:15:00 15.6 C 90 % 13.97 C
53 30-08-2018 04:20:00 15.6 C 90 % 13.97 C
54 30-08-2018 04:25:00 15.6 C 90 % 13.97 C
55 30-08-2018 04:30:00 15.6 C 90 % 13.97 C
56 30-08-2018 04:35:00 15.6 C 90 % 13.97 C
57 30-08-2018 04:40:00 15.6 C 90 % 13.97 C
58 30-08-2018 04:45:00 15.6 C 90 % 13.97 C
59 30-08-2018 04:50:00 15.6 C 90 % 13.97 C
60 30-08-2018 04:55:00 15.6 C 90 % 13.97 C
61 30-08-2018 05:00:00 15.5 C 90 % 13.87 C
62 30-08-2018 05:05:00 15.5 C 90 % 13.87 C
63 30-08-2018 05:10:00 15.5 C 90 % 13.87 C
64 30-08-2018 05:15:00 15.4 C 90 % 13.77 C
65 30-08-2018 05:20:00 15.4 C 90 % 13.77 C
66 30-08-2018 05:25:00 15.4 C 90 % 13.77 C
67 30-08-2018 05:30:00 15.4 C 90 % 13.77 C
68 30-08-2018 05:35:00 15.4 C 89 % 13.6 C
69 30-08-2018 05:40:00 15.3 C 89 % 13.5 C
70 30-08-2018 05:45:00 15.3 C 89 % 13.5 C
71 30-08-2018 05:50:00 15.3 C 89 % 13.5 C
72 30-08-2018 05:55:00 15.3 C 89 % 13.5 C
73 30-08-2018 06:00:00 15.2 C 90 % 13.57 C
74 30-08-2018 06:05:00 15.2 C 90 % 13.57 C
75 30-08-2018 06:10:00 15.2 C 90 % 13.57 C
Sensor: Nr:Datum:Temp:Feuchte:Taupunkt:
Aussen-T/F 76 30-08-2018 06:15:00 15.2 C 90 % 13.57 C
77 30-08-2018 06:20:00 15.1 C 90 % 13.47 C
78 30-08-2018 06:25:00 15.1 C 90 % 13.47 C
79 30-08-2018 06:30:00 15.2 C 90 % 13.57 C
80 30-08-2018 06:35:00 15.1 C 90 % 13.47 C
81 30-08-2018 06:40:00 15.1 C 90 % 13.47 C
82 30-08-2018 06:45:00 15.1 C 90 % 13.47 C
83 30-08-2018 06:50:00 15.1 C 90 % 13.47 C
84 30-08-2018 06:55:00 15.1 C 90 % 13.47 C
85 30-08-2018 07:00:00 15.1 C 90 % 13.47 C
86 30-08-2018 07:05:00 15.1 C 90 % 13.47 C
87 30-08-2018 07:10:00 15.1 C 90 % 13.47 C
88 30-08-2018 07:15:00 15.1 C 90 % 13.47 C
89 30-08-2018 07:20:00 15.1 C 90 % 13.47 C
90 30-08-2018 07:25:00 15.1 C 90 % 13.47 C
91 30-08-2018 07:30:00 15.1 C 90 % 13.47 C
92 30-08-2018 07:35:00 15.1 C 90 % 13.47 C
93 30-08-2018 07:40:00 15.1 C 90 % 13.47 C
94 30-08-2018 07:45:00 15.1 C 89 % 13.3 C
95 30-08-2018 07:50:00 15.2 C 89 % 13.4 C
96 30-08-2018 07:55:00 15.2 C 89 % 13.4 C
97 30-08-2018 08:00:00 15.3 C 89 % 13.5 C
98 30-08-2018 08:05:00 15.3 C 89 % 13.5 C
99 30-08-2018 08:10:00 15.3 C 89 % 13.5 C
100 30-08-2018 08:15:00 15.4 C 89 % 13.6 C
Sensor: Nr:Datum:Temp:Feuchte:Taupunkt:
Aussen-T/F 101 30-08-2018 08:20:00 15.4 C 89 % 13.6 C
102 30-08-2018 08:25:00 15.5 C 88 % 13.52 C
103 30-08-2018 08:30:00 15.6 C 88 % 13.62 C
104 30-08-2018 08:35:00 15.6 C 88 % 13.62 C
105 30-08-2018 08:40:00 15.7 C 88 % 13.72 C
106 30-08-2018 08:45:00 15.8 C 89 % 13.99 C
107 30-08-2018 08:50:00 15.9 C 88 % 13.92 C
108 30-08-2018 08:55:00 16 C 88 % 14.01 C
109 30-08-2018 09:00:00 16 C 87 % 13.84 C
110 30-08-2018 09:05:00 16.1 C 87 % 13.94 C
111 30-08-2018 09:10:00 16.1 C 87 % 13.94 C
112 30-08-2018 09:15:00 16.1 C 86 % 13.76 C
113 30-08-2018 09:20:00 16.2 C 86 % 13.86 C
114 30-08-2018 09:25:00 16.2 C 86 % 13.86 C
115 30-08-2018 09:30:00 16.2 C 86 % 13.86 C
116 30-08-2018 09:35:00 16.2 C 86 % 13.86 C
117 30-08-2018 09:40:00 16.2 C 86 % 13.86 C
118 30-08-2018 09:45:00 16.2 C 86 % 13.86 C
119 30-08-2018 09:50:00 16.2 C 86 % 13.86 C
120 30-08-2018 09:55:00 16.3 C 86 % 13.95 C
121 30-08-2018 10:00:00 16.3 C 85 % 13.77 C
122 30-08-2018 10:05:00 16.4 C 84 % 13.69 C
123 30-08-2018 10:10:00 16.5 C 85 % 13.97 C
124 30-08-2018 10:15:00 16.7 C 84 % 13.98 C
125 30-08-2018 10:20:00 16.8 C 82 % 13.71 C
Sensor: Nr:Datum:Temp:Feuchte:Taupunkt:
Aussen-T/F 126 30-08-2018 10:25:00 16.9 C 82 % 13.81 C
127 30-08-2018 10:30:00 17.1 C 81 % 13.82 C
128 30-08-2018 10:35:00 17.2 C 81 % 13.91 C
129 30-08-2018 10:40:00 17.3 C 81 % 14.01 C
130 30-08-2018 10:45:00 17.3 C 80 % 13.82 C
131 30-08-2018 10:50:00 17.3 C 80 % 13.82 C
132 30-08-2018 10:55:00 17.3 C 80 % 13.82 C
133 30-08-2018 11:00:00 17.4 C 80 % 13.92 C
134 30-08-2018 11:05:00 17.5 C 80 % 14.01 C
135 30-08-2018 11:10:00 17.6 C 79 % 13.92 C
136 30-08-2018 11:15:00 17.6 C 80 % 14.11 C
137 30-08-2018 11:20:00 17.7 C 79 % 14.01 C
138 30-08-2018 11:25:00 17.8 C 79 % 14.11 C
139 30-08-2018 11:30:00 17.8 C 78 % 13.91 C
140 30-08-2018 11:35:00 17.8 C 78 % 13.91 C
141 30-08-2018 11:40:00 17.7 C 76 % 13.42 C
142 30-08-2018 11:45:00 17.7 C 76 % 13.42 C
143 30-08-2018 11:50:00 17.8 C 76 % 13.52 C
144 30-08-2018 11:55:00 17.9 C 75 % 13.41 C
145 30-08-2018 12:00:00 18 C 76 % 13.71 C
146 30-08-2018 12:05:00 18.1 C 75 % 13.6 C
147 30-08-2018 12:10:00 18.2 C 76 % 13.9 C
148 30-08-2018 12:15:00 18.3 C 76 % 14 C
149 30-08-2018 12:20:00 18.4 C 75 % 13.89 C
150 30-08-2018 12:25:00 18.5 C 74 % 13.78 C
Sensor: Nr:Datum:Temp:Feuchte:Taupunkt:
Aussen-T/F 151 30-08-2018 12:30:00 18.6 C 74 % 13.88 C
152 30-08-2018 12:35:00 18.8 C 73 % 13.86 C
153 30-08-2018 12:40:00 18.9 C 73 % 13.96 C
154 30-08-2018 12:45:00 19.1 C 72 % 13.94 C
155 30-08-2018 12:50:00 19.1 C 71 % 13.72 C
156 30-08-2018 12:55:00 19.2 C 70 % 13.6 C
157 30-08-2018 13:00:00 19.1 C 69 % 13.28 C
158 30-08-2018 13:05:00 19.1 C 68 % 13.06 C
159 30-08-2018 13:10:00 18.9 C 67 % 12.64 C
160 30-08-2018 13:15:00 18.9 C 67 % 12.64 C
161 30-08-2018 13:20:00 19.1 C 67 % 12.83 C
162 30-08-2018 13:25:00 19.3 C 63 % 12.09 C
163 30-08-2018 13:30:00 19.4 C 61 % 11.69 C
164 30-08-2018 13:35:00 19.5 C 62 % 12.03 C
165 30-08-2018 13:40:00 19.4 C 63 % 12.18 C
166 30-08-2018 13:45:00 19.5 C 64 % 12.51 C
167 30-08-2018 13:50:00 19.6 C 65 % 12.84 C
168 30-08-2018 13:55:00 19.6 C 59 % 11.37 C
169 30-08-2018 14:00:00 19.4 C 59 % 11.19 C
170 30-08-2018 14:05:00 19.4 C 60 % 11.44 C
171 30-08-2018 14:10:00 19.4 C 63 % 12.18 C
172 30-08-2018 14:15:00 19.6 C 63 % 12.37 C
173 30-08-2018 14:20:00 19.6 C 62 % 12.13 C
174 30-08-2018 14:25:00 19.6 C 65 % 12.84 C
175 30-08-2018 14:30:00 19.7 C 62 % 12.22 C
Sensor: Nr:Datum:Temp:Feuchte:Taupunkt:
Aussen-T/F 176 30-08-2018 14:35:00 19.8 C 63 % 12.56 C
177 30-08-2018 14:40:00 20 C 60 % 12 C
178 30-08-2018 14:45:00 20.1 C 60 % 12.1 C
179 30-08-2018 14:50:00 20.2 C 58 % 11.68 C
180 30-08-2018 14:55:00 20.5 C 57 % 11.7 C
181 30-08-2018 15:00:00 20.6 C 56 % 11.52 C
182 30-08-2018 15:05:00 20.7 C 55 % 11.34 C
183 30-08-2018 15:10:00 20.7 C 53 % 10.78 C
184 30-08-2018 15:15:00 20.6 C 54 % 10.97 C
185 30-08-2018 15:20:00 20.6 C 54 % 10.97 C
186 30-08-2018 15:25:00 20.5 C 54 % 10.88 C
187 30-08-2018 15:30:00 20.4 C 53 % 10.51 C
188 30-08-2018 15:35:00 20.4 C 54 % 10.79 C
189 30-08-2018 15:40:00 20.6 C 53 % 10.69 C
190 30-08-2018 15:45:00 20.6 C 53 % 10.69 C
191 30-08-2018 15:50:00 20.4 C 53 % 10.51 C
192 30-08-2018 15:55:00 20.3 C 54 % 10.69 C
193 30-08-2018 16:00:00 20.3 C 56 % 11.24 C
194 30-08-2018 16:05:00 20.3 C 54 % 10.69 C
195 30-08-2018 16:10:00 20.4 C 54 % 10.79 C
196 30-08-2018 16:15:00 20.4 C 53 % 10.51 C
197 30-08-2018 16:20:00 20.6 C 53 % 10.69 C
198 30-08-2018 16:25:00 20.8 C 52 % 10.59 C
199 30-08-2018 16:30:00 21.2 C 50 % 10.37 C
200 30-08-2018 16:35:00 21.3 C 50 % 10.46 C
Sensor: Nr:Datum:Temp:Feuchte:Taupunkt:
Aussen-T/F 201 30-08-2018 16:40:00 21.5 C 50 % 10.65 C
202 30-08-2018 16:45:00 21.4 C 49 % 10.25 C
203 30-08-2018 16:50:00 21.6 C 50 % 10.74 C
204 30-08-2018 16:55:00 21.6 C 48 % 10.13 C
205 30-08-2018 17:00:00 21.4 C 49 % 10.25 C
206 30-08-2018 17:05:00 21.6 C 50 % 10.74 C
207 30-08-2018 17:10:00 21.8 C 47 % 9.99 C
208 30-08-2018 17:15:00 21.9 C 48 % 10.4 C
209 30-08-2018 17:20:00 21.9 C 47 % 10.09 C
210 30-08-2018 17:25:00 21.9 C 48 % 10.4 C
211 30-08-2018 17:30:00 21.9 C 47 % 10.09 C
212 30-08-2018 17:35:00 21.8 C 48 % 10.31 C
213 30-08-2018 17:40:00 22.1 C 47 % 10.27 C
214 30-08-2018 17:45:00 22.2 C 47 % 10.36 C
215 30-08-2018 17:50:00 22.2 C 46 % 10.04 C
216 30-08-2018 17:55:00 22.2 C 47 % 10.36 C
217 30-08-2018 18:00:00 21.9 C 46 % 9.77 C
218 30-08-2018 18:05:00 21.7 C 46 % 9.58 C
219 30-08-2018 18:10:00 21.4 C 47 % 9.63 C
220 30-08-2018 18:15:00 21.4 C 46 % 9.31 C
221 30-08-2018 18:20:00 21.3 C 46 % 9.22 C
222 30-08-2018 18:25:00 21.3 C 46 % 9.22 C
223 30-08-2018 18:30:00 21.3 C 47 % 9.54 C
224 30-08-2018 18:35:00 21.4 C 46 % 9.31 C
225 30-08-2018 18:40:00 21.3 C 46 % 9.22 C
Sensor: Nr:Datum:Temp:Feuchte:Taupunkt:
Aussen-T/F 226 30-08-2018 18:45:00 21.2 C 46 % 9.13 C
227 30-08-2018 18:50:00 21 C 48 % 9.58 C
228 30-08-2018 18:55:00 20.9 C 50 % 10.1 C
229 30-08-2018 19:00:00 20.9 C 49 % 9.79 C
230 30-08-2018 19:05:00 20.8 C 46 % 8.77 C
231 30-08-2018 19:10:00 20.6 C 48 % 9.21 C
232 30-08-2018 19:15:00 20.4 C 47 % 8.72 C
233 30-08-2018 19:20:00 20.2 C 48 % 8.85 C
234 30-08-2018 19:25:00 20.1 C 48 % 8.76 C
235 30-08-2018 19:30:00 19.9 C 49 % 8.88 C
236 30-08-2018 19:35:00 19.7 C 49 % 8.7 C
237 30-08-2018 19:40:00 19.6 C 49 % 8.6 C
238 30-08-2018 19:45:00 19.4 C 49 % 8.42 C
239 30-08-2018 19:50:00 19.3 C 49 % 8.33 C
240 30-08-2018 19:55:00 19.2 C 50 % 8.53 C
241 30-08-2018 20:00:00 19 C 52 % 8.93 C
242 30-08-2018 20:05:00 18.7 C 55 % 9.48 C
243 30-08-2018 20:10:00 18.3 C 58 % 9.9 C
244 30-08-2018 20:15:00 17.9 C 59 % 9.78 C
245 30-08-2018 20:20:00 17.5 C 58 % 9.15 C
246 30-08-2018 20:25:00 17.2 C 62 % 9.86 C
247 30-08-2018 20:30:00 16.8 C 64 % 9.96 C
248 30-08-2018 20:35:00 16.6 C 64 % 9.77 C
249 30-08-2018 20:40:00 16.3 C 65 % 9.71 C
250 30-08-2018 20:45:00 15.9 C 65 % 9.34 C
Sensor: Nr:Datum:Temp:Feuchte:Taupunkt:
Aussen-T/F 251 30-08-2018 20:50:00 15.7 C 66 % 9.37 C
252 30-08-2018 20:55:00 15.5 C 67 % 9.41 C
253 30-08-2018 21:00:00 15.3 C 67 % 9.21 C
254 30-08-2018 21:05:00 15.3 C 68 % 9.43 C
255 30-08-2018 21:10:00 15.2 C 68 % 9.34 C
256 30-08-2018 21:15:00 15.1 C 69 % 9.46 C
257 30-08-2018 21:20:00 15 C 70 % 9.58 C
258 30-08-2018 21:25:00 14.9 C 70 % 9.48 C
259 30-08-2018 21:30:00 14.8 C 70 % 9.39 C
260 30-08-2018 21:35:00 14.8 C 71 % 9.6 C
261 30-08-2018 21:40:00 14.7 C 71 % 9.5 C
262 30-08-2018 21:45:00 14.6 C 71 % 9.41 C
263 30-08-2018 21:50:00 14.6 C 71 % 9.41 C
264 30-08-2018 21:55:00 14.5 C 73 % 9.72 C
265 30-08-2018 22:00:00 14.4 C 74 % 9.83 C
266 30-08-2018 22:05:00 14.3 C 73 % 9.53 C
267 30-08-2018 22:10:00 14.2 C 74 % 9.64 C
268 30-08-2018 22:15:00 14.1 C 75 % 9.74 C
269 30-08-2018 22:20:00 13.9 C 75 % 9.55 C
270 30-08-2018 22:25:00 13.7 C 76 % 9.55 C
271 30-08-2018 22:30:00 13.5 C 77 % 9.55 C
272 30-08-2018 22:35:00 13.3 C 78 % 9.55 C
273 30-08-2018 22:40:00 13.2 C 78 % 9.45 C
274 30-08-2018 22:45:00 13 C 79 % 9.45 C
275 30-08-2018 22:50:00 12.8 C 79 % 9.25 C
Sensor: Nr:Datum:Temp:Feuchte:Taupunkt:
Aussen-T/F 276 30-08-2018 22:55:00 12.7 C 79 % 9.16 C
277 30-08-2018 23:00:00 12.7 C 80 % 9.34 C
278 30-08-2018 23:05:00 12.6 C 80 % 9.25 C
279 30-08-2018 23:10:00 12.6 C 81 % 9.43 C
280 30-08-2018 23:15:00 12.5 C 80 % 9.15 C
281 30-08-2018 23:20:00 12.4 C 81 % 9.23 C
282 30-08-2018 23:25:00 12.3 C 81 % 9.14 C
283 30-08-2018 23:30:00 12.3 C 81 % 9.14 C
284 30-08-2018 23:35:00 12.2 C 82 % 9.22 C
285 30-08-2018 23:40:00 12.2 C 82 % 9.22 C
286 30-08-2018 23:45:00 12.2 C 82 % 9.22 C
287 30-08-2018 23:50:00 12.2 C 82 % 9.22 C
288 30-08-2018 23:55:00 12.2 C 82 % 9.22 C
289 31-08-2018 00:00:00 12.1 C 82 % 9.12 C
290 31-08-2018 00:05:00 12.1 C 83 % 9.3 C
291 31-08-2018 00:10:00 12.1 C 83 % 9.3 C
292 31-08-2018 00:15:00 12.1 C 83 % 9.3 C
293 31-08-2018 00:20:00 12.1 C 84 % 9.48 C
294 31-08-2018 00:25:00 12.1 C 84 % 9.48 C
295 31-08-2018 00:30:00 12 C 84 % 9.38 C
296 31-08-2018 00:35:00 12 C 83 % 9.21 C
297 31-08-2018 00:40:00 11.9 C 83 % 9.11 C
298 31-08-2018 00:45:00 11.9 C 84 % 9.29 C
299 31-08-2018 00:50:00 11.8 C 84 % 9.19 C
300 31-08-2018 00:55:00 11.7 C 84 % 9.09 C
Sensor: Nr:Datum:Temp:Feuchte:Taupunkt:
Aussen-T/F 301 31-08-2018 01:00:00 11.7 C 84 % 9.09 C
302 31-08-2018 01:05:00 11.6 C 84 % 8.99 C
303 31-08-2018 01:10:00 11.6 C 85 % 9.17 C
304 31-08-2018 01:15:00 11.5 C 85 % 9.07 C
305 31-08-2018 01:20:00 11.5 C 85 % 9.07 C
306 31-08-2018 01:25:00 11.4 C 85 % 8.97 C
307 31-08-2018 01:30:00 11.4 C 85 % 8.97 C
308 31-08-2018 01:35:00 11.3 C 86 % 9.05 C
309 31-08-2018 01:40:00 11.3 C 86 % 9.05 C
310 31-08-2018 01:45:00 11.3 C 86 % 9.05 C
311 31-08-2018 01:50:00 11.3 C 86 % 9.05 C
312 31-08-2018 01:55:00 11.3 C 86 % 9.05 C
313 31-08-2018 02:00:00 11.3 C 87 % 9.22 C
314 31-08-2018 02:05:00 11.3 C 87 % 9.22 C
315 31-08-2018 02:10:00 11.4 C 87 % 9.32 C
316 31-08-2018 02:15:00 11.4 C 87 % 9.32 C
317 31-08-2018 02:20:00 11.4 C 87 % 9.32 C
318 31-08-2018 02:25:00 11.4 C 87 % 9.32 C
319 31-08-2018 02:30:00 11.4 C 87 % 9.32 C
320 31-08-2018 02:35:00 11.4 C 87 % 9.32 C
321 31-08-2018 02:40:00 11.4 C 87 % 9.32 C
322 31-08-2018 02:45:00 11.4 C 87 % 9.32 C
323 31-08-2018 02:50:00 11.4 C 87 % 9.32 C
324 31-08-2018 02:55:00 11.4 C 87 % 9.32 C
325 31-08-2018 03:00:00 11.4 C 87 % 9.32 C
Sensor: Nr:Datum:Temp:Feuchte:Taupunkt:
Aussen-T/F 326 31-08-2018 03:05:00 11.3 C 87 % 9.22 C
327 31-08-2018 03:10:00 11.3 C 87 % 9.22 C
328 31-08-2018 03:15:00 11.3 C 88 % 9.39 C
329 31-08-2018 03:20:00 11.3 C 88 % 9.39 C
330 31-08-2018 03:25:00 11.2 C 88 % 9.29 C
331 31-08-2018 03:30:00 11.2 C 88 % 9.29 C
332 31-08-2018 03:35:00 11.2 C 88 % 9.29 C
333 31-08-2018 03:40:00 11.2 C 88 % 9.29 C
334 31-08-2018 03:45:00 11.2 C 88 % 9.29 C
335 31-08-2018 03:50:00 11.2 C 88 % 9.29 C
336 31-08-2018 03:55:00 11.2 C 88 % 9.29 C
337 31-08-2018 04:00:00 11.2 C 88 % 9.29 C
338 31-08-2018 04:05:00 11.2 C 88 % 9.29 C
339 31-08-2018 04:10:00 11.2 C 88 % 9.29 C
340 31-08-2018 04:15:00 11.2 C 88 % 9.29 C
341 31-08-2018 04:20:00 11.2 C 89 % 9.46 C
342 31-08-2018 04:25:00 11.2 C 89 % 9.46 C
343 31-08-2018 04:30:00 11.2 C 89 % 9.46 C
344 31-08-2018 04:35:00 11.2 C 89 % 9.46 C
345 31-08-2018 04:40:00 11.2 C 89 % 9.46 C
346 31-08-2018 04:45:00 11.1 C 89 % 9.36 C
347 31-08-2018 04:50:00 11.1 C 89 % 9.36 C
348 31-08-2018 04:55:00 11.1 C 89 % 9.36 C
349 31-08-2018 05:00:00 11.1 C 89 % 9.36 C
350 31-08-2018 05:05:00 11 C 89 % 9.26 C
Sensor: Nr:Datum:Temp:Feuchte:Taupunkt:
Aussen-T/F 351 31-08-2018 05:10:00 11 C 89 % 9.26 C
352 31-08-2018 05:15:00 11 C 89 % 9.26 C
353 31-08-2018 05:20:00 11 C 90 % 9.42 C
354 31-08-2018 05:25:00 11 C 90 % 9.42 C
355 31-08-2018 05:30:00 11 C 90 % 9.42 C
356 31-08-2018 05:35:00 11 C 90 % 9.42 C
357 31-08-2018 05:40:00 11 C 90 % 9.42 C
358 31-08-2018 05:45:00 11.1 C 90 % 9.52 C
359 31-08-2018 05:50:00 11.1 C 90 % 9.52 C
360 31-08-2018 05:55:00 11.1 C 90 % 9.52 C
361 31-08-2018 06:00:00 11.2 C 90 % 9.62 C
362 31-08-2018 06:05:00 11.2 C 90 % 9.62 C
363 31-08-2018 06:10:00 11.2 C 90 % 9.62 C
364 31-08-2018 06:15:00 11.3 C 90 % 9.72 C
365 31-08-2018 06:20:00 11.3 C 90 % 9.72 C
366 31-08-2018 06:25:00 11.3 C 90 % 9.72 C
367 31-08-2018 06:30:00 11.3 C 90 % 9.72 C
368 31-08-2018 06:35:00 11.3 C 90 % 9.72 C
369 31-08-2018 06:40:00 11.3 C 90 % 9.72 C
370 31-08-2018 06:45:00 11.3 C 90 % 9.72 C
371 31-08-2018 06:50:00 11.3 C 90 % 9.72 C
372 31-08-2018 06:55:00 11.3 C 90 % 9.72 C
373 31-08-2018 07:00:00 11.3 C 90 % 9.72 C
374 31-08-2018 07:05:00 11.3 C 90 % 9.72 C
375 31-08-2018 07:10:00 11.3 C 90 % 9.72 C
Sensor: Nr:Datum:Temp:Feuchte:Taupunkt:
Aussen-T/F 376 31-08-2018 07:15:00 11.3 C 90 % 9.72 C
377 31-08-2018 07:20:00 11.4 C 90 % 9.82 C
378 31-08-2018 07:25:00 11.4 C 91 % 9.98 C
379 31-08-2018 07:30:00 11.4 C 91 % 9.98 C
380 31-08-2018 07:35:00 11.6 C 90 % 10.02 C
381 31-08-2018 07:40:00 11.6 C 91 % 10.18 C
382 31-08-2018 07:45:00 11.7 C 90 % 10.12 C
383 31-08-2018 07:50:00 11.7 C 91 % 10.28 C
384 31-08-2018 07:55:00 11.8 C 91 % 10.38 C
385 31-08-2018 08:00:00 11.9 C 91 % 10.48 C
386 31-08-2018 08:05:00 12 C 90 % 10.41 C
387 31-08-2018 08:10:00 12.1 C 91 % 10.68 C
388 31-08-2018 08:15:00 12.2 C 90 % 10.61 C
389 31-08-2018 08:20:00 12.2 C 90 % 10.61 C
390 31-08-2018 08:25:00 12.3 C 90 % 10.71 C
391 31-08-2018 08:30:00 12.3 C 90 % 10.71 C
392 31-08-2018 08:35:00 12.4 C 90 % 10.81 C
393 31-08-2018 08:40:00 12.4 C 88 % 10.47 C
394 31-08-2018 08:45:00 12.6 C 88 % 10.67 C
395 31-08-2018 08:50:00 12.6 C 87 % 10.5 C
396 31-08-2018 08:55:00 12.7 C 87 % 10.59 C
397 31-08-2018 09:00:00 12.8 C 87 % 10.69 C
398 31-08-2018 09:05:00 12.9 C 87 % 10.79 C
399 31-08-2018 09:10:00 13 C 87 % 10.89 C
400 31-08-2018 09:15:00 13.1 C 86 % 10.81 C
Sensor: Nr:Datum:Temp:Feuchte:Taupunkt:
Aussen-T/F 401 31-08-2018 09:20:00 13.2 C 86 % 10.91 C
402 31-08-2018 09:25:00 13.3 C 85 % 10.83 C
403 31-08-2018 09:30:00 13.4 C 85 % 10.93 C
404 31-08-2018 09:35:00 13.5 C 84 % 10.85 C
405 31-08-2018 09:40:00 13.6 C 85 % 11.13 C
406 31-08-2018 09:45:00 13.7 C 85 % 11.23 C
407 31-08-2018 09:50:00 13.9 C 85 % 11.42 C
408 31-08-2018 09:55:00 14 C 84 % 11.34 C
409 31-08-2018 10:00:00 14.1 C 83 % 11.26 C
410 31-08-2018 10:05:00 14.2 C 83 % 11.36 C
411 31-08-2018 10:10:00 14.3 C 84 % 11.64 C
412 31-08-2018 10:15:00 14.4 C 83 % 11.55 C
413 31-08-2018 10:20:00 14.6 C 83 % 11.75 C
414 31-08-2018 10:25:00 14.8 C 82 % 11.76 C
415 31-08-2018 10:30:00 14.9 C 81 % 11.67 C
416 31-08-2018 10:35:00 15.1 C 82 % 12.05 C
417 31-08-2018 10:40:00 15.2 C 80 % 11.78 C
418 31-08-2018 10:45:00 15.3 C 80 % 11.87 C
419 31-08-2018 10:50:00 15.4 C 80 % 11.97 C
420 31-08-2018 10:55:00 15.6 C 79 % 11.97 C
421 31-08-2018 11:00:00 15.7 C 78 % 11.88 C
422 31-08-2018 11:05:00 15.8 C 78 % 11.97 C
423 31-08-2018 11:10:00 15.9 C 78 % 12.07 C
424 31-08-2018 11:15:00 15.9 C 77 % 11.88 C
425 31-08-2018 11:20:00 16.1 C 78 % 12.27 C
Sensor: Nr:Datum:Temp:Feuchte:Taupunkt:
Aussen-T/F 426 31-08-2018 11:25:00 16.1 C 76 % 11.87 C
427 31-08-2018 11:30:00 16.3 C 77 % 12.26 C
428 31-08-2018 11:35:00 16.4 C 76 % 12.16 C
429 31-08-2018 11:40:00 16.6 C 74 % 11.95 C
430 31-08-2018 11:45:00 16.7 C 74 % 12.05 C
431 31-08-2018 11:50:00 16.7 C 72 % 11.63 C
432 31-08-2018 11:55:00 16.7 C 73 % 11.84 C
433 31-08-2018 12:00:00 16.7 C 72 % 11.63 C
434 31-08-2018 12:05:00 16.9 C 73 % 12.03 C
435 31-08-2018 12:10:00 17.2 C 72 % 12.11 C
436 31-08-2018 12:15:00 17.3 C 71 % 12 C
437 31-08-2018 12:20:00 17.5 C 69 % 11.75 C
438 31-08-2018 12:25:00 17.7 C 69 % 11.95 C
439 31-08-2018 12:30:00 17.7 C 67 % 11.5 C
440 31-08-2018 12:35:00 17.7 C 67 % 11.5 C
441 31-08-2018 12:40:00 17.8 C 66 % 11.37 C
442 31-08-2018 12:45:00 17.8 C 65 % 11.14 C
443 31-08-2018 12:50:00 17.9 C 65 % 11.23 C
444 31-08-2018 12:55:00 18 C 64 % 11.09 C
445 31-08-2018 13:00:00 18.1 C 65 % 11.42 C
446 31-08-2018 13:05:00 18.2 C 63 % 11.05 C
447 31-08-2018 13:10:00 18.3 C 63 % 11.14 C
448 31-08-2018 13:15:00 18.4 C 63 % 11.23 C
449 31-08-2018 13:20:00 18.5 C 61 % 10.84 C
450 31-08-2018 13:25:00 18.5 C 63 % 11.33 C
Sensor: Nr:Datum:Temp:Feuchte:Taupunkt:
Aussen-T/F 451 31-08-2018 13:30:00 18.6 C 61 % 10.94 C
452 31-08-2018 13:35:00 18.7 C 60 % 10.78 C
453 31-08-2018 13:40:00 18.7 C 59 % 10.53 C
454 31-08-2018 13:45:00 18.8 C 59 % 10.63 C
455 31-08-2018 13:50:00 18.8 C 59 % 10.63 C
456 31-08-2018 13:55:00 19 C 58 % 10.56 C
457 31-08-2018 14:00:00 19.1 C 58 % 10.65 C
458 31-08-2018 14:05:00 19.2 C 59 % 11 C
459 31-08-2018 14:10:00 19.3 C 58 % 10.84 C
460 31-08-2018 14:15:00 19.3 C 55 % 10.04 C
461 31-08-2018 14:20:00 19.4 C 55 % 10.13 C
462 31-08-2018 14:25:00 19.4 C 55 % 10.13 C
463 31-08-2018 14:30:00 19.4 C 54 % 9.86 C
464 31-08-2018 14:35:00 19.4 C 54 % 9.86 C
465 31-08-2018 14:40:00 19.3 C 54 % 9.77 C
466 31-08-2018 14:45:00 19.3 C 55 % 10.04 C
467 31-08-2018 14:50:00 19.4 C 54 % 9.86 C
468 31-08-2018 14:55:00 19.4 C 55 % 10.13 C
469 31-08-2018 15:00:00 19.4 C 55 % 10.13 C
470 31-08-2018 15:05:00 19.6 C 55 % 10.32 C
471 31-08-2018 15:10:00 19.7 C 53 % 9.86 C
472 31-08-2018 15:15:00 19.7 C 53 % 9.86 C
473 31-08-2018 15:20:00 19.8 C 52 % 9.67 C
474 31-08-2018 15:25:00 19.9 C 52 % 9.76 C
475 31-08-2018 15:30:00 19.8 C 52 % 9.67 C
Sensor: Nr:Datum:Temp:Feuchte:Taupunkt:
Aussen-T/F 476 31-08-2018 15:35:00 19.7 C 53 % 9.86 C
477 31-08-2018 15:40:00 19.7 C 52 % 9.58 C
478 31-08-2018 15:45:00 19.6 C 52 % 9.48 C
479 31-08-2018 15:50:00 19.4 C 52 % 9.3 C
480 31-08-2018 15:55:00 19.4 C 53 % 9.58 C
481 31-08-2018 16:00:00 19.6 C 52 % 9.48 C
482 31-08-2018 16:05:00 19.7 C 52 % 9.58 C
483 31-08-2018 16:10:00 19.9 C 51 % 9.47 C
484 31-08-2018 16:15:00 20.1 C 51 % 9.66 C
485 31-08-2018 16:20:00 20 C 51 % 9.56 C
486 31-08-2018 16:25:00 20 C 50 % 9.27 C
487 31-08-2018 16:30:00 20 C 50 % 9.27 C
488 31-08-2018 16:35:00 20.2 C 49 % 9.15 C
489 31-08-2018 16:40:00 20.3 C 48 % 8.94 C
490 31-08-2018 16:45:00 20.3 C 48 % 8.94 C
491 31-08-2018 16:50:00 20.5 C 48 % 9.12 C
492 31-08-2018 16:55:00 20.7 C 48 % 9.3 C
493 31-08-2018 17:00:00 20.9 C 47 % 9.17 C
494 31-08-2018 17:05:00 20.8 C 47 % 9.08 C
495 31-08-2018 17:10:00 20.6 C 47 % 8.9 C
496 31-08-2018 17:15:00 20.3 C 48 % 8.94 C
497 31-08-2018 17:20:00 20.2 C 50 % 9.45 C
498 31-08-2018 17:25:00 20.2 C 49 % 9.15 C
499 31-08-2018 17:30:00 20.3 C 47 % 8.63 C
500 31-08-2018 17:35:00 20.3 C 49 % 9.24 C
Sensor: Nr:Datum:Temp:Feuchte:Taupunkt:
Aussen-T/F 501 31-08-2018 17:40:00 20.7 C 48 % 9.3 C
502 31-08-2018 17:45:00 20.8 C 47 % 9.08 C
503 31-08-2018 17:50:00 20.9 C 47 % 9.17 C
504 31-08-2018 17:55:00 20.9 C 47 % 9.17 C
505 31-08-2018 18:00:00 20.9 C 46 % 8.86 C
506 31-08-2018 18:05:00 20.9 C 46 % 8.86 C
507 31-08-2018 18:10:00 20.9 C 45 % 8.53 C
508 31-08-2018 18:15:00 20.9 C 45 % 8.53 C
509 31-08-2018 18:20:00 20.9 C 44 % 8.2 C
510 31-08-2018 18:25:00 20.9 C 44 % 8.2 C
511 31-08-2018 18:30:00 20.8 C 44 % 8.11 C
512 31-08-2018 18:35:00 20.9 C 43 % 7.86 C
513 31-08-2018 18:40:00 20.9 C 43 % 7.86 C
514 31-08-2018 18:45:00 20.9 C 42 % 7.52 C
515 31-08-2018 18:50:00 20.8 C 43 % 7.77 C
516 31-08-2018 18:55:00 20.6 C 43 % 7.59 C
517 31-08-2018 19:00:00 20.4 C 43 % 7.41 C
518 31-08-2018 19:05:00 20.2 C 43 % 7.23 C
519 31-08-2018 19:10:00 20.1 C 45 % 7.81 C
520 31-08-2018 19:15:00 19.9 C 44 % 7.3 C
521 31-08-2018 19:20:00 19.7 C 45 % 7.44 C
522 31-08-2018 19:25:00 19.6 C 44 % 7.03 C
523 31-08-2018 19:30:00 19.4 C 45 % 7.17 C
524 31-08-2018 19:35:00 19.3 C 45 % 7.08 C
525 31-08-2018 19:40:00 19.2 C 46 % 7.31 C
Sensor: Nr:Datum:Temp:Feuchte:Taupunkt:
Aussen-T/F 526 31-08-2018 19:45:00 19.1 C 51 % 8.73 C
527 31-08-2018 19:50:00 18.8 C 51 % 8.46 C
528 31-08-2018 19:55:00 18.3 C 52 % 8.28 C
529 31-08-2018 20:00:00 17.8 C 54 % 8.38 C
530 31-08-2018 20:05:00 17.3 C 56 % 8.45 C
531 31-08-2018 20:10:00 16.8 C 58 % 8.5 C
532 31-08-2018 20:15:00 16.5 C 59 % 8.47 C
533 31-08-2018 20:20:00 16.2 C 60 % 8.43 C
534 31-08-2018 20:25:00 15.9 C 59 % 7.91 C
535 31-08-2018 20:30:00 15.9 C 61 % 8.4 C
536 31-08-2018 20:35:00 15.8 C 62 % 8.54 C
537 31-08-2018 20:40:00 15.7 C 62 % 8.45 C
538 31-08-2018 20:45:00 15.5 C 62 % 8.26 C
539 31-08-2018 20:50:00 15.3 C 63 % 8.31 C
540 31-08-2018 20:55:00 15.2 C 64 % 8.44 C
541 31-08-2018 21:00:00 15 C 65 % 8.48 C
542 31-08-2018 21:05:00 14.8 C 67 % 8.74 C
543 31-08-2018 21:10:00 14.7 C 67 % 8.64 C
544 31-08-2018 21:15:00 14.6 C 67 % 8.55 C
545 31-08-2018 21:20:00 14.5 C 67 % 8.45 C
546 31-08-2018 21:25:00 14.4 C 67 % 8.36 C
547 31-08-2018 21:30:00 14.3 C 68 % 8.48 C
548 31-08-2018 21:35:00 14.2 C 69 % 8.6 C
549 31-08-2018 21:40:00 14.1 C 69 % 8.5 C
550 31-08-2018 21:45:00 14.1 C 70 % 8.72 C
Sensor: Nr:Datum:Temp:Feuchte:Taupunkt:
Aussen-T/F 551 31-08-2018 21:50:00 13.9 C 70 % 8.53 C
552 31-08-2018 21:55:00 13.9 C 71 % 8.73 C
553 31-08-2018 22:00:00 13.8 C 71 % 8.64 C
554 31-08-2018 22:05:00 13.8 C 71 % 8.64 C
555 31-08-2018 22:10:00 13.8 C 71 % 8.64 C
556 31-08-2018 22:15:00 13.8 C 72 % 8.85 C
557 31-08-2018 22:20:00 13.7 C 72 % 8.75 C
558 31-08-2018 22:25:00 13.7 C 73 % 8.95 C
559 31-08-2018 22:30:00 13.7 C 73 % 8.95 C
560 31-08-2018 22:35:00 13.6 C 73 % 8.86 C
561 31-08-2018 22:40:00 13.5 C 73 % 8.76 C
562 31-08-2018 22:45:00 13.5 C 73 % 8.76 C
563 31-08-2018 22:50:00 13.6 C 73 % 8.86 C
564 31-08-2018 22:55:00 13.6 C 72 % 8.65 C
565 31-08-2018 23:00:00 13.6 C 73 % 8.86 C
566 31-08-2018 23:05:00 13.6 C 73 % 8.86 C
567 31-08-2018 23:10:00 13.6 C 73 % 8.86 C
568 31-08-2018 23:15:00 13.5 C 74 % 8.96 C
569 31-08-2018 23:20:00 13.4 C 74 % 8.87 C
570 31-08-2018 23:25:00 13.3 C 75 % 8.97 C
571 31-08-2018 23:30:00 13.3 C 75 % 8.97 C
572 31-08-2018 23:35:00 13.2 C 75 % 8.87 C
573 31-08-2018 23:40:00 13.1 C 75 % 8.77 C
574 31-08-2018 23:45:00 13 C 76 % 8.87 C
575 31-08-2018 23:50:00 12.9 C 76 % 8.78 C
Sensor: Nr:Datum:Temp:Feuchte:Taupunkt:
Aussen-T/F 576 31-08-2018 23:55:00 12.8 C 76 % 8.68 C
577 01-09-2018 00:00:00 12.7 C 76 % 8.58 C
578 01-09-2018 00:05:00 12.6 C 77 % 8.68 C
579 01-09-2018 00:10:00 12.4 C 77 % 8.49 C
580 01-09-2018 00:15:00 12.3 C 78 % 8.58 C
581 01-09-2018 00:20:00 12.2 C 78 % 8.48 C
582 01-09-2018 00:25:00 12.1 C 78 % 8.38 C
583 01-09-2018 00:30:00 11.9 C 79 % 8.38 C
584 01-09-2018 00:35:00 11.8 C 80 % 8.47 C
585 01-09-2018 00:40:00 11.8 C 80 % 8.47 C
586 01-09-2018 00:45:00 11.7 C 80 % 8.37 C
587 01-09-2018 00:50:00 11.6 C 81 % 8.45 C
588 01-09-2018 00:55:00 11.6 C 81 % 8.45 C
589 01-09-2018 01:00:00 11.5 C 81 % 8.36 C
590 01-09-2018 01:05:00 11.5 C 81 % 8.36 C
591 01-09-2018 01:10:00 11.4 C 81 % 8.26 C
592 01-09-2018 01:15:00 11.3 C 81 % 8.16 C
593 01-09-2018 01:20:00 11.1 C 82 % 8.15 C
594 01-09-2018 01:25:00 11.1 C 83 % 8.33 C
595 01-09-2018 01:30:00 10.9 C 83 % 8.13 C
596 01-09-2018 01:35:00 10.8 C 83 % 8.03 C
597 01-09-2018 01:40:00 10.7 C 83 % 7.93 C
598 01-09-2018 01:45:00 10.6 C 83 % 7.84 C
599 01-09-2018 01:50:00 10.5 C 84 % 7.91 C
600 01-09-2018 01:55:00 10.4 C 84 % 7.82 C
Sensor: Nr:Datum:Temp:Feuchte:Taupunkt:
Aussen-T/F 601 01-09-2018 02:00:00 10.3 C 85 % 7.89 C
602 01-09-2018 02:05:00 10.3 C 85 % 7.89 C
603 01-09-2018 02:10:00 10.2 C 85 % 7.79 C
604 01-09-2018 02:15:00 10.1 C 85 % 7.7 C
605 01-09-2018 02:20:00 10.1 C 86 % 7.87 C
606 01-09-2018 02:25:00 10.1 C 86 % 7.87 C
607 01-09-2018 02:30:00 9.9 C 86 % 7.67 C
608 01-09-2018 02:35:00 9.8 C 86 % 7.57 C
609 01-09-2018 02:40:00 9.8 C 86 % 7.57 C
610 01-09-2018 02:45:00 9.8 C 87 % 7.74 C
611 01-09-2018 02:50:00 9.7 C 87 % 7.64 C
612 01-09-2018 02:55:00 9.6 C 87 % 7.55 C
613 01-09-2018 03:00:00 9.6 C 87 % 7.55 C
614 01-09-2018 03:05:00 9.4 C 87 % 7.35 C
615 01-09-2018 03:10:00 9.4 C 87 % 7.35 C
616 01-09-2018 03:15:00 9.3 C 88 % 7.42 C
617 01-09-2018 03:20:00 9.3 C 88 % 7.42 C
618 01-09-2018 03:25:00 9.3 C 88 % 7.42 C
619 01-09-2018 03:30:00 9.2 C 88 % 7.32 C
620 01-09-2018 03:35:00 9.2 C 88 % 7.32 C
621 01-09-2018 03:40:00 9.1 C 89 % 7.39 C
622 01-09-2018 03:45:00 9.1 C 89 % 7.39 C
623 01-09-2018 03:50:00 9.1 C 89 % 7.39 C
624 01-09-2018 03:55:00 9 C 89 % 7.29 C
625 01-09-2018 04:00:00 8.9 C 90 % 7.35 C
Sensor: Nr:Datum:Temp:Feuchte:Taupunkt:
Aussen-T/F 626 01-09-2018 04:05:00 8.9 C 89 % 7.19 C
627 01-09-2018 04:10:00 8.9 C 90 % 7.35 C
628 01-09-2018 04:15:00 8.8 C 90 % 7.25 C
629 01-09-2018 04:20:00 8.8 C 90 % 7.25 C
630 01-09-2018 04:25:00 8.8 C 90 % 7.25 C
631 01-09-2018 04:30:00 8.8 C 90 % 7.25 C
632 01-09-2018 04:35:00 8.7 C 90 % 7.15 C
633 01-09-2018 04:40:00 8.6 C 90 % 7.06 C
634 01-09-2018 04:45:00 8.6 C 91 % 7.22 C
635 01-09-2018 04:50:00 8.6 C 91 % 7.22 C
636 01-09-2018 04:55:00 8.6 C 91 % 7.22 C
637 01-09-2018 05:00:00 8.5 C 91 % 7.12 C
638 01-09-2018 05:05:00 8.4 C 91 % 7.02 C
639 01-09-2018 05:10:00 8.4 C 91 % 7.02 C
640 01-09-2018 05:15:00 8.4 C 91 % 7.02 C
641 01-09-2018 05:20:00 8.3 C 91 % 6.92 C
642 01-09-2018 05:25:00 8.4 C 91 % 7.02 C
643 01-09-2018 05:30:00 8.3 C 91 % 6.92 C
644 01-09-2018 05:35:00 8.3 C 92 % 7.08 C
645 01-09-2018 05:40:00 8.3 C 91 % 6.92 C
646 01-09-2018 05:45:00 8.3 C 92 % 7.08 C
647 01-09-2018 05:50:00 8.2 C 91 % 6.82 C
648 01-09-2018 05:55:00 8.1 C 91 % 6.72 C
649 01-09-2018 06:00:00 8.1 C 92 % 6.88 C
650 01-09-2018 06:05:00 8.1 C 92 % 6.88 C
Sensor: Nr:Datum:Temp:Feuchte:Taupunkt:
Aussen-T/F 651 01-09-2018 06:10:00 8.1 C 92 % 6.88 C
652 01-09-2018 06:15:00 8 C 92 % 6.78 C
653 01-09-2018 06:20:00 7.9 C 92 % 6.68 C
654 01-09-2018 06:25:00 7.9 C 92 % 6.68 C
655 01-09-2018 06:30:00 7.9 C 92 % 6.68 C
656 01-09-2018 06:35:00 7.8 C 92 % 6.58 C
657 01-09-2018 06:40:00 7.8 C 92 % 6.58 C
658 01-09-2018 06:45:00 7.8 C 93 % 6.74 C
659 01-09-2018 06:50:00 7.9 C 93 % 6.84 C
660 01-09-2018 06:55:00 7.8 C 93 % 6.74 C
661 01-09-2018 07:00:00 7.8 C 93 % 6.74 C
662 01-09-2018 07:05:00 7.8 C 93 % 6.74 C
663 01-09-2018 07:10:00 7.8 C 93 % 6.74 C
664 01-09-2018 07:15:00 7.8 C 93 % 6.74 C
665 01-09-2018 07:20:00 7.8 C 93 % 6.74 C
666 01-09-2018 07:25:00 7.8 C 93 % 6.74 C
667 01-09-2018 07:30:00 7.8 C 93 % 6.74 C
668 01-09-2018 07:35:00 7.8 C 93 % 6.74 C
669 01-09-2018 07:40:00 7.9 C 93 % 6.84 C
670 01-09-2018 07:45:00 7.9 C 93 % 6.84 C
671 01-09-2018 07:50:00 8 C 93 % 6.94 C
672 01-09-2018 07:55:00 8 C 93 % 6.94 C
673 01-09-2018 08:00:00 8.1 C 93 % 7.04 C
674 01-09-2018 08:05:00 8.1 C 93 % 7.04 C
675 01-09-2018 08:10:00 8.2 C 93 % 7.14 C
Sensor: Nr:Datum:Temp:Feuchte:Taupunkt:
Aussen-T/F 676 01-09-2018 08:15:00 8.2 C 93 % 7.14 C
677 01-09-2018 08:20:00 8.3 C 93 % 7.24 C
678 01-09-2018 08:25:00 8.3 C 93 % 7.24 C
679 01-09-2018 08:30:00 8.4 C 94 % 7.49 C
680 01-09-2018 08:35:00 8.5 C 94 % 7.59 C
681 01-09-2018 08:40:00 8.6 C 94 % 7.69 C
682 01-09-2018 08:45:00 8.7 C 94 % 7.79 C
683 01-09-2018 08:50:00 8.8 C 94 % 7.89 C
684 01-09-2018 08:55:00 8.9 C 94 % 7.99 C
685 01-09-2018 09:00:00 9 C 94 % 8.09 C
686 01-09-2018 09:05:00 9.1 C 94 % 8.19 C
687 01-09-2018 09:10:00 9.2 C 94 % 8.29 C
688 01-09-2018 09:15:00 9.3 C 94 % 8.39 C
689 01-09-2018 09:20:00 9.5 C 94 % 8.58 C
690 01-09-2018 09:25:00 9.6 C 94 % 8.68 C
691 01-09-2018 09:30:00 9.8 C 94 % 8.88 C
692 01-09-2018 09:35:00 9.9 C 94 % 8.98 C
693 01-09-2018 09:40:00 10.1 C 94 % 9.18 C
694 01-09-2018 09:45:00 10.3 C 94 % 9.38 C
695 01-09-2018 09:50:00 10.4 C 94 % 9.48 C
696 01-09-2018 09:55:00 10.6 C 93 % 9.52 C
697 01-09-2018 10:00:00 10.8 C 93 % 9.71 C
698 01-09-2018 10:05:00 10.9 C 93 % 9.81 C
699 01-09-2018 10:10:00 11.1 C 93 % 10.01 C
700 01-09-2018 10:15:00 11.3 C 92 % 10.05 C
Sensor: Nr:Datum:Temp:Feuchte:Taupunkt:
Aussen-T/F 701 01-09-2018 10:20:00 11.5 C 91 % 10.08 C
702 01-09-2018 10:25:00 11.7 C 90 % 10.12 C
703 01-09-2018 10:30:00 11.9 C 90 % 10.31 C
704 01-09-2018 10:35:00 12.2 C 89 % 10.44 C
705 01-09-2018 10:40:00 12.3 C 88 % 10.37 C
706 01-09-2018 10:45:00 12.6 C 86 % 10.32 C
707 01-09-2018 10:50:00 12.9 C 85 % 10.44 C
708 01-09-2018 10:55:00 13.1 C 83 % 10.28 C
709 01-09-2018 11:00:00 13.3 C 82 % 10.3 C
710 01-09-2018 11:05:00 13.7 C 80 % 10.32 C
711 01-09-2018 11:10:00 14 C 80 % 10.61 C
712 01-09-2018 11:15:00 14.2 C 79 % 10.61 C
713 01-09-2018 11:20:00 14.4 C 76 % 10.23 C
714 01-09-2018 11:25:00 14.7 C 76 % 10.52 C
715 01-09-2018 11:30:00 14.8 C 74 % 10.22 C
716 01-09-2018 11:35:00 15.1 C 73 % 10.3 C
717 01-09-2018 11:40:00 15.3 C 73 % 10.49 C
718 01-09-2018 11:45:00 15.6 C 71 % 10.37 C
719 01-09-2018 11:50:00 15.8 C 69 % 10.13 C
720 01-09-2018 11:55:00 15.9 C 69 % 10.23 C
721 01-09-2018 12:00:00 16.1 C 69 % 10.42 C
722 01-09-2018 12:05:00 16.3 C 68 % 10.39 C
723 01-09-2018 12:10:00 16.4 C 66 % 10.04 C
724 01-09-2018 12:15:00 16.6 C 66 % 10.23 C
725 01-09-2018 12:20:00 16.9 C 67 % 10.74 C
Sensor: Nr:Datum:Temp:Feuchte:Taupunkt:
Aussen-T/F 726 01-09-2018 12:25:00 17.2 C 64 % 10.34 C
727 01-09-2018 12:30:00 17.4 C 65 % 10.76 C
728 01-09-2018 12:35:00 17.6 C 63 % 10.48 C
729 01-09-2018 12:40:00 17.8 C 62 % 10.43 C
730 01-09-2018 12:45:00 17.9 C 61 % 10.28 C
731 01-09-2018 12:50:00 18.1 C 60 % 10.22 C
732 01-09-2018 12:55:00 18.2 C 59 % 10.06 C
733 01-09-2018 13:00:00 18.4 C 58 % 9.99 C
734 01-09-2018 13:05:00 18.6 C 59 % 10.44 C
735 01-09-2018 13:10:00 18.7 C 56 % 9.75 C
736 01-09-2018 13:15:00 18.8 C 55 % 9.58 C
737 01-09-2018 13:20:00 18.7 C 53 % 8.93 C
738 01-09-2018 13:25:00 18.6 C 52 % 8.56 C
739 01-09-2018 13:30:00 18.5 C 53 % 8.75 C
740 01-09-2018 13:35:00 18.4 C 55 % 9.2 C
741 01-09-2018 13:40:00 18.4 C 51 % 8.09 C
742 01-09-2018 13:45:00 18.6 C 52 % 8.56 C
743 01-09-2018 13:50:00 18.9 C 50 % 8.26 C
744 01-09-2018 13:55:00 19.2 C 48 % 7.93 C
745 01-09-2018 14:00:00 19.4 C 47 % 7.81 C
746 01-09-2018 14:05:00 19.7 C 46 % 7.77 C
747 01-09-2018 14:10:00 19.8 C 45 % 7.53 C
748 01-09-2018 14:15:00 19.7 C 44 % 7.12 C
749 01-09-2018 14:20:00 19.7 C 43 % 6.78 C
750 01-09-2018 14:25:00 19.9 C 43 % 6.96 C
Sensor: Nr:Datum:Temp:Feuchte:Taupunkt:
Aussen-T/F 751 01-09-2018 14:30:00 20.2 C 42 % 6.89 C
752 01-09-2018 14:35:00 20.2 C 41 % 6.54 C
753 01-09-2018 14:40:00 20.3 C 41 % 6.63 C
754 01-09-2018 14:45:00 20.3 C 42 % 6.98 C
755 01-09-2018 14:50:00 20.5 C 41 % 6.81 C
756 01-09-2018 14:55:00 20.7 C 42 % 7.34 C
757 01-09-2018 15:00:00 20.8 C 41 % 7.08 C
758 01-09-2018 15:05:00 20.7 C 42 % 7.34 C
759 01-09-2018 15:10:00 20.6 C 42 % 7.25 C
760 01-09-2018 15:15:00 20.6 C 42 % 7.25 C
761 01-09-2018 15:20:00 20.7 C 40 % 6.63 C
762 01-09-2018 15:25:00 20.7 C 41 % 6.99 C
763 01-09-2018 15:30:00 20.7 C 41 % 6.99 C
764 01-09-2018 15:35:00 20.8 C 40 % 6.72 C
765 01-09-2018 15:40:00 20.9 C 39 % 6.44 C
766 01-09-2018 15:45:00 20.9 C 39 % 6.44 C
767 01-09-2018 15:50:00 20.8 C 40 % 6.72 C
768 01-09-2018 15:55:00 20.7 C 40 % 6.63 C
769 01-09-2018 16:00:00 20.6 C 41 % 6.9 C
770 01-09-2018 16:05:00 20.6 C 42 % 7.25 C
771 01-09-2018 16:10:00 20.7 C 40 % 6.63 C
772 01-09-2018 16:15:00 21 C 40 % 6.9 C
773 01-09-2018 16:20:00 21.2 C 39 % 6.71 C
774 01-09-2018 16:25:00 21.1 C 39 % 6.62 C
775 01-09-2018 16:30:00 20.9 C 39 % 6.44 C
Sensor: Nr:Datum:Temp:Feuchte:Taupunkt:
Aussen-T/F 776 01-09-2018 16:35:00 20.9 C 39 % 6.44 C
777 01-09-2018 16:40:00 21.4 C 39 % 6.89 C
778 01-09-2018 16:45:00 21.9 C 37 % 6.56 C
779 01-09-2018 16:50:00 22.2 C 37 % 6.83 C
780 01-09-2018 16:55:00 22.2 C 36 % 6.43 C
781 01-09-2018 17:00:00 22.2 C 38 % 7.22 C
782 01-09-2018 17:05:00 22.4 C 36 % 6.61 C
783 01-09-2018 17:10:00 22.3 C 36 % 6.52 C
784 01-09-2018 17:15:00 22.3 C 36 % 6.52 C
785 01-09-2018 17:20:00 22.3 C 37 % 6.92 C
786 01-09-2018 17:25:00 22.4 C 36 % 6.61 C
787 01-09-2018 17:30:00 22.4 C 36 % 6.61 C
788 01-09-2018 17:35:00 22.4 C 37 % 7.01 C
789 01-09-2018 17:40:00 22.6 C 35 % 6.38 C
790 01-09-2018 17:45:00 22.8 C 42 % 9.23 C
791 01-09-2018 17:50:00 22.3 C 37 % 6.92 C
792 01-09-2018 17:55:00 22.1 C 37 % 6.74 C
793 01-09-2018 18:00:00 22.2 C 37 % 6.83 C
794 01-09-2018 18:05:00 22.4 C 36 % 6.61 C
795 01-09-2018 18:10:00 22.5 C 35 % 6.29 C
796 01-09-2018 18:15:00 22.4 C 36 % 6.61 C
797 01-09-2018 18:20:00 22.5 C 35 % 6.29 C
798 01-09-2018 18:25:00 22.2 C 37 % 6.83 C
799 01-09-2018 18:30:00 22.3 C 37 % 6.92 C
800 01-09-2018 18:35:00 22.3 C 37 % 6.92 C
Sensor: Nr:Datum:Temp:Feuchte:Taupunkt:
Aussen-T/F 801 01-09-2018 18:40:00 22.4 C 37 % 7.01 C
802 01-09-2018 18:45:00 22.6 C 36 % 6.78 C
803 01-09-2018 18:50:00 22.4 C 37 % 7.01 C
804 01-09-2018 18:55:00 22.3 C 38 % 7.31 C
805 01-09-2018 19:00:00 22.3 C 38 % 7.31 C
806 01-09-2018 19:05:00 22.3 C 37 % 6.92 C
807 01-09-2018 19:10:00 22.1 C 36 % 6.34 C
808 01-09-2018 19:15:00 21.7 C 38 % 6.77 C
809 01-09-2018 19:20:00 21.4 C 38 % 6.51 C
810 01-09-2018 19:25:00 21.3 C 39 % 6.8 C
811 01-09-2018 19:30:00 21.1 C 39 % 6.62 C
812 01-09-2018 19:35:00 20.9 C 40 % 6.81 C
813 01-09-2018 19:40:00 20.8 C 40 % 6.72 C
814 01-09-2018 19:45:00 20.6 C 41 % 6.9 C
815 01-09-2018 19:50:00 20.4 C 41 % 6.72 C
816 01-09-2018 19:55:00 20.3 C 45 % 7.99 C
817 01-09-2018 20:00:00 19.9 C 45 % 7.63 C
818 01-09-2018 20:05:00 19.5 C 45 % 7.26 C
819 01-09-2018 20:10:00 19.1 C 46 % 7.22 C
820 01-09-2018 20:15:00 18.8 C 48 % 7.57 C
821 01-09-2018 20:20:00 18.3 C 50 % 7.71 C
822 01-09-2018 20:25:00 17.8 C 52 % 7.82 C
823 01-09-2018 20:30:00 17.3 C 53 % 7.64 C
824 01-09-2018 20:35:00 16.8 C 56 % 7.98 C
825 01-09-2018 20:40:00 16.4 C 57 % 7.87 C
Sensor: Nr:Datum:Temp:Feuchte:Taupunkt:
Aussen-T/F 826 01-09-2018 20:45:00 16.2 C 58 % 7.94 C
827 01-09-2018 20:50:00 15.9 C 57 % 7.4 C
828 01-09-2018 20:55:00 15.8 C 58 % 7.56 C
829 01-09-2018 21:00:00 15.7 C 59 % 7.72 C
830 01-09-2018 21:05:00 15.5 C 59 % 7.53 C
831 01-09-2018 21:10:00 15.4 C 61 % 7.93 C
832 01-09-2018 21:15:00 15.3 C 60 % 7.59 C
833 01-09-2018 21:20:00 15.2 C 61 % 7.74 C
834 01-09-2018 21:25:00 15.2 C 61 % 7.74 C
835 01-09-2018 21:30:00 15.1 C 61 % 7.64 C
836 01-09-2018 21:35:00 15.1 C 61 % 7.64 C
837 01-09-2018 21:40:00 15 C 62 % 7.79 C
838 01-09-2018 21:45:00 14.9 C 63 % 7.93 C
839 01-09-2018 21:50:00 14.8 C 63 % 7.83 C
840 01-09-2018 21:55:00 14.7 C 63 % 7.74 C
841 01-09-2018 22:00:00 14.5 C 64 % 7.78 C
842 01-09-2018 22:05:00 14.3 C 64 % 7.59 C
843 01-09-2018 22:10:00 14.3 C 65 % 7.82 C
844 01-09-2018 22:15:00 14.2 C 66 % 7.95 C
845 01-09-2018 22:20:00 14.1 C 66 % 7.85 C
846 01-09-2018 22:25:00 13.9 C 67 % 7.88 C
847 01-09-2018 22:30:00 13.8 C 67 % 7.79 C
848 01-09-2018 22:35:00 13.8 C 68 % 8 C
849 01-09-2018 22:40:00 13.7 C 67 % 7.69 C
850 01-09-2018 22:45:00 13.7 C 68 % 7.91 C
Sensor: Nr:Datum:Temp:Feuchte:Taupunkt:
Aussen-T/F 851 01-09-2018 22:50:00 13.7 C 69 % 8.12 C
852 01-09-2018 22:55:00 13.6 C 68 % 7.81 C
853 01-09-2018 23:00:00 13.5 C 68 % 7.72 C
854 01-09-2018 23:05:00 13.4 C 69 % 7.84 C
855 01-09-2018 23:10:00 13.3 C 70 % 7.95 C
856 01-09-2018 23:15:00 13.3 C 70 % 7.95 C
857 01-09-2018 23:20:00 13.2 C 70 % 7.86 C
858 01-09-2018 23:25:00 13.1 C 71 % 7.97 C
859 01-09-2018 23:30:00 12.8 C 71 % 7.68 C
860 01-09-2018 23:35:00 12.7 C 72 % 7.79 C
861 01-09-2018 23:40:00 12.5 C 73 % 7.8 C
862 01-09-2018 23:45:00 12.4 C 73 % 7.7 C
863 01-09-2018 23:50:00 12.3 C 74 % 7.8 C
864 01-09-2018 23:55:00 12.1 C 74 % 7.61 C
865 02-09-2018 00:00:00 12 C 74 % 7.52 C
866 02-09-2018 00:05:00 11.8 C 75 % 7.52 C
867 02-09-2018 00:10:00 11.8 C 75 % 7.52 C
868 02-09-2018 00:15:00 11.7 C 76 % 7.62 C
869 02-09-2018 00:20:00 11.6 C 76 % 7.52 C
870 02-09-2018 00:25:00 11.4 C 77 % 7.52 C
871 02-09-2018 00:30:00 11.3 C 77 % 7.42 C
872 02-09-2018 00:35:00 11.1 C 78 % 7.41 C
873 02-09-2018 00:40:00 11 C 79 % 7.5 C
874 02-09-2018 00:45:00 10.8 C 79 % 7.31 C
875 02-09-2018 00:50:00 10.8 C 79 % 7.31 C
Sensor: Nr:Datum:Temp:Feuchte:Taupunkt:
Aussen-T/F 876 02-09-2018 00:55:00 10.7 C 80 % 7.4 C
877 02-09-2018 01:00:00 10.6 C 80 % 7.3 C
878 02-09-2018 01:05:00 10.5 C 81 % 7.38 C
879 02-09-2018 01:10:00 10.4 C 81 % 7.28 C
880 02-09-2018 01:15:00 10.3 C 81 % 7.19 C
881 02-09-2018 01:20:00 10.3 C 81 % 7.19 C
882 02-09-2018 01:25:00 10.2 C 82 % 7.27 C
883 02-09-2018 01:30:00 10.2 C 82 % 7.27 C
884 02-09-2018 01:35:00 10.1 C 82 % 7.17 C
885 02-09-2018 01:40:00 10.1 C 82 % 7.17 C
886 02-09-2018 01:45:00 10 C 82 % 7.07 C
887 02-09-2018 01:50:00 9.9 C 83 % 7.15 C
888 02-09-2018 01:55:00 9.8 C 84 % 7.23 C
889 02-09-2018 02:00:00 9.8 C 84 % 7.23 C
890 02-09-2018 02:05:00 9.7 C 84 % 7.13 C
891 02-09-2018 02:10:00 9.7 C 84 % 7.13 C
892 02-09-2018 02:15:00 9.6 C 84 % 7.03 C
893 02-09-2018 02:20:00 9.5 C 85 % 7.11 C
894 02-09-2018 02:25:00 9.4 C 85 % 7.01 C
895 02-09-2018 02:30:00 9.3 C 85 % 6.91 C
896 02-09-2018 02:35:00 9.3 C 85 % 6.91 C
897 02-09-2018 02:40:00 9.3 C 86 % 7.08 C
898 02-09-2018 02:45:00 9.2 C 86 % 6.98 C
899 02-09-2018 02:50:00 9.2 C 86 % 6.98 C
900 02-09-2018 02:55:00 9.2 C 86 % 6.98 C
Sensor: Nr:Datum:Temp:Feuchte:Taupunkt:
Aussen-T/F 901 02-09-2018 03:00:00 9.1 C 86 % 6.89 C
902 02-09-2018 03:05:00 9.1 C 87 % 7.05 C
903 02-09-2018 03:10:00 9.1 C 87 % 7.05 C
904 02-09-2018 03:15:00 9.1 C 87 % 7.05 C
905 02-09-2018 03:20:00 9 C 87 % 6.96 C
906 02-09-2018 03:25:00 9 C 87 % 6.96 C
907 02-09-2018 03:30:00 8.9 C 87 % 6.86 C
908 02-09-2018 03:35:00 8.9 C 87 % 6.86 C
909 02-09-2018 03:40:00 8.9 C 88 % 7.02 C
910 02-09-2018 03:45:00 8.9 C 87 % 6.86 C
911 02-09-2018 03:50:00 8.8 C 88 % 6.93 C
912 02-09-2018 03:55:00 8.8 C 87 % 6.76 C
913 02-09-2018 04:00:00 8.7 C 87 % 6.66 C
914 02-09-2018 04:05:00 8.7 C 88 % 6.83 C
915 02-09-2018 04:10:00 8.6 C 88 % 6.73 C
916 02-09-2018 04:15:00 8.6 C 88 % 6.73 C
917 02-09-2018 04:20:00 8.6 C 88 % 6.73 C
918 02-09-2018 04:25:00 8.6 C 88 % 6.73 C
919 02-09-2018 04:30:00 8.6 C 88 % 6.73 C
920 02-09-2018 04:35:00 8.5 C 89 % 6.79 C
921 02-09-2018 04:40:00 8.4 C 89 % 6.7 C
922 02-09-2018 04:45:00 8.4 C 89 % 6.7 C
923 02-09-2018 04:50:00 8.3 C 89 % 6.6 C
924 02-09-2018 04:55:00 8.3 C 89 % 6.6 C
925 02-09-2018 05:00:00 8.3 C 89 % 6.6 C
Sensor: Nr:Datum:Temp:Feuchte:Taupunkt:
Aussen-T/F 926 02-09-2018 05:05:00 8.2 C 89 % 6.5 C
927 02-09-2018 05:10:00 8.2 C 90 % 6.66 C
928 02-09-2018 05:15:00 8.2 C 90 % 6.66 C
929 02-09-2018 05:20:00 8.2 C 90 % 6.66 C
930 02-09-2018 05:25:00 8.2 C 90 % 6.66 C
931 02-09-2018 05:30:00 8.2 C 90 % 6.66 C
932 02-09-2018 05:35:00 8.1 C 90 % 6.56 C
933 02-09-2018 05:40:00 8.1 C 90 % 6.56 C
934 02-09-2018 05:45:00 8.1 C 90 % 6.56 C
935 02-09-2018 05:50:00 8.1 C 91 % 6.72 C
936 02-09-2018 05:55:00 8.1 C 91 % 6.72 C
937 02-09-2018 06:00:00 8 C 91 % 6.62 C
938 02-09-2018 06:05:00 8 C 91 % 6.62 C
939 02-09-2018 06:10:00 7.9 C 91 % 6.52 C
940 02-09-2018 06:15:00 7.9 C 91 % 6.52 C
941 02-09-2018 06:20:00 7.9 C 91 % 6.52 C
942 02-09-2018 06:25:00 7.9 C 91 % 6.52 C
943 02-09-2018 06:30:00 8 C 92 % 6.78 C
944 02-09-2018 06:35:00 8.1 C 91 % 6.72 C
945 02-09-2018 06:40:00 8 C 91 % 6.62 C
946 02-09-2018 06:45:00 8 C 91 % 6.62 C
947 02-09-2018 06:50:00 7.9 C 91 % 6.52 C
948 02-09-2018 06:55:00 7.9 C 91 % 6.52 C
949 02-09-2018 07:00:00 7.9 C 91 % 6.52 C
950 02-09-2018 07:05:00 7.9 C 92 % 6.68 C
Sensor: Nr:Datum:Temp:Feuchte:Taupunkt:
Aussen-T/F 951 02-09-2018 07:10:00 7.9 C 92 % 6.68 C
952 02-09-2018 07:15:00 7.9 C 92 % 6.68 C
953 02-09-2018 07:20:00 7.9 C 92 % 6.68 C
954 02-09-2018 07:25:00 7.9 C 92 % 6.68 C
955 02-09-2018 07:30:00 8.1 C 92 % 6.88 C
956 02-09-2018 07:35:00 8.1 C 92 % 6.88 C
957 02-09-2018 07:40:00 8.1 C 92 % 6.88 C
958 02-09-2018 07:45:00 8.2 C 92 % 6.98 C
959 02-09-2018 07:50:00 8.2 C 92 % 6.98 C
960 02-09-2018 07:55:00 8.2 C 92 % 6.98 C
961 02-09-2018 08:00:00 8.3 C 92 % 7.08 C
962 02-09-2018 08:05:00 8.3 C 92 % 7.08 C
963 02-09-2018 08:10:00 8.3 C 92 % 7.08 C
964 02-09-2018 08:15:00 8.4 C 92 % 7.18 C
965 02-09-2018 08:20:00 8.4 C 92 % 7.18 C
966 02-09-2018 08:25:00 8.6 C 92 % 7.38 C
967 02-09-2018 08:30:00 8.6 C 92 % 7.38 C
968 02-09-2018 08:35:00 8.7 C 92 % 7.47 C
969 02-09-2018 08:40:00 8.8 C 92 % 7.57 C
970 02-09-2018 08:45:00 8.9 C 92 % 7.67 C
971 02-09-2018 08:50:00 9 C 92 % 7.77 C
972 02-09-2018 08:55:00 9.1 C 92 % 7.87 C
973 02-09-2018 09:00:00 9.2 C 92 % 7.97 C
974 02-09-2018 09:05:00 9.3 C 92 % 8.07 C
975 02-09-2018 09:10:00 9.3 C 92 % 8.07 C
Sensor: Nr:Datum:Temp:Feuchte:Taupunkt:
Aussen-T/F 976 02-09-2018 09:15:00 9.4 C 92 % 8.17 C
977 02-09-2018 09:20:00 9.6 C 92 % 8.37 C
978 02-09-2018 09:25:00 9.7 C 92 % 8.46 C
979 02-09-2018 09:30:00 9.8 C 92 % 8.56 C
980 02-09-2018 09:35:00 10.1 C 93 % 9.02 C
981 02-09-2018 09:40:00 10.3 C 93 % 9.22 C
982 02-09-2018 09:45:00 10.5 C 93 % 9.42 C
983 02-09-2018 09:50:00 10.7 C 93 % 9.62 C
984 02-09-2018 09:55:00 10.9 C 93 % 9.81 C
985 02-09-2018 10:00:00 11.2 C 92 % 9.95 C
986 02-09-2018 10:05:00 11.5 C 91 % 10.08 C
987 02-09-2018 10:10:00 11.8 C 91 % 10.38 C
988 02-09-2018 10:15:00 12 C 90 % 10.41 C
989 02-09-2018 10:20:00 12.3 C 89 % 10.54 C
990 02-09-2018 10:25:00 12.7 C 88 % 10.77 C
991 02-09-2018 10:30:00 13.1 C 87 % 10.99 C
992 02-09-2018 10:35:00 13.5 C 85 % 11.03 C
993 02-09-2018 10:40:00 14 C 83 % 11.16 C
994 02-09-2018 10:45:00 14.3 C 81 % 11.09 C
995 02-09-2018 10:50:00 14.7 C 82 % 11.66 C
996 02-09-2018 10:55:00 15.2 C 79 % 11.59 C
997 02-09-2018 11:00:00 15.6 C 78 % 11.78 C
998 02-09-2018 11:05:00 15.9 C 77 % 11.88 C
999 02-09-2018 11:10:00 16.3 C 75 % 11.86 C
1000 02-09-2018 11:15:00 16.6 C 73 % 11.74 C
Sensor: Nr:Datum:Temp:Feuchte:Taupunkt:
Aussen-T/F 1001 02-09-2018 11:20:00 16.8 C 73 % 11.94 C
1002 02-09-2018 11:25:00 16.9 C 71 % 11.61 C
1003 02-09-2018 11:30:00 17.1 C 72 % 12.02 C
1004 02-09-2018 11:35:00 17.2 C 71 % 11.9 C
1005 02-09-2018 11:40:00 17.3 C 69 % 11.56 C
1006 02-09-2018 11:45:00 17.4 C 70 % 11.88 C
1007 02-09-2018 11:50:00 17.6 C 68 % 11.63 C
1008 02-09-2018 11:55:00 17.7 C 68 % 11.72 C
1009 02-09-2018 12:00:00 17.8 C 68 % 11.82 C
1010 02-09-2018 12:05:00 17.9 C 68 % 11.91 C
1011 02-09-2018 12:10:00 18 C 67 % 11.79 C
1012 02-09-2018 12:15:00 18.1 C 67 % 11.88 C
1013 02-09-2018 12:20:00 18.2 C 68 % 12.2 C
1014 02-09-2018 12:25:00 18.4 C 68 % 12.39 C
1015 02-09-2018 12:30:00 18.7 C 67 % 12.45 C
1016 02-09-2018 12:35:00 18.8 C 67 % 12.55 C
1017 02-09-2018 12:40:00 19 C 66 % 12.51 C
1018 02-09-2018 12:45:00 19.2 C 64 % 12.23 C
1019 02-09-2018 12:50:00 19.3 C 64 % 12.32 C
1020 02-09-2018 12:55:00 19.4 C 66 % 12.89 C
1021 02-09-2018 13:00:00 19.4 C 63 % 12.18 C
1022 02-09-2018 13:05:00 19.4 C 62 % 11.94 C
1023 02-09-2018 13:10:00 19.4 C 62 % 11.94 C
1024 02-09-2018 13:15:00 19.4 C 62 % 11.94 C
1025 02-09-2018 13:20:00 19.4 C 62 % 11.94 C
Sensor: Nr:Datum:Temp:Feuchte:Taupunkt:
Aussen-T/F 1026 02-09-2018 13:25:00 19.5 C 63 % 12.27 C
1027 02-09-2018 13:30:00 19.5 C 62 % 12.03 C
1028 02-09-2018 13:35:00 19.4 C 62 % 11.94 C
1029 02-09-2018 13:40:00 19.4 C 61 % 11.69 C
1030 02-09-2018 13:45:00 19.4 C 61 % 11.69 C
1031 02-09-2018 13:50:00 19.4 C 61 % 11.69 C
1032 02-09-2018 13:55:00 19.4 C 61 % 11.69 C
1033 02-09-2018 14:00:00 19.4 C 62 % 11.94 C
1034 02-09-2018 14:05:00 19.4 C 63 % 12.18 C
1035 02-09-2018 14:10:00 19.4 C 63 % 12.18 C
1036 02-09-2018 14:15:00 19.3 C 63 % 12.09 C
1037 02-09-2018 14:20:00 19.3 C 64 % 12.32 C
1038 02-09-2018 14:25:00 19.3 C 63 % 12.09 C
1039 02-09-2018 14:30:00 19.3 C 65 % 12.56 C
1040 02-09-2018 14:35:00 19.3 C 64 % 12.32 C
1041 02-09-2018 14:40:00 19.3 C 64 % 12.32 C
1042 02-09-2018 14:45:00 19.3 C 63 % 12.09 C
1043 02-09-2018 14:50:00 19.2 C 63 % 11.99 C
1044 02-09-2018 14:55:00 19.3 C 63 % 12.09 C
1045 02-09-2018 15:00:00 19.3 C 65 % 12.56 C
1046 02-09-2018 15:05:00 19.2 C 64 % 12.23 C
1047 02-09-2018 15:10:00 19.2 C 62 % 11.75 C
1048 02-09-2018 15:15:00 19.2 C 62 % 11.75 C
1049 02-09-2018 15:20:00 19.3 C 64 % 12.32 C
1050 02-09-2018 15:25:00 19.3 C 67 % 13.02 C
Sensor: Nr:Datum:Temp:Feuchte:Taupunkt:
Aussen-T/F 1051 02-09-2018 15:30:00 19.3 C 68 % 13.25 C
1052 02-09-2018 15:35:00 19.3 C 66 % 12.79 C
1053 02-09-2018 15:40:00 19.3 C 68 % 13.25 C
1054 02-09-2018 15:45:00 19.3 C 68 % 13.25 C
1055 02-09-2018 15:50:00 19.4 C 60 % 11.44 C
1056 02-09-2018 15:55:00 19.6 C 58 % 11.12 C
1057 02-09-2018 16:00:00 19.6 C 58 % 11.12 C
1058 02-09-2018 16:05:00 19.7 C 59 % 11.47 C
1059 02-09-2018 16:10:00 19.7 C 60 % 11.72 C
1060 02-09-2018 16:15:00 19.7 C 60 % 11.72 C
1061 02-09-2018 16:20:00 19.8 C 63 % 12.56 C
1062 02-09-2018 16:25:00 19.7 C 63 % 12.46 C
1063 02-09-2018 16:30:00 19.7 C 64 % 12.7 C
1064 02-09-2018 16:35:00 19.7 C 65 % 12.94 C
1065 02-09-2018 16:40:00 19.7 C 65 % 12.94 C
1066 02-09-2018 16:45:00 19.6 C 65 % 12.84 C
1067 02-09-2018 16:50:00 19.6 C 63 % 12.37 C
1068 02-09-2018 16:55:00 19.4 C 64 % 12.42 C
1069 02-09-2018 17:00:00 19.3 C 64 % 12.32 C
1070 02-09-2018 17:05:00 19.3 C 65 % 12.56 C
1071 02-09-2018 17:10:00 19.2 C 63 % 11.99 C
1072 02-09-2018 17:15:00 19.2 C 62 % 11.75 C
1073 02-09-2018 17:20:00 19.2 C 64 % 12.23 C
1074 02-09-2018 17:25:00 19.3 C 62 % 11.84 C
1075 02-09-2018 17:30:00 19.3 C 65 % 12.56 C
Sensor: Nr:Datum:Temp:Feuchte:Taupunkt:
Aussen-T/F 1076 02-09-2018 17:35:00 19.4 C 65 % 12.66 C
1077 02-09-2018 17:40:00 19.4 C 66 % 12.89 C
1078 02-09-2018 17:45:00 19.4 C 64 % 12.42 C
1079 02-09-2018 17:50:00 19.4 C 62 % 11.94 C
1080 02-09-2018 17:55:00 19.3 C 62 % 11.84 C
1081 02-09-2018 18:00:00 19.3 C 65 % 12.56 C
1082 02-09-2018 18:05:00 19.2 C 66 % 12.7 C
1083 02-09-2018 18:10:00 19.1 C 65 % 12.37 C
1084 02-09-2018 18:15:00 19 C 66 % 12.51 C
1085 02-09-2018 18:20:00 18.9 C 65 % 12.18 C
1086 02-09-2018 18:25:00 18.8 C 66 % 12.32 C
1087 02-09-2018 18:30:00 18.7 C 66 % 12.22 C
1088 02-09-2018 18:35:00 18.5 C 65 % 11.8 C
1089 02-09-2018 18:40:00 18.4 C 66 % 11.94 C
1090 02-09-2018 18:45:00 18.3 C 67 % 12.07 C
1091 02-09-2018 18:50:00 18.2 C 67 % 11.98 C
1092 02-09-2018 18:55:00 18.2 C 67 % 11.98 C
1093 02-09-2018 19:00:00 18.1 C 67 % 11.88 C
1094 02-09-2018 19:05:00 18 C 68 % 12.01 C
1095 02-09-2018 19:10:00 17.9 C 67 % 11.69 C
1096 02-09-2018 19:15:00 17.8 C 67 % 11.6 C
1097 02-09-2018 19:20:00 17.8 C 68 % 11.82 C
1098 02-09-2018 19:25:00 17.7 C 68 % 11.72 C
1099 02-09-2018 19:30:00 17.7 C 68 % 11.72 C
1100 02-09-2018 19:35:00 17.6 C 68 % 11.63 C
Sensor: Nr:Datum:Temp:Feuchte:Taupunkt:
Aussen-T/F 1101 02-09-2018 19:40:00 17.6 C 68 % 11.63 C
1102 02-09-2018 19:45:00 17.5 C 69 % 11.75 C
1103 02-09-2018 19:50:00 17.4 C 69 % 11.66 C
1104 02-09-2018 19:55:00 17.4 C 70 % 11.88 C
1105 02-09-2018 20:00:00 17.3 C 69 % 11.56 C
1106 02-09-2018 20:05:00 17.3 C 69 % 11.56 C
1107 02-09-2018 20:10:00 17.2 C 68 % 11.25 C
1108 02-09-2018 20:15:00 17.2 C 68 % 11.25 C
1109 02-09-2018 20:20:00 17.2 C 69 % 11.47 C
1110 02-09-2018 20:25:00 17.2 C 69 % 11.47 C
1111 02-09-2018 20:30:00 17.2 C 69 % 11.47 C
1112 02-09-2018 20:35:00 17.2 C 69 % 11.47 C
1113 02-09-2018 20:40:00 17.2 C 69 % 11.47 C
1114 02-09-2018 20:45:00 17.2 C 70 % 11.68 C
1115 02-09-2018 20:50:00 17.2 C 68 % 11.25 C
1116 02-09-2018 20:55:00 17.3 C 69 % 11.56 C
1117 02-09-2018 21:00:00 17.3 C 68 % 11.34 C
1118 02-09-2018 21:05:00 17.5 C 68 % 11.53 C
1119 02-09-2018 21:10:00 17.6 C 69 % 11.85 C
1120 02-09-2018 21:15:00 17.6 C 68 % 11.63 C
1121 02-09-2018 21:20:00 17.6 C 68 % 11.63 C
1122 02-09-2018 21:25:00 17.6 C 68 % 11.63 C
1123 02-09-2018 21:30:00 17.6 C 69 % 11.85 C
1124 02-09-2018 21:35:00 17.6 C 69 % 11.85 C
1125 02-09-2018 21:40:00 17.6 C 69 % 11.85 C
Sensor: Nr:Datum:Temp:Feuchte:Taupunkt:
Aussen-T/F 1126 02-09-2018 21:45:00 17.6 C 69 % 11.85 C
1127 02-09-2018 21:50:00 17.6 C 70 % 12.07 C
1128 02-09-2018 21:55:00 17.6 C 70 % 12.07 C
1129 02-09-2018 22:00:00 17.6 C 70 % 12.07 C
1130 02-09-2018 22:05:00 17.6 C 71 % 12.28 C
1131 02-09-2018 22:10:00 17.6 C 71 % 12.28 C
1132 02-09-2018 22:15:00 17.5 C 72 % 12.4 C
1133 02-09-2018 22:20:00 17.4 C 73 % 12.51 C
1134 02-09-2018 22:25:00 17.4 C 73 % 12.51 C
1135 02-09-2018 22:30:00 17.4 C 73 % 12.51 C
1136 02-09-2018 22:35:00 17.4 C 74 % 12.72 C
1137 02-09-2018 22:40:00 17.4 C 74 % 12.72 C
1138 02-09-2018 22:45:00 17.4 C 74 % 12.72 C
1139 02-09-2018 22:50:00 17.4 C 74 % 12.72 C
1140 02-09-2018 22:55:00 17.4 C 74 % 12.72 C
1141 02-09-2018 23:00:00 17.4 C 74 % 12.72 C
1142 02-09-2018 23:05:00 17.4 C 74 % 12.72 C
1143 02-09-2018 23:10:00 17.3 C 74 % 12.62 C
1144 02-09-2018 23:15:00 17.3 C 74 % 12.62 C
1145 02-09-2018 23:20:00 17.3 C 75 % 12.83 C
1146 02-09-2018 23:25:00 17.2 C 75 % 12.73 C
1147 02-09-2018 23:30:00 17.2 C 75 % 12.73 C
1148 02-09-2018 23:35:00 17.2 C 75 % 12.73 C
1149 02-09-2018 23:40:00 17.2 C 76 % 12.94 C
1150 02-09-2018 23:45:00 17.2 C 76 % 12.94 C
Sensor: Nr:Datum:Temp:Feuchte:Taupunkt:
Aussen-T/F 1151 02-09-2018 23:50:00 17.2 C 76 % 12.94 C
1152 02-09-2018 23:55:00 17.2 C 76 % 12.94 C
1153 03-09-2018 00:00:00 17.1 C 76 % 12.84 C
1154 03-09-2018 00:05:00 17.1 C 77 % 13.04 C
1155 03-09-2018 00:10:00 17.1 C 77 % 13.04 C
1156 03-09-2018 00:15:00 17 C 77 % 12.94 C
1157 03-09-2018 00:20:00 17 C 78 % 13.14 C
1158 03-09-2018 00:25:00 16.9 C 78 % 13.04 C
1159 03-09-2018 00:30:00 16.9 C 78 % 13.04 C
1160 03-09-2018 00:35:00 16.8 C 78 % 12.94 C
1161 03-09-2018 00:40:00 16.8 C 79 % 13.14 C
1162 03-09-2018 00:45:00 16.7 C 79 % 13.04 C
1163 03-09-2018 00:50:00 16.7 C 80 % 13.23 C
1164 03-09-2018 00:55:00 16.6 C 80 % 13.14 C
1165 03-09-2018 01:00:00 16.6 C 80 % 13.14 C
1166 03-09-2018 01:05:00 16.5 C 81 % 13.23 C
1167 03-09-2018 01:10:00 16.4 C 81 % 13.13 C
1168 03-09-2018 01:15:00 16.4 C 81 % 13.13 C
1169 03-09-2018 01:20:00 16.4 C 81 % 13.13 C
1170 03-09-2018 01:25:00 16.4 C 81 % 13.13 C
1171 03-09-2018 01:30:00 16.3 C 81 % 13.04 C
1172 03-09-2018 01:35:00 16.4 C 81 % 13.13 C
1173 03-09-2018 01:40:00 16.4 C 81 % 13.13 C
1174 03-09-2018 01:45:00 16.4 C 82 % 13.32 C
1175 03-09-2018 01:50:00 16.4 C 82 % 13.32 C
Sensor: Nr:Datum:Temp:Feuchte:Taupunkt:
Aussen-T/F 1176 03-09-2018 01:55:00 16.3 C 82 % 13.22 C
1177 03-09-2018 02:00:00 16.2 C 82 % 13.13 C
1178 03-09-2018 02:05:00 16.2 C 82 % 13.13 C
1179 03-09-2018 02:10:00 16.1 C 83 % 13.21 C
1180 03-09-2018 02:15:00 16.1 C 83 % 13.21 C
1181 03-09-2018 02:20:00 16.1 C 83 % 13.21 C
1182 03-09-2018 02:25:00 16.1 C 83 % 13.21 C
1183 03-09-2018 02:30:00 16.1 C 83 % 13.21 C
1184 03-09-2018 02:35:00 16.1 C 84 % 13.4 C
1185 03-09-2018 02:40:00 16 C 84 % 13.3 C
1186 03-09-2018 02:45:00 16 C 84 % 13.3 C
1187 03-09-2018 02:50:00 16 C 84 % 13.3 C
1188 03-09-2018 02:55:00 15.9 C 84 % 13.2 C
1189 03-09-2018 03:00:00 15.9 C 84 % 13.2 C
1190 03-09-2018 03:05:00 15.9 C 84 % 13.2 C
1191 03-09-2018 03:10:00 15.9 C 84 % 13.2 C
1192 03-09-2018 03:15:00 15.9 C 84 % 13.2 C
1193 03-09-2018 03:20:00 15.9 C 84 % 13.2 C
1194 03-09-2018 03:25:00 15.9 C 85 % 13.38 C
1195 03-09-2018 03:30:00 15.9 C 85 % 13.38 C
1196 03-09-2018 03:35:00 15.9 C 85 % 13.38 C
1197 03-09-2018 03:40:00 15.9 C 85 % 13.38 C
1198 03-09-2018 03:45:00 15.9 C 85 % 13.38 C
1199 03-09-2018 03:50:00 15.9 C 85 % 13.38 C
1200 03-09-2018 03:55:00 15.9 C 85 % 13.38 C
Sensor: Nr:Datum:Temp:Feuchte:Taupunkt:
Aussen-T/F 1201 03-09-2018 04:00:00 15.9 C 85 % 13.38 C
1202 03-09-2018 04:05:00 15.9 C 85 % 13.38 C
1203 03-09-2018 04:10:00 15.9 C 85 % 13.38 C
1204 03-09-2018 04:15:00 15.9 C 85 % 13.38 C
1205 03-09-2018 04:20:00 15.9 C 85 % 13.38 C
1206 03-09-2018 04:25:00 15.9 C 85 % 13.38 C
1207 03-09-2018 04:30:00 15.9 C 85 % 13.38 C
1208 03-09-2018 04:35:00 15.9 C 85 % 13.38 C
1209 03-09-2018 04:40:00 15.9 C 85 % 13.38 C
1210 03-09-2018 04:45:00 15.8 C 85 % 13.28 C
1211 03-09-2018 04:50:00 15.8 C 86 % 13.46 C
1212 03-09-2018 04:55:00 15.8 C 86 % 13.46 C
1213 03-09-2018 05:00:00 15.8 C 86 % 13.46 C
1214 03-09-2018 05:05:00 15.8 C 86 % 13.46 C
1215 03-09-2018 05:10:00 15.8 C 86 % 13.46 C
1216 03-09-2018 05:15:00 15.8 C 86 % 13.46 C
1217 03-09-2018 05:20:00 15.8 C 86 % 13.46 C
1218 03-09-2018 05:25:00 15.8 C 86 % 13.46 C
1219 03-09-2018 05:30:00 15.7 C 86 % 13.37 C
1220 03-09-2018 05:35:00 15.7 C 86 % 13.37 C
1221 03-09-2018 05:40:00 15.7 C 86 % 13.37 C
1222 03-09-2018 05:45:00 15.7 C 86 % 13.37 C
1223 03-09-2018 05:50:00 15.7 C 86 % 13.37 C
1224 03-09-2018 05:55:00 15.7 C 86 % 13.37 C
1225 03-09-2018 06:00:00 15.7 C 86 % 13.37 C
Sensor: Nr:Datum:Temp:Feuchte:Taupunkt:
Aussen-T/F 1226 03-09-2018 06:05:00 15.7 C 86 % 13.37 C
1227 03-09-2018 06:10:00 15.7 C 86 % 13.37 C
1228 03-09-2018 06:15:00 15.7 C 86 % 13.37 C
1229 03-09-2018 06:20:00 15.7 C 86 % 13.37 C
1230 03-09-2018 06:25:00 15.6 C 86 % 13.27 C
1231 03-09-2018 06:30:00 15.6 C 86 % 13.27 C
1232 03-09-2018 06:35:00 15.6 C 86 % 13.27 C
1233 03-09-2018 06:40:00 15.6 C 86 % 13.27 C
1234 03-09-2018 06:45:00 15.5 C 86 % 13.17 C
1235 03-09-2018 06:50:00 15.5 C 87 % 13.35 C
1236 03-09-2018 06:55:00 15.5 C 87 % 13.35 C
1237 03-09-2018 07:00:00 15.5 C 87 % 13.35 C
1238 03-09-2018 07:05:00 15.5 C 87 % 13.35 C
1239 03-09-2018 07:10:00 15.5 C 87 % 13.35 C
1240 03-09-2018 07:15:00 15.5 C 87 % 13.35 C
1241 03-09-2018 07:20:00 15.5 C 87 % 13.35 C
1242 03-09-2018 07:25:00 15.5 C 87 % 13.35 C
1243 03-09-2018 07:30:00 15.5 C 87 % 13.35 C
1244 03-09-2018 07:35:00 15.5 C 87 % 13.35 C
1245 03-09-2018 07:40:00 15.6 C 87 % 13.45 C
1246 03-09-2018 07:45:00 15.6 C 87 % 13.45 C
1247 03-09-2018 07:50:00 15.6 C 87 % 13.45 C
1248 03-09-2018 07:55:00 15.7 C 87 % 13.54 C
1249 03-09-2018 08:00:00 15.7 C 87 % 13.54 C
1250 03-09-2018 08:05:00 15.8 C 87 % 13.64 C
Sensor: Nr:Datum:Temp:Feuchte:Taupunkt:
Aussen-T/F 1251 03-09-2018 08:10:00 15.8 C 87 % 13.64 C
1252 03-09-2018 08:15:00 15.9 C 87 % 13.74 C
1253 03-09-2018 08:20:00 15.9 C 87 % 13.74 C
1254 03-09-2018 08:25:00 16 C 87 % 13.84 C
1255 03-09-2018 08:30:00 16.1 C 87 % 13.94 C
1256 03-09-2018 08:35:00 16.1 C 87 % 13.94 C
1257 03-09-2018 08:40:00 16.2 C 87 % 14.03 C
1258 03-09-2018 08:45:00 16.2 C 87 % 14.03 C
1259 03-09-2018 08:50:00 16.3 C 86 % 13.95 C
1260 03-09-2018 08:55:00 16.3 C 85 % 13.77 C
1261 03-09-2018 09:00:00 16.4 C 85 % 13.87 C
1262 03-09-2018 09:05:00 16.6 C 85 % 14.07 C
1263 03-09-2018 09:10:00 16.7 C 84 % 13.98 C
1264 03-09-2018 09:15:00 16.8 C 84 % 14.08 C
1265 03-09-2018 09:20:00 17 C 83 % 14.09 C
1266 03-09-2018 09:25:00 17.2 C 83 % 14.29 C
1267 03-09-2018 09:30:00 17.3 C 83 % 14.39 C
1268 03-09-2018 09:35:00 17.4 C 82 % 14.3 C
1269 03-09-2018 09:40:00 17.5 C 82 % 14.39 C
1270 03-09-2018 09:45:00 17.6 C 82 % 14.49 C
1271 03-09-2018 09:50:00 17.6 C 81 % 14.3 C
1272 03-09-2018 09:55:00 17.6 C 81 % 14.3 C
1273 03-09-2018 10:00:00 17.5 C 81 % 14.2 C
1274 03-09-2018 10:05:00 17.5 C 81 % 14.2 C
1275 03-09-2018 10:10:00 17.5 C 81 % 14.2 C
Sensor: Nr:Datum:Temp:Feuchte:Taupunkt:
Aussen-T/F 1276 03-09-2018 10:15:00 17.5 C 81 % 14.2 C
1277 03-09-2018 10:20:00 17.6 C 82 % 14.49 C
1278 03-09-2018 10:25:00 17.7 C 81 % 14.4 C
1279 03-09-2018 10:30:00 17.8 C 80 % 14.31 C
1280 03-09-2018 10:35:00 17.8 C 80 % 14.31 C
1281 03-09-2018 10:40:00 17.9 C 80 % 14.4 C
1282 03-09-2018 10:45:00 18 C 80 % 14.5 C
1283 03-09-2018 10:50:00 18 C 79 % 14.31 C
1284 03-09-2018 10:55:00 18.1 C 79 % 14.4 C
1285 03-09-2018 11:00:00 18.1 C 79 % 14.4 C
1286 03-09-2018 11:05:00 18.2 C 80 % 14.69 C
1287 03-09-2018 11:10:00 18.4 C 79 % 14.69 C
1288 03-09-2018 11:15:00 18.6 C 78 % 14.69 C
1289 03-09-2018 11:20:00 18.7 C 78 % 14.79 C
1290 03-09-2018 11:25:00 18.7 C 77 % 14.59 C
1291 03-09-2018 11:30:00 18.8 C 77 % 14.68 C
1292 03-09-2018 11:35:00 18.9 C 77 % 14.78 C
1293 03-09-2018 11:40:00 19 C 77 % 14.88 C
1294 03-09-2018 11:45:00 19.1 C 76 % 14.77 C
1295 03-09-2018 11:50:00 19.1 C 76 % 14.77 C
1296 03-09-2018 11:55:00 19.2 C 76 % 14.87 C
1297 03-09-2018 12:00:00 19.4 C 74 % 14.65 C
1298 03-09-2018 12:05:00 19.6 C 75 % 15.05 C
1299 03-09-2018 12:10:00 19.6 C 74 % 14.84 C
1300 03-09-2018 12:15:00 19.7 C 74 % 14.94 C
Sensor: Nr:Datum:Temp:Feuchte:Taupunkt:
Aussen-T/F 1301 03-09-2018 12:20:00 19.6 C 73 % 14.63 C
1302 03-09-2018 12:25:00 19.4 C 74 % 14.65 C
1303 03-09-2018 12:30:00 19.4 C 74 % 14.65 C
1304 03-09-2018 12:35:00 19.4 C 74 % 14.65 C
1305 03-09-2018 12:40:00 19.5 C 75 % 14.95 C
1306 03-09-2018 12:45:00 19.6 C 74 % 14.84 C
1307 03-09-2018 12:50:00 19.6 C 73 % 14.63 C
1308 03-09-2018 12:55:00 19.6 C 74 % 14.84 C
1309 03-09-2018 13:00:00 19.7 C 74 % 14.94 C
1310 03-09-2018 13:05:00 19.7 C 74 % 14.94 C
1311 03-09-2018 13:10:00 19.7 C 73 % 14.73 C
1312 03-09-2018 13:15:00 19.7 C 73 % 14.73 C
1313 03-09-2018 13:20:00 19.8 C 74 % 15.03 C
1314 03-09-2018 13:25:00 19.8 C 74 % 15.03 C
1315 03-09-2018 13:30:00 20 C 74 % 15.23 C
1316 03-09-2018 13:35:00 20.2 C 72 % 14.99 C
1317 03-09-2018 13:40:00 20.3 C 72 % 15.09 C
1318 03-09-2018 13:45:00 20.3 C 72 % 15.09 C
1319 03-09-2018 13:50:00 20.3 C 72 % 15.09 C
1320 03-09-2018 13:55:00 20.5 C 73 % 15.5 C
1321 03-09-2018 14:00:00 20.7 C 72 % 15.47 C
1322 03-09-2018 14:05:00 20.8 C 72 % 15.57 C
1323 03-09-2018 14:10:00 20.9 C 70 % 15.23 C
1324 03-09-2018 14:15:00 20.8 C 70 % 15.13 C
1325 03-09-2018 14:20:00 20.7 C 71 % 15.25 C
Sensor: Nr:Datum:Temp:Feuchte:Taupunkt:
Aussen-T/F 1326 03-09-2018 14:25:00 20.7 C 71 % 15.25 C
1327 03-09-2018 14:30:00 20.7 C 71 % 15.25 C
1328 03-09-2018 14:35:00 20.8 C 71 % 15.35 C
1329 03-09-2018 14:40:00 20.8 C 71 % 15.35 C
1330 03-09-2018 14:45:00 20.9 C 71 % 15.45 C
1331 03-09-2018 14:50:00 20.9 C 70 % 15.23 C
1332 03-09-2018 14:55:00 20.9 C 71 % 15.45 C
1333 03-09-2018 15:00:00 20.9 C 70 % 15.23 C
1334 03-09-2018 15:05:00 20.9 C 71 % 15.45 C
1335 03-09-2018 15:10:00 21 C 70 % 15.32 C
1336 03-09-2018 15:15:00 21 C 71 % 15.54 C
1337 03-09-2018 15:20:00 20.9 C 71 % 15.45 C
1338 03-09-2018 15:25:00 20.8 C 71 % 15.35 C
1339 03-09-2018 15:30:00 20.8 C 72 % 15.57 C
1340 03-09-2018 15:35:00 20.8 C 73 % 15.78 C
1341 03-09-2018 15:40:00 20.8 C 72 % 15.57 C
1342 03-09-2018 15:45:00 20.7 C 73 % 15.69 C
1343 03-09-2018 15:50:00 20.7 C 72 % 15.47 C
1344 03-09-2018 15:55:00 20.7 C 72 % 15.47 C
1345 03-09-2018 16:00:00 20.7 C 72 % 15.47 C
1346 03-09-2018 16:05:00 20.7 C 72 % 15.47 C
1347 03-09-2018 16:10:00 20.8 C 73 % 15.78 C
1348 03-09-2018 16:15:00 20.8 C 72 % 15.57 C
1349 03-09-2018 16:20:00 20.7 C 72 % 15.47 C
1350 03-09-2018 16:25:00 20.7 C 72 % 15.47 C
Sensor: Nr:Datum:Temp:Feuchte:Taupunkt:
Aussen-T/F 1351 03-09-2018 16:30:00 20.7 C 72 % 15.47 C
1352 03-09-2018 16:35:00 20.6 C 72 % 15.38 C
1353 03-09-2018 16:40:00 20.6 C 73 % 15.59 C
1354 03-09-2018 16:45:00 20.6 C 72 % 15.38 C
1355 03-09-2018 16:50:00 20.6 C 73 % 15.59 C
1356 03-09-2018 16:55:00 20.6 C 73 % 15.59 C
1357 03-09-2018 17:00:00 20.6 C 73 % 15.59 C
1358 03-09-2018 17:05:00 20.6 C 75 % 16.01 C
1359 03-09-2018 17:10:00 20.6 C 75 % 16.01 C
1360 03-09-2018 17:15:00 20.6 C 75 % 16.01 C
1361 03-09-2018 17:20:00 20.6 C 75 % 16.01 C
1362 03-09-2018 17:25:00 20.6 C 76 % 16.22 C
1363 03-09-2018 17:30:00 20.6 C 76 % 16.22 C
1364 03-09-2018 17:35:00 20.6 C 76 % 16.22 C
1365 03-09-2018 17:40:00 20.6 C 75 % 16.01 C
1366 03-09-2018 17:45:00 20.6 C 75 % 16.01 C
1367 03-09-2018 17:50:00 20.6 C 75 % 16.01 C
1368 03-09-2018 17:55:00 20.5 C 75 % 15.92 C
1369 03-09-2018 18:00:00 20.5 C 75 % 15.92 C
1370 03-09-2018 18:05:00 20.4 C 75 % 15.82 C
1371 03-09-2018 18:10:00 20.4 C 75 % 15.82 C
1372 03-09-2018 18:15:00 20.4 C 75 % 15.82 C
1373 03-09-2018 18:20:00 20.4 C 75 % 15.82 C
1374 03-09-2018 18:25:00 20.4 C 75 % 15.82 C
1375 03-09-2018 18:30:00 20.4 C 75 % 15.82 C
Sensor: Nr:Datum:Temp:Feuchte:Taupunkt:
Aussen-T/F 1376 03-09-2018 18:35:00 20.3 C 76 % 15.93 C
1377 03-09-2018 18:40:00 20.3 C 76 % 15.93 C
1378 03-09-2018 18:45:00 20.2 C 76 % 15.83 C
1379 03-09-2018 18:50:00 20.2 C 76 % 15.83 C
1380 03-09-2018 18:55:00 20.2 C 77 % 16.04 C
1381 03-09-2018 19:00:00 20.2 C 77 % 16.04 C
1382 03-09-2018 19:05:00 20.1 C 77 % 15.94 C
1383 03-09-2018 19:10:00 20.1 C 77 % 15.94 C
1384 03-09-2018 19:15:00 20.1 C 77 % 15.94 C
1385 03-09-2018 19:20:00 20 C 78 % 16.05 C
1386 03-09-2018 19:25:00 19.9 C 78 % 15.95 C
1387 03-09-2018 19:30:00 19.9 C 78 % 15.95 C
1388 03-09-2018 19:35:00 19.9 C 79 % 16.15 C
1389 03-09-2018 19:40:00 19.8 C 79 % 16.05 C
1390 03-09-2018 19:45:00 19.8 C 79 % 16.05 C
1391 03-09-2018 19:50:00 19.7 C 81 % 16.35 C
1392 03-09-2018 19:55:00 19.6 C 81 % 16.25 C
1393 03-09-2018 20:00:00 19.5 C 82 % 16.35 C
1394 03-09-2018 20:05:00 19.3 C 82 % 16.15 C
1395 03-09-2018 20:10:00 19.2 C 82 % 16.05 C
1396 03-09-2018 20:15:00 19.1 C 83 % 16.15 C
1397 03-09-2018 20:20:00 19 C 83 % 16.05 C
1398 03-09-2018 20:25:00 18.9 C 83 % 15.95 C
1399 03-09-2018 20:30:00 18.8 C 83 % 15.85 C
1400 03-09-2018 20:35:00 18.8 C 84 % 16.04 C
Sensor: Nr:Datum:Temp:Feuchte:Taupunkt:
Aussen-T/F 1401 03-09-2018 20:40:00 18.7 C 84 % 15.94 C
1402 03-09-2018 20:45:00 18.7 C 84 % 15.94 C
1403 03-09-2018 20:50:00 18.7 C 84 % 15.94 C
1404 03-09-2018 20:55:00 18.6 C 85 % 16.03 C
1405 03-09-2018 21:00:00 18.6 C 85 % 16.03 C
1406 03-09-2018 21:05:00 18.6 C 85 % 16.03 C
1407 03-09-2018 21:10:00 18.5 C 85 % 15.93 C
1408 03-09-2018 21:15:00 18.4 C 85 % 15.83 C
1409 03-09-2018 21:20:00 18.4 C 85 % 15.83 C
1410 03-09-2018 21:25:00 18.4 C 85 % 15.83 C
1411 03-09-2018 21:30:00 18.3 C 86 % 15.92 C
1412 03-09-2018 21:35:00 18.3 C 86 % 15.92 C
1413 03-09-2018 21:40:00 18.3 C 86 % 15.92 C
1414 03-09-2018 21:45:00 18.3 C 86 % 15.92 C
1415 03-09-2018 21:50:00 18.2 C 86 % 15.82 C
1416 03-09-2018 21:55:00 18.2 C 86 % 15.82 C
1417 03-09-2018 22:00:00 18.2 C 86 % 15.82 C
1418 03-09-2018 22:05:00 18.2 C 86 % 15.82 C
1419 03-09-2018 22:10:00 18.2 C 86 % 15.82 C
1420 03-09-2018 22:15:00 18.1 C 86 % 15.72 C
1421 03-09-2018 22:20:00 18.1 C 86 % 15.72 C
1422 03-09-2018 22:25:00 18.1 C 86 % 15.72 C
1423 03-09-2018 22:30:00 18 C 86 % 15.62 C
1424 03-09-2018 22:35:00 17.9 C 87 % 15.71 C
1425 03-09-2018 22:40:00 17.9 C 87 % 15.71 C
Sensor: Nr:Datum:Temp:Feuchte:Taupunkt:
Aussen-T/F 1426 03-09-2018 22:45:00 17.8 C 87 % 15.61 C
1427 03-09-2018 22:50:00 17.8 C 87 % 15.61 C
1428 03-09-2018 22:55:00 17.8 C 87 % 15.61 C
1429 03-09-2018 23:00:00 17.7 C 87 % 15.51 C
1430 03-09-2018 23:05:00 17.7 C 88 % 15.69 C
1431 03-09-2018 23:10:00 17.7 C 88 % 15.69 C
1432 03-09-2018 23:15:00 17.7 C 88 % 15.69 C
1433 03-09-2018 23:20:00 17.6 C 88 % 15.59 C
1434 03-09-2018 23:25:00 17.6 C 88 % 15.59 C
1435 03-09-2018 23:30:00 17.6 C 89 % 15.77 C
1436 03-09-2018 23:35:00 17.6 C 88 % 15.59 C
1437 03-09-2018 23:40:00 17.5 C 89 % 15.67 C
1438 03-09-2018 23:45:00 17.4 C 89 % 15.57 C
1439 03-09-2018 23:50:00 17.4 C 89 % 15.57 C
1440 03-09-2018 23:55:00 17.4 C 89 % 15.57 C
1441 04-09-2018 00:00:00 17.4 C 89 % 15.57 C
1442 04-09-2018 00:05:00 17.4 C 89 % 15.57 C
1443 04-09-2018 00:10:00 17.4 C 89 % 15.57 C
1444 04-09-2018 00:15:00 17.4 C 89 % 15.57 C
1445 04-09-2018 00:20:00 17.4 C 89 % 15.57 C
1446 04-09-2018 00:25:00 17.3 C 89 % 15.47 C
1447 04-09-2018 00:30:00 17.3 C 89 % 15.47 C
1448 04-09-2018 00:35:00 17.2 C 89 % 15.37 C
1449 04-09-2018 00:40:00 17.2 C 89 % 15.37 C
1450 04-09-2018 00:45:00 17.2 C 89 % 15.37 C
Sensor: Nr:Datum:Temp:Feuchte:Taupunkt:
Aussen-T/F 1451 04-09-2018 00:50:00 17.2 C 90 % 15.55 C
1452 04-09-2018 00:55:00 17.2 C 90 % 15.55 C
1453 04-09-2018 01:00:00 17.2 C 90 % 15.55 C
1454 04-09-2018 01:05:00 17.2 C 90 % 15.55 C
1455 04-09-2018 01:10:00 17.2 C 90 % 15.55 C
1456 04-09-2018 01:15:00 17.2 C 90 % 15.55 C
1457 04-09-2018 01:20:00 17.2 C 90 % 15.55 C
1458 04-09-2018 01:25:00 17.2 C 90 % 15.55 C
1459 04-09-2018 01:30:00 17.2 C 90 % 15.55 C
1460 04-09-2018 01:35:00 17.2 C 90 % 15.55 C
1461 04-09-2018 01:40:00 17.3 C 90 % 15.64 C
1462 04-09-2018 01:45:00 17.2 C 90 % 15.55 C
1463 04-09-2018 01:50:00 17.3 C 90 % 15.64 C
1464 04-09-2018 01:55:00 17.3 C 90 % 15.64 C
1465 04-09-2018 02:00:00 17.3 C 90 % 15.64 C
1466 04-09-2018 02:05:00 17.2 C 90 % 15.55 C
1467 04-09-2018 02:10:00 17.3 C 90 % 15.64 C
1468 04-09-2018 02:15:00 17.2 C 90 % 15.55 C
1469 04-09-2018 02:20:00 17.2 C 90 % 15.55 C
1470 04-09-2018 02:25:00 17.2 C 90 % 15.55 C
1471 04-09-2018 02:30:00 17.3 C 90 % 15.64 C
1472 04-09-2018 02:35:00 17.3 C 90 % 15.64 C
1473 04-09-2018 02:40:00 17.2 C 90 % 15.55 C
1474 04-09-2018 02:45:00 17.2 C 90 % 15.55 C
1475 04-09-2018 02:50:00 17.2 C 90 % 15.55 C
Sensor: Nr:Datum:Temp:Feuchte:Taupunkt:
Aussen-T/F 1476 04-09-2018 02:55:00 17.2 C 91 % 15.72 C
1477 04-09-2018 03:00:00 17.2 C 91 % 15.72 C
1478 04-09-2018 03:05:00 17.2 C 91 % 15.72 C
1479 04-09-2018 03:10:00 17.2 C 91 % 15.72 C
1480 04-09-2018 03:15:00 17.2 C 91 % 15.72 C
1481 04-09-2018 03:20:00 17.2 C 91 % 15.72 C
1482 04-09-2018 03:25:00 17.1 C 91 % 15.62 C
1483 04-09-2018 03:30:00 17.2 C 91 % 15.72 C
1484 04-09-2018 03:35:00 17.1 C 91 % 15.62 C
1485 04-09-2018 03:40:00 17.1 C 91 % 15.62 C
1486 04-09-2018 03:45:00 17.1 C 91 % 15.62 C
1487 04-09-2018 03:50:00 17.1 C 91 % 15.62 C
1488 04-09-2018 03:55:00 17.1 C 91 % 15.62 C
1489 04-09-2018 04:00:00 17.1 C 91 % 15.62 C
1490 04-09-2018 04:05:00 17.1 C 91 % 15.62 C
1491 04-09-2018 04:10:00 17.1 C 91 % 15.62 C
1492 04-09-2018 04:15:00 17.1 C 91 % 15.62 C
1493 04-09-2018 04:20:00 17.1 C 91 % 15.62 C
1494 04-09-2018 04:25:00 17.1 C 91 % 15.62 C
1495 04-09-2018 04:30:00 17.1 C 91 % 15.62 C
1496 04-09-2018 04:35:00 17.1 C 91 % 15.62 C
1497 04-09-2018 04:40:00 17.1 C 91 % 15.62 C
1498 04-09-2018 04:45:00 17 C 91 % 15.52 C
1499 04-09-2018 04:50:00 16.9 C 91 % 15.42 C
1500 04-09-2018 04:55:00 16.8 C 91 % 15.32 C
Sensor: Nr:Datum:Temp:Feuchte:Taupunkt:
Aussen-T/F 1501 04-09-2018 05:00:00 16.7 C 90 % 15.05 C
1502 04-09-2018 05:05:00 16.4 C 90 % 14.76 C
1503 04-09-2018 05:10:00 16.3 C 91 % 14.83 C
1504 04-09-2018 05:15:00 16.3 C 91 % 14.83 C
1505 04-09-2018 05:20:00 16.2 C 91 % 14.73 C
1506 04-09-2018 05:25:00 16.1 C 91 % 14.63 C
1507 04-09-2018 05:30:00 16.1 C 92 % 14.8 C
1508 04-09-2018 05:35:00 16.1 C 92 % 14.8 C
1509 04-09-2018 05:40:00 16 C 92 % 14.7 C
1510 04-09-2018 05:45:00 15.9 C 92 % 14.6 C
1511 04-09-2018 05:50:00 15.8 C 92 % 14.5 C
1512 04-09-2018 05:55:00 15.7 C 92 % 14.4 C
1513 04-09-2018 06:00:00 15.6 C 92 % 14.31 C
1514 04-09-2018 06:05:00 15.6 C 92 % 14.31 C
1515 04-09-2018 06:10:00 15.5 C 92 % 14.21 C
1516 04-09-2018 06:15:00 15.4 C 92 % 14.11 C
1517 04-09-2018 06:20:00 15.4 C 92 % 14.11 C
1518 04-09-2018 06:25:00 15.3 C 92 % 14.01 C
1519 04-09-2018 06:30:00 15.2 C 92 % 13.91 C
1520 04-09-2018 06:35:00 15.3 C 93 % 14.18 C
1521 04-09-2018 06:40:00 15.3 C 93 % 14.18 C
1522 04-09-2018 06:45:00 15.4 C 94 % 14.44 C
1523 04-09-2018 06:50:00 15.4 C 94 % 14.44 C
1524 04-09-2018 06:55:00 15.5 C 94 % 14.54 C
1525 04-09-2018 07:00:00 15.7 C 94 % 14.74 C
Sensor: Nr:Datum:Temp:Feuchte:Taupunkt:
Aussen-T/F 1526 04-09-2018 07:05:00 15.7 C 94 % 14.74 C
1527 04-09-2018 07:10:00 15.8 C 94 % 14.84 C
1528 04-09-2018 07:15:00 15.8 C 94 % 14.84 C
1529 04-09-2018 07:20:00 15.8 C 94 % 14.84 C
1530 04-09-2018 07:25:00 15.8 C 94 % 14.84 C
1531 04-09-2018 07:30:00 15.8 C 94 % 14.84 C
1532 04-09-2018 07:35:00 15.9 C 94 % 14.94 C
1533 04-09-2018 07:40:00 15.9 C 94 % 14.94 C
1534 04-09-2018 07:45:00 15.9 C 94 % 14.94 C
1535 04-09-2018 07:50:00 16 C 94 % 15.03 C
1536 04-09-2018 07:55:00 16.1 C 94 % 15.13 C
1537 04-09-2018 08:00:00 16.1 C 94 % 15.13 C
1538 04-09-2018 08:05:00 16.1 C 94 % 15.13 C
1539 04-09-2018 08:10:00 16.1 C 94 % 15.13 C
1540 04-09-2018 08:15:00 16.2 C 94 % 15.23 C
1541 04-09-2018 08:20:00 16.2 C 94 % 15.23 C
1542 04-09-2018 08:25:00 16.2 C 94 % 15.23 C
1543 04-09-2018 08:30:00 16.3 C 94 % 15.33 C
1544 04-09-2018 08:35:00 16.3 C 94 % 15.33 C
1545 04-09-2018 08:40:00 16.3 C 94 % 15.33 C
1546 04-09-2018 08:45:00 16.4 C 94 % 15.43 C
1547 04-09-2018 08:50:00 16.5 C 94 % 15.53 C
1548 04-09-2018 08:55:00 16.6 C 94 % 15.63 C
1549 04-09-2018 09:00:00 16.7 C 94 % 15.73 C
1550 04-09-2018 09:05:00 16.8 C 93 % 15.66 C
Sensor: Nr:Datum:Temp:Feuchte:Taupunkt:
Aussen-T/F 1551 04-09-2018 09:10:00 16.9 C 93 % 15.76 C
1552 04-09-2018 09:15:00 17.1 C 93 % 15.96 C
1553 04-09-2018 09:20:00 17.2 C 93 % 16.06 C
1554 04-09-2018 09:25:00 17.3 C 93 % 16.16 C
1555 04-09-2018 09:30:00 17.4 C 92 % 16.09 C
1556 04-09-2018 09:35:00 17.5 C 92 % 16.19 C
1557 04-09-2018 09:40:00 17.6 C 91 % 16.11 C
1558 04-09-2018 09:45:00 17.7 C 91 % 16.21 C
1559 04-09-2018 09:50:00 17.7 C 91 % 16.21 C
1560 04-09-2018 09:55:00 17.8 C 91 % 16.31 C
1561 04-09-2018 10:00:00 17.9 C 91 % 16.41 C
1562 04-09-2018 10:05:00 18 C 91 % 16.51 C
1563 04-09-2018 10:10:00 18.1 C 90 % 16.43 C
1564 04-09-2018 10:15:00 18.1 C 90 % 16.43 C
1565 04-09-2018 10:20:00 18.2 C 90 % 16.53 C
1566 04-09-2018 10:25:00 18.3 C 90 % 16.63 C
1567 04-09-2018 10:30:00 18.3 C 90 % 16.63 C
1568 04-09-2018 10:35:00 18.4 C 89 % 16.55 C
1569 04-09-2018 10:40:00 18.5 C 89 % 16.65 C
1570 04-09-2018 10:45:00 18.6 C 89 % 16.75 C
1571 04-09-2018 10:50:00 18.6 C 89 % 16.75 C
1572 04-09-2018 10:55:00 18.7 C 89 % 16.85 C
1573 04-09-2018 11:00:00 18.7 C 89 % 16.85 C
1574 04-09-2018 11:05:00 18.8 C 89 % 16.95 C
1575 04-09-2018 11:10:00 18.9 C 90 % 17.22 C
Sensor: Nr:Datum:Temp:Feuchte:Taupunkt:
Aussen-T/F 1576 04-09-2018 11:15:00 19.1 C 90 % 17.42 C
1577 04-09-2018 11:20:00 19.1 C 89 % 17.24 C
1578 04-09-2018 11:25:00 19.2 C 88 % 17.16 C
1579 04-09-2018 11:30:00 19.4 C 88 % 17.36 C
1580 04-09-2018 11:35:00 19.6 C 88 % 17.56 C
1581 04-09-2018 11:40:00 19.7 C 88 % 17.66 C
1582 04-09-2018 11:45:00 19.9 C 87 % 17.67 C
1583 04-09-2018 11:50:00 20.1 C 87 % 17.87 C
1584 04-09-2018 11:55:00 20.2 C 85 % 17.6 C
1585 04-09-2018 12:00:00 20.3 C 85 % 17.7 C
1586 04-09-2018 12:05:00 20.4 C 85 % 17.79 C
1587 04-09-2018 12:10:00 20.6 C 83 % 17.61 C
1588 04-09-2018 12:15:00 20.7 C 83 % 17.71 C
1589 04-09-2018 12:20:00 20.8 C 80 % 17.22 C
1590 04-09-2018 12:25:00 21.1 C 79 % 17.32 C
1591 04-09-2018 12:30:00 21.2 C 77 % 17.01 C
1592 04-09-2018 12:35:00 21.4 C 77 % 17.2 C
1593 04-09-2018 12:40:00 21.6 C 75 % 16.98 C
1594 04-09-2018 12:45:00 21.9 C 73 % 16.84 C
1595 04-09-2018 12:50:00 22.3 C 71 % 16.79 C
1596 04-09-2018 12:55:00 22.6 C 70 % 16.85 C
1597 04-09-2018 13:00:00 22.7 C 69 % 16.72 C
1598 04-09-2018 13:05:00 22.8 C 69 % 16.82 C
1599 04-09-2018 13:10:00 22.9 C 68 % 16.68 C
1600 04-09-2018 13:15:00 23.1 C 67 % 16.64 C
Sensor: Nr:Datum:Temp:Feuchte:Taupunkt:
Aussen-T/F 1601 04-09-2018 13:20:00 23.2 C 66 % 16.5 C
1602 04-09-2018 13:25:00 23.3 C 66 % 16.59 C
1603 04-09-2018 13:30:00 23.4 C 65 % 16.45 C
1604 04-09-2018 13:35:00 23.6 C 65 % 16.64 C
1605 04-09-2018 13:40:00 23.6 C 64 % 16.39 C
1606 04-09-2018 13:45:00 23.6 C 65 % 16.64 C
1607 04-09-2018 13:50:00 23.7 C 65 % 16.73 C
1608 04-09-2018 13:55:00 23.7 C 65 % 16.73 C
1609 04-09-2018 14:00:00 23.8 C 64 % 16.58 C
1610 04-09-2018 14:05:00 23.9 C 63 % 16.43 C
1611 04-09-2018 14:10:00 24.1 C 63 % 16.62 C
1612 04-09-2018 14:15:00 24.3 C 62 % 16.55 C
1613 04-09-2018 14:20:00 24.3 C 62 % 16.55 C
1614 04-09-2018 14:25:00 24.3 C 61 % 16.3 C
1615 04-09-2018 14:30:00 24.2 C 61 % 16.2 C
1616 04-09-2018 14:35:00 24.3 C 61 % 16.3 C
1617 04-09-2018 14:40:00 24.6 C 62 % 16.84 C
1618 04-09-2018 14:45:00 24.9 C 60 % 16.6 C
1619 04-09-2018 14:50:00 25.1 C 59 % 16.52 C
1620 04-09-2018 14:55:00 25.1 C 58 % 16.26 C
1621 04-09-2018 15:00:00 25.2 C 58 % 16.35 C
1622 04-09-2018 15:05:00 25.2 C 58 % 16.35 C
1623 04-09-2018 15:10:00 25.2 C 58 % 16.35 C
1624 04-09-2018 15:15:00 25.2 C 58 % 16.35 C
1625 04-09-2018 15:20:00 25.4 C 56 % 15.99 C
Sensor: Nr:Datum:Temp:Feuchte:Taupunkt:
Aussen-T/F 1626 04-09-2018 15:25:00 25.7 C 56 % 16.26 C
1627 04-09-2018 15:30:00 25.8 C 55 % 16.07 C
1628 04-09-2018 15:35:00 25.8 C 55 % 16.07 C
1629 04-09-2018 15:40:00 25.6 C 55 % 15.89 C
1630 04-09-2018 15:45:00 25.5 C 56 % 16.08 C
1631 04-09-2018 15:50:00 25.4 C 56 % 15.99 C
1632 04-09-2018 15:55:00 25.3 C 55 % 15.61 C
1633 04-09-2018 16:00:00 25.3 C 56 % 15.89 C
1634 04-09-2018 16:05:00 25.3 C 56 % 15.89 C
1635 04-09-2018 16:10:00 25.4 C 55 % 15.7 C
1636 04-09-2018 16:15:00 25.5 C 54 % 15.51 C
1637 04-09-2018 16:20:00 25.6 C 56 % 16.17 C
1638 04-09-2018 16:25:00 25.7 C 54 % 15.7 C
1639 04-09-2018 16:30:00 26 C 53 % 15.68 C
1640 04-09-2018 16:35:00 26.3 C 52 % 15.66 C
1641 04-09-2018 16:40:00 26.2 C 52 % 15.57 C
1642 04-09-2018 16:45:00 26.2 C 54 % 16.16 C
1643 04-09-2018 16:50:00 26.1 C 53 % 15.77 C
1644 04-09-2018 16:55:00 25.9 C 54 % 15.88 C
1645 04-09-2018 17:00:00 25.8 C 59 % 17.18 C
1646 04-09-2018 17:05:00 25.7 C 59 % 17.09 C
1647 04-09-2018 17:10:00 25.6 C 60 % 17.26 C
1648 04-09-2018 17:15:00 25.4 C 57 % 16.26 C
1649 04-09-2018 17:20:00 25.3 C 61 % 17.24 C
1650 04-09-2018 17:25:00 25.2 C 62 % 17.4 C
Sensor: Nr:Datum:Temp:Feuchte:Taupunkt:
Aussen-T/F 1651 04-09-2018 17:30:00 25.1 C 62 % 17.31 C
1652 04-09-2018 17:35:00 25 C 63 % 17.47 C
1653 04-09-2018 17:40:00 24.8 C 63 % 17.28 C
1654 04-09-2018 17:45:00 24.8 C 64 % 17.53 C
1655 04-09-2018 17:50:00 24.7 C 64 % 17.43 C
1656 04-09-2018 17:55:00 24.6 C 65 % 17.58 C
1657 04-09-2018 18:00:00 24.6 C 65 % 17.58 C
1658 04-09-2018 18:05:00 24.6 C 65 % 17.58 C
1659 04-09-2018 18:10:00 24.6 C 65 % 17.58 C
1660 04-09-2018 18:15:00 24.6 C 66 % 17.83 C
1661 04-09-2018 18:20:00 24.6 C 65 % 17.58 C
1662 04-09-2018 18:25:00 24.5 C 65 % 17.49 C
1663 04-09-2018 18:30:00 24.4 C 65 % 17.39 C
1664 04-09-2018 18:35:00 24.3 C 65 % 17.3 C
1665 04-09-2018 18:40:00 24.1 C 66 % 17.35 C
1666 04-09-2018 18:45:00 23.9 C 65 % 16.92 C
1667 04-09-2018 18:50:00 23.8 C 67 % 17.3 C
1668 04-09-2018 18:55:00 23.6 C 67 % 17.11 C
1669 04-09-2018 19:00:00 23.6 C 67 % 17.11 C
1670 04-09-2018 19:05:00 23.4 C 67 % 16.92 C
1671 04-09-2018 19:10:00 23.4 C 67 % 16.92 C
1672 04-09-2018 19:15:00 23.4 C 67 % 16.92 C
1673 04-09-2018 19:20:00 23.4 C 67 % 16.92 C
1674 04-09-2018 19:25:00 23.5 C 67 % 17.02 C
1675 04-09-2018 19:30:00 23.4 C 66 % 16.69 C
Sensor: Nr:Datum:Temp:Feuchte:Taupunkt:
Aussen-T/F 1676 04-09-2018 19:35:00 23.3 C 66 % 16.59 C
1677 04-09-2018 19:40:00 23.2 C 66 % 16.5 C
1678 04-09-2018 19:45:00 23.1 C 67 % 16.64 C
1679 04-09-2018 19:50:00 22.9 C 67 % 16.45 C
1680 04-09-2018 19:55:00 22.7 C 68 % 16.49 C
1681 04-09-2018 20:00:00 22.8 C 67 % 16.35 C
1682 04-09-2018 20:05:00 22.8 C 68 % 16.59 C
1683 04-09-2018 20:10:00 22.7 C 68 % 16.49 C
1684 04-09-2018 20:15:00 22.5 C 69 % 16.53 C
1685 04-09-2018 20:20:00 22.3 C 70 % 16.56 C
1686 04-09-2018 20:25:00 22.1 C 71 % 16.6 C
1687 04-09-2018 20:30:00 21.9 C 71 % 16.4 C
1688 04-09-2018 20:35:00 21.8 C 72 % 16.53 C
1689 04-09-2018 20:40:00 21.7 C 72 % 16.43 C
1690 04-09-2018 20:45:00 21.6 C 73 % 16.55 C
1691 04-09-2018 20:50:00 21.4 C 73 % 16.36 C
1692 04-09-2018 20:55:00 21.3 C 74 % 16.48 C
1693 04-09-2018 21:00:00 21.2 C 74 % 16.38 C
1694 04-09-2018 21:05:00 21.2 C 75 % 16.59 C
1695 04-09-2018 21:10:00 21.1 C 75 % 16.5 C
1696 04-09-2018 21:15:00 21 C 75 % 16.4 C
1697 04-09-2018 21:20:00 20.9 C 75 % 16.3 C
1698 04-09-2018 21:25:00 20.9 C 75 % 16.3 C
1699 04-09-2018 21:30:00 20.8 C 75 % 16.21 C
1700 04-09-2018 21:35:00 20.7 C 76 % 16.32 C
Sensor: Nr:Datum:Temp:Feuchte:Taupunkt:
Aussen-T/F 1701 04-09-2018 21:40:00 20.7 C 76 % 16.32 C
1702 04-09-2018 21:45:00 20.6 C 76 % 16.22 C
1703 04-09-2018 21:50:00 20.5 C 76 % 16.12 C
1704 04-09-2018 21:55:00 20.4 C 76 % 16.03 C
1705 04-09-2018 22:00:00 20.4 C 76 % 16.03 C
1706 04-09-2018 22:05:00 20.4 C 75 % 15.82 C
1707 04-09-2018 22:10:00 20.3 C 76 % 15.93 C
1708 04-09-2018 22:15:00 20.3 C 76 % 15.93 C
1709 04-09-2018 22:20:00 20.2 C 76 % 15.83 C
1710 04-09-2018 22:25:00 20.2 C 76 % 15.83 C
1711 04-09-2018 22:30:00 20.1 C 76 % 15.74 C
1712 04-09-2018 22:35:00 20.1 C 77 % 15.94 C
1713 04-09-2018 22:40:00 20.1 C 77 % 15.94 C
1714 04-09-2018 22:45:00 20 C 77 % 15.85 C
1715 04-09-2018 22:50:00 20 C 77 % 15.85 C
1716 04-09-2018 22:55:00 20 C 77 % 15.85 C
1717 04-09-2018 23:00:00 19.9 C 78 % 15.95 C
1718 04-09-2018 23:05:00 19.9 C 78 % 15.95 C
1719 04-09-2018 23:10:00 19.9 C 78 % 15.95 C
1720 04-09-2018 23:15:00 19.8 C 78 % 15.85 C
1721 04-09-2018 23:20:00 19.8 C 79 % 16.05 C
1722 04-09-2018 23:25:00 19.8 C 79 % 16.05 C
1723 04-09-2018 23:30:00 19.7 C 79 % 15.96 C
1724 04-09-2018 23:35:00 19.7 C 79 % 15.96 C
1725 04-09-2018 23:40:00 19.7 C 79 % 15.96 C
Sensor: Nr:Datum:Temp:Feuchte:Taupunkt:
Aussen-T/F 1726 04-09-2018 23:45:00 19.7 C 79 % 15.96 C
1727 04-09-2018 23:50:00 19.7 C 79 % 15.96 C
1728 04-09-2018 23:55:00 19.7 C 79 % 15.96 C
1729 05-09-2018 00:00:00 19.6 C 79 % 15.86 C
1730 05-09-2018 00:05:00 19.6 C 79 % 15.86 C
1731 05-09-2018 00:10:00 19.6 C 80 % 16.06 C
1732 05-09-2018 00:15:00 19.6 C 80 % 16.06 C
1733 05-09-2018 00:20:00 19.5 C 80 % 15.96 C
1734 05-09-2018 00:25:00 19.5 C 80 % 15.96 C
1735 05-09-2018 00:30:00 19.4 C 80 % 15.86 C
1736 05-09-2018 00:35:00 19.4 C 80 % 15.86 C
1737 05-09-2018 00:40:00 19.4 C 80 % 15.86 C
1738 05-09-2018 00:45:00 19.4 C 80 % 15.86 C
1739 05-09-2018 00:50:00 19.3 C 80 % 15.76 C
1740 05-09-2018 00:55:00 19.3 C 80 % 15.76 C
1741 05-09-2018 01:00:00 19.2 C 80 % 15.67 C
1742 05-09-2018 01:05:00 19.2 C 81 % 15.86 C
1743 05-09-2018 01:10:00 19.2 C 81 % 15.86 C
1744 05-09-2018 01:15:00 19.2 C 81 % 15.86 C
1745 05-09-2018 01:20:00 19.2 C 81 % 15.86 C
1746 05-09-2018 01:25:00 19.1 C 81 % 15.76 C
1747 05-09-2018 01:30:00 19.1 C 81 % 15.76 C
1748 05-09-2018 01:35:00 19.1 C 81 % 15.76 C
1749 05-09-2018 01:40:00 19.1 C 81 % 15.76 C
1750 05-09-2018 01:45:00 19.1 C 81 % 15.76 C
Sensor: Nr:Datum:Temp:Feuchte:Taupunkt:
Aussen-T/F 1751 05-09-2018 01:50:00 19 C 81 % 15.67 C
1752 05-09-2018 01:55:00 18.9 C 81 % 15.57 C
1753 05-09-2018 02:00:00 18.9 C 81 % 15.57 C
1754 05-09-2018 02:05:00 18.8 C 82 % 15.66 C
1755 05-09-2018 02:10:00 18.7 C 82 % 15.57 C
1756 05-09-2018 02:15:00 18.5 C 82 % 15.37 C
1757 05-09-2018 02:20:00 18.4 C 83 % 15.46 C
1758 05-09-2018 02:25:00 18.3 C 83 % 15.36 C
1759 05-09-2018 02:30:00 18.3 C 83 % 15.36 C
1760 05-09-2018 02:35:00 18.2 C 83 % 15.27 C
1761 05-09-2018 02:40:00 18.1 C 83 % 15.17 C
1762 05-09-2018 02:45:00 17.9 C 84 % 15.16 C
1763 05-09-2018 02:50:00 17.8 C 84 % 15.06 C
1764 05-09-2018 02:55:00 17.6 C 84 % 14.87 C
1765 05-09-2018 03:00:00 17.4 C 85 % 14.85 C
1766 05-09-2018 03:05:00 17.3 C 85 % 14.76 C
1767 05-09-2018 03:10:00 17.1 C 86 % 14.74 C
1768 05-09-2018 03:15:00 17.1 C 87 % 14.92 C
1769 05-09-2018 03:20:00 16.9 C 86 % 14.54 C
1770 05-09-2018 03:25:00 16.8 C 87 % 14.62 C
1771 05-09-2018 03:30:00 16.7 C 87 % 14.53 C
1772 05-09-2018 03:35:00 16.7 C 87 % 14.53 C
1773 05-09-2018 03:40:00 16.6 C 88 % 14.6 C
1774 05-09-2018 03:45:00 16.5 C 88 % 14.51 C
1775 05-09-2018 03:50:00 16.4 C 88 % 14.41 C
Sensor: Nr:Datum:Temp:Feuchte:Taupunkt:
Aussen-T/F 1776 05-09-2018 03:55:00 16.3 C 88 % 14.31 C
1777 05-09-2018 04:00:00 16.3 C 88 % 14.31 C
1778 05-09-2018 04:05:00 16.2 C 89 % 14.39 C
1779 05-09-2018 04:10:00 16.1 C 89 % 14.29 C
1780 05-09-2018 04:15:00 16 C 89 % 14.19 C
1781 05-09-2018 04:20:00 15.9 C 89 % 14.09 C
1782 05-09-2018 04:25:00 15.8 C 90 % 14.16 C
1783 05-09-2018 04:30:00 15.9 C 91 % 14.43 C
1784 05-09-2018 04:35:00 15.8 C 90 % 14.16 C
1785 05-09-2018 04:40:00 15.8 C 90 % 14.16 C
1786 05-09-2018 04:45:00 15.8 C 91 % 14.33 C
1787 05-09-2018 04:50:00 15.8 C 91 % 14.33 C
1788 05-09-2018 04:55:00 15.8 C 91 % 14.33 C
1789 05-09-2018 05:00:00 15.9 C 92 % 14.6 C
1790 05-09-2018 05:05:00 16 C 92 % 14.7 C
1791 05-09-2018 05:10:00 16.1 C 92 % 14.8 C
1792 05-09-2018 05:15:00 16.1 C 92 % 14.8 C
1793 05-09-2018 05:20:00 16.1 C 92 % 14.8 C
1794 05-09-2018 05:25:00 16.2 C 92 % 14.9 C
1795 05-09-2018 05:30:00 16.2 C 92 % 14.9 C
1796 05-09-2018 05:35:00 16.2 C 92 % 14.9 C
1797 05-09-2018 05:40:00 16.2 C 92 % 14.9 C
1798 05-09-2018 05:45:00 16.2 C 92 % 14.9 C
1799 05-09-2018 05:50:00 16.2 C 91 % 14.73 C
1800 05-09-2018 05:55:00 16.1 C 91 % 14.63 C
Sensor: Nr:Datum:Temp:Feuchte:Taupunkt:
Aussen-T/F 1801 05-09-2018 06:00:00 16.1 C 91 % 14.63 C
1802 05-09-2018 06:05:00 16.1 C 91 % 14.63 C
1803 05-09-2018 06:10:00 16 C 91 % 14.53 C
1804 05-09-2018 06:15:00 15.9 C 91 % 14.43 C
1805 05-09-2018 06:20:00 15.9 C 91 % 14.43 C
1806 05-09-2018 06:25:00 15.8 C 91 % 14.33 C
1807 05-09-2018 06:30:00 15.8 C 91 % 14.33 C
1808 05-09-2018 06:35:00 15.7 C 91 % 14.24 C
1809 05-09-2018 06:40:00 15.6 C 91 % 14.14 C
1810 05-09-2018 06:45:00 15.5 C 92 % 14.21 C
1811 05-09-2018 06:50:00 15.6 C 92 % 14.31 C
1812 05-09-2018 06:55:00 15.5 C 92 % 14.21 C
1813 05-09-2018 07:00:00 15.4 C 92 % 14.11 C
1814 05-09-2018 07:05:00 15.4 C 92 % 14.11 C
1815 05-09-2018 07:10:00 15.4 C 92 % 14.11 C
1816 05-09-2018 07:15:00 15.3 C 92 % 14.01 C
1817 05-09-2018 07:20:00 15.3 C 92 % 14.01 C
1818 05-09-2018 07:25:00 15.3 C 93 % 14.18 C
1819 05-09-2018 07:30:00 15.3 C 93 % 14.18 C
1820 05-09-2018 07:35:00 15.3 C 93 % 14.18 C
1821 05-09-2018 07:40:00 15.3 C 93 % 14.18 C
1822 05-09-2018 07:45:00 15.3 C 93 % 14.18 C
1823 05-09-2018 07:50:00 15.3 C 93 % 14.18 C
1824 05-09-2018 07:55:00 15.4 C 93 % 14.27 C
1825 05-09-2018 08:00:00 15.5 C 94 % 14.54 C
Sensor: Nr:Datum:Temp:Feuchte:Taupunkt:
Aussen-T/F 1826 05-09-2018 08:05:00 15.6 C 94 % 14.64 C
1827 05-09-2018 08:10:00 15.6 C 94 % 14.64 C
1828 05-09-2018 08:15:00 15.7 C 93 % 14.57 C
1829 05-09-2018 08:20:00 15.7 C 93 % 14.57 C
1830 05-09-2018 08:25:00 15.8 C 93 % 14.67 C
1831 05-09-2018 08:30:00 15.8 C 93 % 14.67 C
1832 05-09-2018 08:35:00 15.9 C 94 % 14.94 C
1833 05-09-2018 08:40:00 16 C 93 % 14.87 C
1834 05-09-2018 08:45:00 16 C 93 % 14.87 C
1835 05-09-2018 08:50:00 16.1 C 93 % 14.97 C
1836 05-09-2018 08:55:00 16.1 C 93 % 14.97 C
1837 05-09-2018 09:00:00 16.2 C 93 % 15.07 C
1838 05-09-2018 09:05:00 16.2 C 93 % 15.07 C
1839 05-09-2018 09:10:00 16.3 C 93 % 15.17 C
1840 05-09-2018 09:15:00 16.4 C 93 % 15.27 C
1841 05-09-2018 09:20:00 16.5 C 93 % 15.36 C
1842 05-09-2018 09:25:00 16.6 C 93 % 15.46 C
1843 05-09-2018 09:30:00 16.7 C 93 % 15.56 C
1844 05-09-2018 09:35:00 16.8 C 93 % 15.66 C
1845 05-09-2018 09:40:00 16.9 C 93 % 15.76 C
1846 05-09-2018 09:45:00 17 C 93 % 15.86 C
1847 05-09-2018 09:50:00 17.1 C 93 % 15.96 C
1848 05-09-2018 09:55:00 17.2 C 92 % 15.89 C
1849 05-09-2018 10:00:00 17.3 C 92 % 15.99 C
1850 05-09-2018 10:05:00 17.4 C 92 % 16.09 C
Sensor: Nr:Datum:Temp:Feuchte:Taupunkt:
Aussen-T/F 1851 05-09-2018 10:10:00 17.6 C 91 % 16.11 C
1852 05-09-2018 10:15:00 17.8 C 91 % 16.31 C
1853 05-09-2018 10:20:00 18 C 91 % 16.51 C
1854 05-09-2018 10:25:00 18.2 C 90 % 16.53 C
1855 05-09-2018 10:30:00 18.3 C 90 % 16.63 C
1856 05-09-2018 10:35:00 18.5 C 89 % 16.65 C
1857 05-09-2018 10:40:00 18.7 C 89 % 16.85 C
1858 05-09-2018 10:45:00 18.8 C 88 % 16.77 C
1859 05-09-2018 10:50:00 19 C 87 % 16.79 C
1860 05-09-2018 10:55:00 19.2 C 87 % 16.98 C
1861 05-09-2018 11:00:00 19.4 C 86 % 17 C
1862 05-09-2018 11:05:00 19.6 C 86 % 17.19 C
1863 05-09-2018 11:10:00 19.8 C 84 % 17.02 C
1864 05-09-2018 11:15:00 20 C 83 % 17.02 C
1865 05-09-2018 11:20:00 20.2 C 82 % 17.03 C
1866 05-09-2018 11:25:00 20.6 C 81 % 17.22 C
1867 05-09-2018 11:30:00 20.8 C 79 % 17.02 C
1868 05-09-2018 11:35:00 21.1 C 77 % 16.91 C
1869 05-09-2018 11:40:00 21.4 C 76 % 16.99 C
1870 05-09-2018 11:45:00 21.7 C 75 % 17.07 C
1871 05-09-2018 11:50:00 22 C 74 % 17.15 C
1872 05-09-2018 11:55:00 22.3 C 73 % 17.23 C
1873 05-09-2018 12:00:00 22.5 C 72 % 17.2 C
1874 05-09-2018 12:05:00 22.7 C 71 % 17.17 C
1875 05-09-2018 12:10:00 22.9 C 70 % 17.14 C
Sensor: Nr:Datum:Temp:Feuchte:Taupunkt:
Aussen-T/F 1876 05-09-2018 12:15:00 23.1 C 69 % 17.1 C
1877 05-09-2018 12:20:00 23.2 C 68 % 16.97 C
1878 05-09-2018 12:25:00 23.4 C 66 % 16.69 C
1879 05-09-2018 12:30:00 23.6 C 66 % 16.88 C
1880 05-09-2018 12:35:00 23.7 C 66 % 16.97 C
1881 05-09-2018 12:40:00 23.8 C 64 % 16.58 C
1882 05-09-2018 12:45:00 24.1 C 63 % 16.62 C
1883 05-09-2018 12:50:00 24.3 C 63 % 16.81 C
1884 05-09-2018 12:55:00 24.4 C 62 % 16.65 C
1885 05-09-2018 13:00:00 24.6 C 61 % 16.58 C
1886 05-09-2018 13:05:00 24.7 C 61 % 16.67 C
1887 05-09-2018 13:10:00 24.8 C 60 % 16.51 C
1888 05-09-2018 13:15:00 25.1 C 58 % 16.26 C
1889 05-09-2018 13:20:00 25.2 C 57 % 16.08 C
1890 05-09-2018 13:25:00 25.4 C 56 % 15.99 C
1891 05-09-2018 13:30:00 25.4 C 56 % 15.99 C
1892 05-09-2018 13:35:00 25.6 C 56 % 16.17 C
1893 05-09-2018 13:40:00 25.7 C 56 % 16.26 C
1894 05-09-2018 13:45:00 25.9 C 55 % 16.17 C
1895 05-09-2018 13:50:00 26.1 C 54 % 16.07 C
1896 05-09-2018 13:55:00 26.2 C 53 % 15.87 C
1897 05-09-2018 14:00:00 26.3 C 53 % 15.96 C
1898 05-09-2018 14:05:00 26.3 C 51 % 15.36 C
1899 05-09-2018 14:10:00 26.4 C 51 % 15.45 C
1900 05-09-2018 14:15:00 26.4 C 51 % 15.45 C
Sensor: Nr:Datum:Temp:Feuchte:Taupunkt:
Aussen-T/F 1901 05-09-2018 14:20:00 26.6 C 51 % 15.63 C
1902 05-09-2018 14:25:00 26.7 C 50 % 15.42 C
1903 05-09-2018 14:30:00 26.8 C 49 % 15.19 C
1904 05-09-2018 14:35:00 26.8 C 50 % 15.51 C
1905 05-09-2018 14:40:00 27 C 48 % 15.05 C
1906 05-09-2018 14:45:00 27.2 C 47 % 14.91 C
1907 05-09-2018 14:50:00 27.3 C 47 % 15 C
1908 05-09-2018 14:55:00 27.3 C 47 % 15 C
1909 05-09-2018 15:00:00 27.3 C 48 % 15.33 C
1910 05-09-2018 15:05:00 27.4 C 48 % 15.42 C
1911 05-09-2018 15:10:00 27.4 C 47 % 15.09 C
1912 05-09-2018 15:15:00 27.4 C 47 % 15.09 C
1913 05-09-2018 15:20:00 27.5 C 48 % 15.51 C
1914 05-09-2018 15:25:00 27.6 C 47 % 15.27 C
1915 05-09-2018 15:30:00 27.6 C 46 % 14.94 C
1916 05-09-2018 15:35:00 27.5 C 47 % 15.18 C
1917 05-09-2018 15:40:00 27.5 C 49 % 15.83 C
1918 05-09-2018 15:45:00 27.4 C 48 % 15.42 C
1919 05-09-2018 15:50:00 27.4 C 48 % 15.42 C
1920 05-09-2018 15:55:00 27.4 C 50 % 16.06 C
1921 05-09-2018 16:00:00 27.3 C 48 % 15.33 C
1922 05-09-2018 16:05:00 27.3 C 52 % 16.58 C
1923 05-09-2018 16:10:00 27.4 C 50 % 16.06 C
1924 05-09-2018 16:15:00 27.5 C 46 % 14.85 C
1925 05-09-2018 16:20:00 27.8 C 46 % 15.12 C
Sensor: Nr:Datum:Temp:Feuchte:Taupunkt:
Aussen-T/F 1926 05-09-2018 16:25:00 28 C 44 % 14.61 C
1927 05-09-2018 16:30:00 28.2 C 44 % 14.79 C
1928 05-09-2018 16:35:00 28.4 C 43 % 14.62 C
1929 05-09-2018 16:40:00 28.6 C 43 % 14.8 C
1930 05-09-2018 16:45:00 28.8 C 45 % 15.68 C
1931 05-09-2018 16:50:00 29.1 C 43 % 15.24 C
1932 05-09-2018 16:55:00 29.2 C 43 % 15.33 C
1933 05-09-2018 17:00:00 29.2 C 42 % 14.97 C
1934 05-09-2018 17:05:00 29.3 C 41 % 14.68 C
1935 05-09-2018 17:10:00 29.2 C 41 % 14.59 C
1936 05-09-2018 17:15:00 28.9 C 41 % 14.33 C
1937 05-09-2018 17:20:00 28.7 C 43 % 14.88 C
1938 05-09-2018 17:25:00 28.5 C 43 % 14.71 C
1939 05-09-2018 17:30:00 28.4 C 44 % 14.97 C
1940 05-09-2018 17:35:00 28.3 C 50 % 16.88 C
1941 05-09-2018 17:40:00 28.1 C 50 % 16.7 C
1942 05-09-2018 17:45:00 27.9 C 50 % 16.51 C
1943 05-09-2018 17:50:00 27.6 C 50 % 16.24 C
1944 05-09-2018 17:55:00 27.3 C 52 % 16.58 C
1945 05-09-2018 18:00:00 27.1 C 52 % 16.4 C
1946 05-09-2018 18:05:00 26.8 C 52 % 16.12 C
1947 05-09-2018 18:10:00 26.6 C 53 % 16.23 C
1948 05-09-2018 18:15:00 26.4 C 53 % 16.05 C
1949 05-09-2018 18:20:00 26.3 C 54 % 16.25 C
1950 05-09-2018 18:25:00 26.3 C 55 % 16.54 C
Sensor: Nr:Datum:Temp:Feuchte:Taupunkt:
Aussen-T/F 1951 05-09-2018 18:30:00 26.2 C 55 % 16.45 C
1952 05-09-2018 18:35:00 26.2 C 56 % 16.73 C
1953 05-09-2018 18:40:00 26.2 C 55 % 16.45 C
1954 05-09-2018 18:45:00 26.1 C 56 % 16.64 C
1955 05-09-2018 18:50:00 26 C 56 % 16.54 C
1956 05-09-2018 18:55:00 25.8 C 56 % 16.36 C
1957 05-09-2018 19:00:00 25.7 C 56 % 16.26 C
1958 05-09-2018 19:05:00 25.4 C 57 % 16.26 C
1959 05-09-2018 19:10:00 25.2 C 58 % 16.35 C
1960 05-09-2018 19:15:00 25 C 57 % 15.89 C
1961 05-09-2018 19:20:00 24.8 C 57 % 15.7 C
1962 05-09-2018 19:25:00 24.6 C 57 % 15.52 C
1963 05-09-2018 19:30:00 24.3 C 58 % 15.51 C
1964 05-09-2018 19:35:00 24.1 C 58 % 15.32 C
1965 05-09-2018 19:40:00 23.9 C 60 % 15.66 C
1966 05-09-2018 19:45:00 23.6 C 60 % 15.38 C
1967 05-09-2018 19:50:00 23.4 C 62 % 15.71 C
1968 05-09-2018 19:55:00 23.2 C 63 % 15.77 C
1969 05-09-2018 20:00:00 22.9 C 63 % 15.48 C
1970 05-09-2018 20:05:00 22.8 C 64 % 15.64 C
1971 05-09-2018 20:10:00 22.7 C 64 % 15.54 C
1972 05-09-2018 20:15:00 22.7 C 66 % 16.02 C
1973 05-09-2018 20:20:00 22.6 C 66 % 15.93 C
1974 05-09-2018 20:25:00 22.6 C 66 % 15.93 C
1975 05-09-2018 20:30:00 22.6 C 65 % 15.69 C
Sensor: Nr:Datum:Temp:Feuchte:Taupunkt:
Aussen-T/F 1976 05-09-2018 20:35:00 22.7 C 65 % 15.78 C
1977 05-09-2018 20:40:00 22.7 C 64 % 15.54 C
1978 05-09-2018 20:45:00 22.9 C 64 % 15.73 C
1979 05-09-2018 20:50:00 23 C 64 % 15.82 C
1980 05-09-2018 20:55:00 23.1 C 65 % 16.16 C
1981 05-09-2018 21:00:00 22.9 C 64 % 15.73 C
1982 05-09-2018 21:05:00 22.8 C 65 % 15.88 C
1983 05-09-2018 21:10:00 22.7 C 65 % 15.78 C
1984 05-09-2018 21:15:00 22.5 C 66 % 15.83 C
1985 05-09-2018 21:20:00 22.3 C 66 % 15.64 C
1986 05-09-2018 21:25:00 22.1 C 66 % 15.45 C
1987 05-09-2018 21:30:00 21.9 C 67 % 15.5 C
1988 05-09-2018 21:35:00 21.7 C 68 % 15.54 C
1989 05-09-2018 21:40:00 21.5 C 68 % 15.35 C
1990 05-09-2018 21:45:00 21.3 C 69 % 15.38 C
1991 05-09-2018 21:50:00 21.1 C 69 % 15.19 C
1992 05-09-2018 21:55:00 21 C 70 % 15.32 C
1993 05-09-2018 22:00:00 20.8 C 71 % 15.35 C
1994 05-09-2018 22:05:00 20.7 C 71 % 15.25 C
1995 05-09-2018 22:10:00 20.6 C 71 % 15.16 C
1996 05-09-2018 22:15:00 20.5 C 71 % 15.06 C
1997 05-09-2018 22:20:00 20.4 C 72 % 15.18 C
1998 05-09-2018 22:25:00 20.3 C 72 % 15.09 C
1999 05-09-2018 22:30:00 20.2 C 72 % 14.99 C
2000 05-09-2018 22:35:00 20.1 C 73 % 15.11 C
Sensor: Nr:Datum:Temp:Feuchte:Taupunkt:
Aussen-T/F 2001 05-09-2018 22:40:00 19.9 C 73 % 14.92 C
2002 05-09-2018 22:45:00 19.7 C 74 % 14.94 C
2003 05-09-2018 22:50:00 19.5 C 75 % 14.95 C
2004 05-09-2018 22:55:00 19.3 C 75 % 14.76 C
2005 05-09-2018 23:00:00 19.1 C 76 % 14.77 C
2006 05-09-2018 23:05:00 18.8 C 77 % 14.68 C
2007 05-09-2018 23:10:00 18.7 C 78 % 14.79 C
2008 05-09-2018 23:15:00 18.6 C 78 % 14.69 C
2009 05-09-2018 23:20:00 18.4 C 79 % 14.69 C
2010 05-09-2018 23:25:00 18.3 C 79 % 14.6 C
2011 05-09-2018 23:30:00 18.2 C 79 % 14.5 C
2012 05-09-2018 23:35:00 18.2 C 80 % 14.69 C
2013 05-09-2018 23:40:00 18.1 C 80 % 14.6 C
2014 05-09-2018 23:45:00 17.9 C 80 % 14.4 C
2015 05-09-2018 23:50:00 17.9 C 81 % 14.59 C
2016 05-09-2018 23:55:00 17.8 C 81 % 14.5 C
2017 06-09-2018 00:00:00 17.7 C 82 % 14.59 C
2018 06-09-2018 00:05:00 17.7 C 82 % 14.59 C
2019 06-09-2018 00:10:00 17.6 C 82 % 14.49 C
2020 06-09-2018 00:15:00 17.5 C 83 % 14.58 C
2021 06-09-2018 00:20:00 17.4 C 83 % 14.48 C
2022 06-09-2018 00:25:00 17.3 C 83 % 14.39 C
2023 06-09-2018 00:30:00 17.2 C 84 % 14.47 C
2024 06-09-2018 00:35:00 17.1 C 84 % 14.38 C
2025 06-09-2018 00:40:00 17 C 84 % 14.28 C
Sensor: Nr:Datum:Temp:Feuchte:Taupunkt:
Aussen-T/F 2026 06-09-2018 00:45:00 16.9 C 84 % 14.18 C
2027 06-09-2018 00:50:00 16.8 C 85 % 14.26 C
2028 06-09-2018 00:55:00 16.8 C 85 % 14.26 C
2029 06-09-2018 01:00:00 16.7 C 85 % 14.17 C
2030 06-09-2018 01:05:00 16.7 C 86 % 14.35 C
2031 06-09-2018 01:10:00 16.6 C 86 % 14.25 C
2032 06-09-2018 01:15:00 16.5 C 86 % 14.15 C
2033 06-09-2018 01:20:00 16.4 C 87 % 14.23 C
2034 06-09-2018 01:25:00 16.4 C 87 % 14.23 C
2035 06-09-2018 01:30:00 16.3 C 87 % 14.13 C
2036 06-09-2018 01:35:00 16.3 C 87 % 14.13 C
2037 06-09-2018 01:40:00 16.2 C 87 % 14.03 C
2038 06-09-2018 01:45:00 16.2 C 88 % 14.21 C
2039 06-09-2018 01:50:00 16.2 C 88 % 14.21 C
2040 06-09-2018 01:55:00 16.2 C 88 % 14.21 C
2041 06-09-2018 02:00:00 16.1 C 88 % 14.11 C
2042 06-09-2018 02:05:00 16.1 C 88 % 14.11 C
2043 06-09-2018 02:10:00 15.9 C 88 % 13.92 C
2044 06-09-2018 02:15:00 15.9 C 88 % 13.92 C
2045 06-09-2018 02:20:00 15.8 C 89 % 13.99 C
2046 06-09-2018 02:25:00 15.8 C 89 % 13.99 C
2047 06-09-2018 02:30:00 15.8 C 89 % 13.99 C
2048 06-09-2018 02:35:00 15.8 C 90 % 14.16 C
2049 06-09-2018 02:40:00 15.8 C 90 % 14.16 C
2050 06-09-2018 02:45:00 15.8 C 90 % 14.16 C
Sensor: Nr:Datum:Temp:Feuchte:Taupunkt:
Aussen-T/F 2051 06-09-2018 02:50:00 15.7 C 89 % 13.89 C
2052 06-09-2018 02:55:00 15.6 C 89 % 13.79 C
2053 06-09-2018 03:00:00 15.6 C 90 % 13.97 C
2054 06-09-2018 03:05:00 15.5 C 90 % 13.87 C
2055 06-09-2018 03:10:00 15.4 C 90 % 13.77 C
2056 06-09-2018 03:15:00 15.4 C 90 % 13.77 C
2057 06-09-2018 03:20:00 15.4 C 91 % 13.94 C
2058 06-09-2018 03:25:00 15.4 C 91 % 13.94 C
2059 06-09-2018 03:30:00 15.3 C 91 % 13.84 C
2060 06-09-2018 03:35:00 15.3 C 91 % 13.84 C
2061 06-09-2018 03:40:00 15.2 C 91 % 13.74 C
2062 06-09-2018 03:45:00 15.2 C 91 % 13.74 C
2063 06-09-2018 03:50:00 15.2 C 91 % 13.74 C
2064 06-09-2018 03:55:00 15.2 C 92 % 13.91 C
2065 06-09-2018 04:00:00 15.2 C 92 % 13.91 C
2066 06-09-2018 04:05:00 15.2 C 92 % 13.91 C
2067 06-09-2018 04:10:00 15.2 C 92 % 13.91 C
2068 06-09-2018 04:15:00 15.4 C 93 % 14.27 C
2069 06-09-2018 04:20:00 15.7 C 93 % 14.57 C
2070 06-09-2018 04:25:00 15.8 C 93 % 14.67 C
2071 06-09-2018 04:30:00 15.8 C 93 % 14.67 C
2072 06-09-2018 04:35:00 15.8 C 92 % 14.5 C
2073 06-09-2018 04:40:00 15.8 C 92 % 14.5 C
2074 06-09-2018 04:45:00 15.8 C 92 % 14.5 C
2075 06-09-2018 04:50:00 15.7 C 92 % 14.4 C
Sensor: Nr:Datum:Temp:Feuchte:Taupunkt:
Aussen-T/F 2076 06-09-2018 04:55:00 15.7 C 92 % 14.4 C
2077 06-09-2018 05:00:00 15.6 C 92 % 14.31 C
2078 06-09-2018 05:05:00 15.5 C 92 % 14.21 C
2079 06-09-2018 05:10:00 15.4 C 92 % 14.11 C
2080 06-09-2018 05:15:00 15.3 C 92 % 14.01 C
2081 06-09-2018 05:20:00 15.3 C 92 % 14.01 C
2082 06-09-2018 05:25:00 15.2 C 92 % 13.91 C
2083 06-09-2018 05:30:00 15.3 C 92 % 14.01 C
2084 06-09-2018 05:35:00 15.2 C 93 % 14.08 C
2085 06-09-2018 05:40:00 15.2 C 93 % 14.08 C
2086 06-09-2018 05:45:00 15.2 C 92 % 13.91 C
2087 06-09-2018 05:50:00 15.1 C 92 % 13.81 C
2088 06-09-2018 05:55:00 15 C 92 % 13.71 C
2089 06-09-2018 06:00:00 15 C 92 % 13.71 C
2090 06-09-2018 06:05:00 15 C 93 % 13.88 C
2091 06-09-2018 06:10:00 15.1 C 93 % 13.98 C
2092 06-09-2018 06:15:00 15.2 C 93 % 14.08 C
2093 06-09-2018 06:20:00 15.3 C 94 % 14.34 C
2094 06-09-2018 06:25:00 15.3 C 94 % 14.34 C
2095 06-09-2018 06:30:00 15.4 C 94 % 14.44 C
2096 06-09-2018 06:35:00 15.4 C 94 % 14.44 C
2097 06-09-2018 06:40:00 15.4 C 93 % 14.27 C
2098 06-09-2018 06:45:00 15.5 C 94 % 14.54 C
2099 06-09-2018 06:50:00 15.5 C 94 % 14.54 C
2100 06-09-2018 06:55:00 15.6 C 94 % 14.64 C
Sensor: Nr:Datum:Temp:Feuchte:Taupunkt:
Aussen-T/F 2101 06-09-2018 07:00:00 15.6 C 94 % 14.64 C
2102 06-09-2018 07:05:00 15.7 C 94 % 14.74 C
2103 06-09-2018 07:10:00 15.7 C 94 % 14.74 C
2104 06-09-2018 07:15:00 15.8 C 94 % 14.84 C
2105 06-09-2018 07:20:00 15.9 C 94 % 14.94 C
2106 06-09-2018 07:25:00 16.1 C 94 % 15.13 C
2107 06-09-2018 07:30:00 16.1 C 94 % 15.13 C
2108 06-09-2018 07:35:00 16.1 C 94 % 15.13 C
2109 06-09-2018 07:40:00 16.2 C 94 % 15.23 C
2110 06-09-2018 07:45:00 16.2 C 94 % 15.23 C
2111 06-09-2018 07:50:00 16.2 C 94 % 15.23 C
2112 06-09-2018 07:55:00 16.2 C 94 % 15.23 C
2113 06-09-2018 08:00:00 16.3 C 94 % 15.33 C
2114 06-09-2018 08:05:00 16.3 C 94 % 15.33 C
2115 06-09-2018 08:10:00 16.5 C 95 % 15.7 C
2116 06-09-2018 08:15:00 16.6 C 94 % 15.63 C
2117 06-09-2018 08:20:00 16.7 C 95 % 15.9 C
2118 06-09-2018 08:25:00 16.8 C 95 % 15.99 C
2119 06-09-2018 08:30:00 16.9 C 95 % 16.09 C
2120 06-09-2018 08:35:00 17.1 C 95 % 16.29 C
2121 06-09-2018 08:40:00 17.2 C 95 % 16.39 C
2122 06-09-2018 08:45:00 17.2 C 95 % 16.39 C
2123 06-09-2018 08:50:00 17.3 C 95 % 16.49 C
2124 06-09-2018 08:55:00 17.4 C 95 % 16.59 C
2125 06-09-2018 09:00:00 17.5 C 95 % 16.69 C
Sensor: Nr:Datum:Temp:Feuchte:Taupunkt:
Aussen-T/F 2126 06-09-2018 09:05:00 17.6 C 95 % 16.79 C
2127 06-09-2018 09:10:00 17.6 C 95 % 16.79 C
2128 06-09-2018 09:15:00 17.7 C 95 % 16.89 C
2129 06-09-2018 09:20:00 17.8 C 95 % 16.99 C
2130 06-09-2018 09:25:00 17.9 C 95 % 17.09 C
2131 06-09-2018 09:30:00 17.9 C 95 % 17.09 C
2132 06-09-2018 09:35:00 18 C 94 % 17.02 C
2133 06-09-2018 09:40:00 18.1 C 94 % 17.12 C
2134 06-09-2018 09:45:00 18.2 C 94 % 17.22 C
2135 06-09-2018 09:50:00 18.3 C 94 % 17.32 C
2136 06-09-2018 09:55:00 18.4 C 94 % 17.42 C
2137 06-09-2018 10:00:00 18.4 C 93 % 17.25 C
2138 06-09-2018 10:05:00 18.4 C 93 % 17.25 C
2139 06-09-2018 10:10:00 18.6 C 93 % 17.45 C
2140 06-09-2018 10:15:00 18.5 C 91 % 17 C
2141 06-09-2018 10:20:00 18.6 C 90 % 16.93 C
2142 06-09-2018 10:25:00 18.7 C 90 % 17.03 C
2143 06-09-2018 10:30:00 18.8 C 90 % 17.12 C
2144 06-09-2018 10:35:00 18.9 C 88 % 16.87 C
2145 06-09-2018 10:40:00 19 C 87 % 16.79 C
2146 06-09-2018 10:45:00 19.1 C 87 % 16.89 C
2147 06-09-2018 10:50:00 19.2 C 87 % 16.98 C
2148 06-09-2018 10:55:00 19.3 C 86 % 16.9 C
2149 06-09-2018 11:00:00 19.4 C 85 % 16.81 C
2150 06-09-2018 11:05:00 19.6 C 84 % 16.82 C
Sensor: Nr:Datum:Temp:Feuchte:Taupunkt:
Aussen-T/F 2151 06-09-2018 11:10:00 19.7 C 83 % 16.73 C
2152 06-09-2018 11:15:00 19.8 C 84 % 17.02 C
2153 06-09-2018 11:20:00 19.9 C 83 % 16.93 C
2154 06-09-2018 11:25:00 19.9 C 82 % 16.74 C
2155 06-09-2018 11:30:00 19.9 C 82 % 16.74 C
2156 06-09-2018 11:35:00 20 C 82 % 16.83 C
2157 06-09-2018 11:40:00 20.1 C 82 % 16.93 C
2158 06-09-2018 11:45:00 20.3 C 82 % 17.13 C
2159 06-09-2018 11:50:00 20.4 C 83 % 17.42 C
2160 06-09-2018 11:55:00 20.7 C 81 % 17.32 C
2161 06-09-2018 12:00:00 20.8 C 80 % 17.22 C
2162 06-09-2018 12:05:00 20.8 C 80 % 17.22 C
2163 06-09-2018 12:10:00 20.8 C 79 % 17.02 C
2164 06-09-2018 12:15:00 20.7 C 79 % 16.93 C
2165 06-09-2018 12:20:00 20.6 C 80 % 17.03 C
2166 06-09-2018 12:25:00 20.6 C 82 % 17.42 C
2167 06-09-2018 12:30:00 20.4 C 82 % 17.22 C
2168 06-09-2018 12:35:00 20.4 C 83 % 17.42 C
2169 06-09-2018 12:40:00 20.6 C 84 % 17.8 C
2170 06-09-2018 12:45:00 20.6 C 83 % 17.61 C
2171 06-09-2018 12:50:00 20.6 C 83 % 17.61 C
2172 06-09-2018 12:55:00 20.7 C 84 % 17.9 C
2173 06-09-2018 13:00:00 20.8 C 82 % 17.61 C
2174 06-09-2018 13:05:00 20.8 C 81 % 17.42 C
2175 06-09-2018 13:10:00 20.9 C 81 % 17.52 C
Sensor: Nr:Datum:Temp:Feuchte:Taupunkt:
Aussen-T/F 2176 06-09-2018 13:15:00 20.8 C 82 % 17.61 C
2177 06-09-2018 13:20:00 20.8 C 82 % 17.61 C
2178 06-09-2018 13:25:00 20.8 C 82 % 17.61 C
2179 06-09-2018 13:30:00 20.8 C 81 % 17.42 C
2180 06-09-2018 13:35:00 20.8 C 82 % 17.61 C
2181 06-09-2018 13:40:00 20.8 C 82 % 17.61 C
2182 06-09-2018 13:45:00 20.7 C 82 % 17.52 C
2183 06-09-2018 13:50:00 20.7 C 82 % 17.52 C
2184 06-09-2018 13:55:00 20.8 C 81 % 17.42 C
2185 06-09-2018 14:00:00 20.9 C 81 % 17.52 C
2186 06-09-2018 14:05:00 21.1 C 80 % 17.51 C
2187 06-09-2018 14:10:00 21.1 C 80 % 17.51 C
2188 06-09-2018 14:15:00 21.1 C 80 % 17.51 C
2189 06-09-2018 14:20:00 21.2 C 79 % 17.41 C
2190 06-09-2018 14:25:00 21.2 C 79 % 17.41 C
2191 06-09-2018 14:30:00 21.3 C 77 % 17.1 C
2192 06-09-2018 14:35:00 21.5 C 77 % 17.3 C
2193 06-09-2018 14:40:00 21.6 C 76 % 17.19 C
2194 06-09-2018 14:45:00 21.7 C 76 % 17.28 C
2195 06-09-2018 14:50:00 21.7 C 75 % 17.07 C
2196 06-09-2018 14:55:00 21.8 C 75 % 17.17 C
2197 06-09-2018 15:00:00 21.8 C 75 % 17.17 C
2198 06-09-2018 15:05:00 21.8 C 75 % 17.17 C
2199 06-09-2018 15:10:00 21.8 C 76 % 17.38 C
2200 06-09-2018 15:15:00 21.8 C 75 % 17.17 C
Sensor: Nr:Datum:Temp:Feuchte:Taupunkt:
Aussen-T/F 2201 06-09-2018 15:20:00 21.7 C 76 % 17.28 C
2202 06-09-2018 15:25:00 21.6 C 76 % 17.19 C
2203 06-09-2018 15:30:00 21.5 C 76 % 17.09 C
2204 06-09-2018 15:35:00 21.4 C 77 % 17.2 C
2205 06-09-2018 15:40:00 21.4 C 77 % 17.2 C
2206 06-09-2018 15:45:00 21.3 C 76 % 16.9 C
2207 06-09-2018 15:50:00 21.3 C 77 % 17.1 C
2208 06-09-2018 15:55:00 21.2 C 76 % 16.8 C
2209 06-09-2018 16:00:00 21.2 C 77 % 17.01 C
2210 06-09-2018 16:05:00 21.1 C 77 % 16.91 C
2211 06-09-2018 16:10:00 21.1 C 77 % 16.91 C
2212 06-09-2018 16:15:00 21.1 C 78 % 17.11 C
2213 06-09-2018 16:20:00 21.1 C 77 % 16.91 C
2214 06-09-2018 16:25:00 21.1 C 76 % 16.7 C
2215 06-09-2018 16:30:00 21.1 C 76 % 16.7 C
2216 06-09-2018 16:35:00 21.2 C 76 % 16.8 C
2217 06-09-2018 16:40:00 21.2 C 77 % 17.01 C
2218 06-09-2018 16:45:00 21.3 C 78 % 17.31 C
2219 06-09-2018 16:50:00 21.3 C 78 % 17.31 C
2220 06-09-2018 16:55:00 21.3 C 78 % 17.31 C
2221 06-09-2018 17:00:00 21.3 C 76 % 16.9 C
2222 06-09-2018 17:05:00 21.3 C 76 % 16.9 C
2223 06-09-2018 17:10:00 21.3 C 77 % 17.1 C
2224 06-09-2018 17:15:00 21.3 C 77 % 17.1 C
2225 06-09-2018 17:20:00 21.3 C 77 % 17.1 C
Sensor: Nr:Datum:Temp:Feuchte:Taupunkt:
Aussen-T/F 2226 06-09-2018 17:25:00 21.3 C 77 % 17.1 C
2227 06-09-2018 17:30:00 21.3 C 76 % 16.9 C
2228 06-09-2018 17:35:00 21.3 C 76 % 16.9 C
2229 06-09-2018 17:40:00 21.2 C 76 % 16.8 C
2230 06-09-2018 17:45:00 21.2 C 77 % 17.01 C
2231 06-09-2018 17:50:00 21.1 C 79 % 17.32 C
2232 06-09-2018 17:55:00 20.9 C 80 % 17.32 C
2233 06-09-2018 18:00:00 20.8 C 81 % 17.42 C
2234 06-09-2018 18:05:00 20.6 C 81 % 17.22 C
2235 06-09-2018 18:10:00 20.4 C 82 % 17.22 C
2236 06-09-2018 18:15:00 20.3 C 82 % 17.13 C
2237 06-09-2018 18:20:00 20.2 C 83 % 17.22 C
2238 06-09-2018 18:25:00 20.1 C 84 % 17.31 C
2239 06-09-2018 18:30:00 20 C 85 % 17.4 C
2240 06-09-2018 18:35:00 19.8 C 86 % 17.39 C
2241 06-09-2018 18:40:00 19.6 C 86 % 17.19 C
2242 06-09-2018 18:45:00 19.4 C 87 % 17.18 C
2243 06-09-2018 18:50:00 19.2 C 88 % 17.16 C
2244 06-09-2018 18:55:00 19.1 C 88 % 17.07 C
2245 06-09-2018 19:00:00 18.9 C 89 % 17.05 C
2246 06-09-2018 19:05:00 18.8 C 90 % 17.12 C
2247 06-09-2018 19:10:00 18.7 C 90 % 17.03 C
2248 06-09-2018 19:15:00 18.7 C 91 % 17.2 C
2249 06-09-2018 19:20:00 18.7 C 91 % 17.2 C
2250 06-09-2018 19:25:00 18.6 C 91 % 17.1 C
Sensor: Nr:Datum:Temp:Feuchte:Taupunkt:
Aussen-T/F 2251 06-09-2018 19:30:00 18.5 C 91 % 17 C
2252 06-09-2018 19:35:00 18.4 C 91 % 16.9 C
2253 06-09-2018 19:40:00 18.4 C 92 % 17.08 C
2254 06-09-2018 19:45:00 18.3 C 92 % 16.98 C
2255 06-09-2018 19:50:00 18.3 C 92 % 16.98 C
2256 06-09-2018 19:55:00 18.3 C 92 % 16.98 C
2257 06-09-2018 20:00:00 18.2 C 92 % 16.88 C
2258 06-09-2018 20:05:00 18.1 C 92 % 16.78 C
2259 06-09-2018 20:10:00 18.1 C 92 % 16.78 C
2260 06-09-2018 20:15:00 18.1 C 92 % 16.78 C
2261 06-09-2018 20:20:00 18 C 92 % 16.68 C
2262 06-09-2018 20:25:00 17.9 C 92 % 16.58 C
2263 06-09-2018 20:30:00 17.9 C 93 % 16.75 C
2264 06-09-2018 20:35:00 17.8 C 93 % 16.65 C
2265 06-09-2018 20:40:00 17.8 C 93 % 16.65 C
2266 06-09-2018 20:45:00 17.8 C 93 % 16.65 C
2267 06-09-2018 20:50:00 17.7 C 93 % 16.55 C
2268 06-09-2018 20:55:00 17.7 C 93 % 16.55 C
2269 06-09-2018 21:00:00 17.7 C 94 % 16.72 C
2270 06-09-2018 21:05:00 17.7 C 93 % 16.55 C
2271 06-09-2018 21:10:00 17.6 C 93 % 16.45 C
2272 06-09-2018 21:15:00 17.6 C 94 % 16.62 C
2273 06-09-2018 21:20:00 17.5 C 94 % 16.52 C
2274 06-09-2018 21:25:00 17.4 C 94 % 16.42 C
2275 06-09-2018 21:30:00 17.3 C 93 % 16.16 C
Sensor: Nr:Datum:Temp:Feuchte:Taupunkt:
Aussen-T/F 2276 06-09-2018 21:35:00 17.2 C 93 % 16.06 C
2277 06-09-2018 21:40:00 17.2 C 94 % 16.23 C
2278 06-09-2018 21:45:00 17.1 C 94 % 16.13 C
2279 06-09-2018 21:50:00 17.1 C 94 % 16.13 C
2280 06-09-2018 21:55:00 17 C 94 % 16.03 C
2281 06-09-2018 22:00:00 16.9 C 94 % 15.93 C
2282 06-09-2018 22:05:00 16.9 C 94 % 15.93 C
2283 06-09-2018 22:10:00 16.8 C 94 % 15.83 C
2284 06-09-2018 22:15:00 16.8 C 94 % 15.83 C
2285 06-09-2018 22:20:00 16.7 C 94 % 15.73 C
2286 06-09-2018 22:25:00 16.6 C 94 % 15.63 C
2287 06-09-2018 22:30:00 16.6 C 94 % 15.63 C
2288 06-09-2018 22:35:00 16.4 C 94 % 15.43 C
2289 06-09-2018 22:40:00 16.3 C 94 % 15.33 C
2290 06-09-2018 22:45:00 16.3 C 94 % 15.33 C
2291 06-09-2018 22:50:00 16.2 C 94 % 15.23 C
2292 06-09-2018 22:55:00 16.2 C 94 % 15.23 C
2293 06-09-2018 23:00:00 16.1 C 94 % 15.13 C
2294 06-09-2018 23:05:00 16.1 C 94 % 15.13 C
2295 06-09-2018 23:10:00 16 C 94 % 15.03 C
2296 06-09-2018 23:15:00 15.9 C 94 % 14.94 C
2297 06-09-2018 23:20:00 15.9 C 94 % 14.94 C
2298 06-09-2018 23:25:00 15.9 C 94 % 14.94 C
2299 06-09-2018 23:30:00 16 C 95 % 15.2 C
2300 06-09-2018 23:35:00 16.1 C 95 % 15.3 C
Sensor: Nr:Datum:Temp:Feuchte:Taupunkt:
Aussen-T/F 2301 06-09-2018 23:40:00 16.1 C 95 % 15.3 C
2302 06-09-2018 23:45:00 16.2 C 95 % 15.4 C
2303 06-09-2018 23:50:00 16.2 C 95 % 15.4 C
2304 06-09-2018 23:55:00 16.3 C 95 % 15.5 C
2305 07-09-2018 00:00:00 16.3 C 95 % 15.5 C
2306 07-09-2018 00:05:00 16.3 C 95 % 15.5 C
2307 07-09-2018 00:10:00 16.3 C 95 % 15.5 C
2308 07-09-2018 00:15:00 16.2 C 95 % 15.4 C
2309 07-09-2018 00:20:00 16.2 C 95 % 15.4 C
2310 07-09-2018 00:25:00 16.2 C 95 % 15.4 C
2311 07-09-2018 00:30:00 16.2 C 95 % 15.4 C
2312 07-09-2018 00:35:00 16.1 C 95 % 15.3 C
2313 07-09-2018 00:40:00 16.1 C 95 % 15.3 C
2314 07-09-2018 00:45:00 16.1 C 95 % 15.3 C
2315 07-09-2018 00:50:00 16.1 C 95 % 15.3 C
2316 07-09-2018 00:55:00 16.2 C 95 % 15.4 C
2317 07-09-2018 01:00:00 16.1 C 95 % 15.3 C
2318 07-09-2018 01:05:00 16.1 C 95 % 15.3 C
2319 07-09-2018 01:10:00 16.1 C 95 % 15.3 C
2320 07-09-2018 01:15:00 16.1 C 95 % 15.3 C
2321 07-09-2018 01:20:00 16.2 C 95 % 15.4 C
2322 07-09-2018 01:25:00 16.2 C 95 % 15.4 C
2323 07-09-2018 01:30:00 16.2 C 95 % 15.4 C
2324 07-09-2018 01:35:00 16.1 C 95 % 15.3 C
2325 07-09-2018 01:40:00 15.9 C 95 % 15.1 C
Sensor: Nr:Datum:Temp:Feuchte:Taupunkt:
Aussen-T/F 2326 07-09-2018 01:45:00 15.8 C 95 % 15 C
2327 07-09-2018 01:50:00 15.7 C 95 % 14.9 C
2328 07-09-2018 01:55:00 15.6 C 95 % 14.8 C
2329 07-09-2018 02:00:00 15.5 C 95 % 14.7 C
2330 07-09-2018 02:05:00 15.4 C 95 % 14.6 C
2331 07-09-2018 02:10:00 15.4 C 95 % 14.6 C
2332 07-09-2018 02:15:00 15.4 C 95 % 14.6 C
2333 07-09-2018 02:20:00 15.4 C 95 % 14.6 C
2334 07-09-2018 02:25:00 15.4 C 95 % 14.6 C
2335 07-09-2018 02:30:00 15.4 C 95 % 14.6 C
2336 07-09-2018 02:35:00 15.4 C 95 % 14.6 C
2337 07-09-2018 02:40:00 15.4 C 95 % 14.6 C
2338 07-09-2018 02:45:00 15.4 C 95 % 14.6 C
2339 07-09-2018 02:50:00 15.4 C 95 % 14.6 C
2340 07-09-2018 02:55:00 15.4 C 95 % 14.6 C
2341 07-09-2018 03:00:00 15.4 C 95 % 14.6 C
2342 07-09-2018 03:05:00 15.4 C 95 % 14.6 C
2343 07-09-2018 03:10:00 15.4 C 95 % 14.6 C
2344 07-09-2018 03:15:00 15.4 C 95 % 14.6 C
2345 07-09-2018 03:20:00 15.4 C 95 % 14.6 C
2346 07-09-2018 03:25:00 15.4 C 95 % 14.6 C
2347 07-09-2018 03:30:00 15.4 C 96 % 14.77 C
2348 07-09-2018 03:35:00 15.4 C 96 % 14.77 C
2349 07-09-2018 03:40:00 15.4 C 95 % 14.6 C
2350 07-09-2018 03:45:00 15.4 C 95 % 14.6 C
Sensor: Nr:Datum:Temp:Feuchte:Taupunkt:
Aussen-T/F 2351 07-09-2018 03:50:00 15.4 C 95 % 14.6 C
2352 07-09-2018 03:55:00 15.3 C 95 % 14.5 C
2353 07-09-2018 04:00:00 15.3 C 95 % 14.5 C
2354 07-09-2018 04:05:00 15.3 C 95 % 14.5 C
2355 07-09-2018 04:10:00 15.3 C 95 % 14.5 C
2356 07-09-2018 04:15:00 15.3 C 95 % 14.5 C
2357 07-09-2018 04:20:00 15.3 C 95 % 14.5 C
2358 07-09-2018 04:25:00 15.2 C 95 % 14.4 C
2359 07-09-2018 04:30:00 15.2 C 95 % 14.4 C
2360 07-09-2018 04:35:00 15.2 C 95 % 14.4 C
2361 07-09-2018 04:40:00 15.3 C 95 % 14.5 C
2362 07-09-2018 04:45:00 15.3 C 95 % 14.5 C
2363 07-09-2018 04:50:00 15.3 C 95 % 14.5 C
2364 07-09-2018 04:55:00 15.3 C 95 % 14.5 C
2365 07-09-2018 05:00:00 15.3 C 95 % 14.5 C
2366 07-09-2018 05:05:00 15.3 C 95 % 14.5 C
2367 07-09-2018 05:10:00 15.3 C 95 % 14.5 C
2368 07-09-2018 05:15:00 15.3 C 95 % 14.5 C
2369 07-09-2018 05:20:00 15.3 C 95 % 14.5 C
2370 07-09-2018 05:25:00 15.3 C 95 % 14.5 C
2371 07-09-2018 05:30:00 15.3 C 95 % 14.5 C
2372 07-09-2018 05:35:00 15.3 C 95 % 14.5 C
2373 07-09-2018 05:40:00 15.3 C 95 % 14.5 C
2374 07-09-2018 05:45:00 15.3 C 95 % 14.5 C
2375 07-09-2018 05:50:00 15.2 C 95 % 14.4 C
Sensor: Nr:Datum:Temp:Feuchte:Taupunkt:
Aussen-T/F 2376 07-09-2018 05:55:00 14.9 C 95 % 14.11 C
2377 07-09-2018 06:00:00 14.7 C 94 % 13.74 C
2378 07-09-2018 06:05:00 14.6 C 94 % 13.65 C
2379 07-09-2018 06:10:00 14.4 C 94 % 13.45 C
2380 07-09-2018 06:15:00 14.3 C 95 % 13.51 C
2381 07-09-2018 06:20:00 14.2 C 95 % 13.41 C
2382 07-09-2018 06:25:00 14.1 C 94 % 13.15 C
2383 07-09-2018 06:30:00 13.9 C 94 % 12.95 C
2384 07-09-2018 06:35:00 13.8 C 94 % 12.85 C
2385 07-09-2018 06:40:00 13.7 C 94 % 12.75 C
2386 07-09-2018 06:45:00 13.7 C 95 % 12.91 C
2387 07-09-2018 06:50:00 13.7 C 95 % 12.91 C
2388 07-09-2018 06:55:00 13.7 C 95 % 12.91 C
2389 07-09-2018 07:00:00 13.7 C 95 % 12.91 C
2390 07-09-2018 07:05:00 13.7 C 95 % 12.91 C
2391 07-09-2018 07:10:00 13.7 C 95 % 12.91 C
2392 07-09-2018 07:15:00 13.7 C 95 % 12.91 C
2393 07-09-2018 07:20:00 13.8 C 95 % 13.01 C
2394 07-09-2018 07:25:00 13.8 C 95 % 13.01 C
2395 07-09-2018 07:30:00 13.8 C 95 % 13.01 C
2396 07-09-2018 07:35:00 13.9 C 95 % 13.11 C
2397 07-09-2018 07:40:00 13.9 C 96 % 13.27 C
2398 07-09-2018 07:45:00 14.1 C 96 % 13.47 C
2399 07-09-2018 07:50:00 14.2 C 96 % 13.57 C
2400 07-09-2018 07:55:00 14.2 C 96 % 13.57 C
Sensor: Nr:Datum:Temp:Feuchte:Taupunkt:
Aussen-T/F 2401 07-09-2018 08:00:00 14.3 C 96 % 13.67 C
2402 07-09-2018 08:05:00 14.4 C 96 % 13.77 C
2403 07-09-2018 08:10:00 14.5 C 96 % 13.87 C
2404 07-09-2018 08:15:00 14.6 C 96 % 13.97 C
2405 07-09-2018 08:20:00 14.7 C 96 % 14.07 C
2406 07-09-2018 08:25:00 14.8 C 96 % 14.17 C
2407 07-09-2018 08:30:00 14.8 C 96 % 14.17 C
2408 07-09-2018 08:35:00 14.8 C 96 % 14.17 C
2409 07-09-2018 08:40:00 14.9 C 96 % 14.27 C
2410 07-09-2018 08:45:00 14.9 C 96 % 14.27 C
2411 07-09-2018 08:50:00 15 C 96 % 14.37 C
2412 07-09-2018 08:55:00 15.1 C 96 % 14.47 C
2413 07-09-2018 09:00:00 15.1 C 96 % 14.47 C
2414 07-09-2018 09:05:00 15.1 C 96 % 14.47 C
2415 07-09-2018 09:10:00 15.2 C 96 % 14.57 C
2416 07-09-2018 09:15:00 15.2 C 96 % 14.57 C
2417 07-09-2018 09:20:00 15.2 C 96 % 14.57 C
2418 07-09-2018 09:25:00 15.3 C 96 % 14.67 C
2419 07-09-2018 09:30:00 15.3 C 96 % 14.67 C
2420 07-09-2018 09:35:00 15.5 C 96 % 14.86 C
2421 07-09-2018 09:40:00 15.7 C 96 % 15.06 C
2422 07-09-2018 09:45:00 15.8 C 96 % 15.16 C
2423 07-09-2018 09:50:00 16 C 96 % 15.36 C
2424 07-09-2018 09:55:00 16.2 C 96 % 15.56 C
2425 07-09-2018 10:00:00 16.2 C 94 % 15.23 C
Sensor: Nr:Datum:Temp:Feuchte:Taupunkt:
Aussen-T/F 2426 07-09-2018 10:05:00 16.3 C 93 % 15.17 C
2427 07-09-2018 10:10:00 16.4 C 92 % 15.1 C
2428 07-09-2018 10:15:00 16.7 C 90 % 15.05 C
2429 07-09-2018 10:20:00 16.8 C 89 % 14.98 C
2430 07-09-2018 10:25:00 17 C 87 % 14.82 C
2431 07-09-2018 10:30:00 17.2 C 85 % 14.66 C
2432 07-09-2018 10:35:00 17.3 C 84 % 14.57 C
2433 07-09-2018 10:40:00 17.4 C 83 % 14.48 C
2434 07-09-2018 10:45:00 17.6 C 82 % 14.49 C
2435 07-09-2018 10:50:00 17.8 C 82 % 14.69 C
2436 07-09-2018 10:55:00 17.9 C 80 % 14.4 C
2437 07-09-2018 11:00:00 18.1 C 79 % 14.4 C
2438 07-09-2018 11:05:00 18.1 C 76 % 13.81 C
2439 07-09-2018 11:10:00 18.1 C 77 % 14.01 C
2440 07-09-2018 11:15:00 18.1 C 75 % 13.6 C
2441 07-09-2018 11:20:00 18.2 C 75 % 13.7 C
2442 07-09-2018 11:25:00 18.3 C 74 % 13.59 C
2443 07-09-2018 11:30:00 18.4 C 74 % 13.68 C
2444 07-09-2018 11:35:00 18.6 C 75 % 14.08 C
2445 07-09-2018 11:40:00 18.7 C 73 % 13.76 C
2446 07-09-2018 11:45:00 18.8 C 74 % 14.07 C
2447 07-09-2018 11:50:00 18.9 C 73 % 13.96 C
2448 07-09-2018 11:55:00 19.1 C 73 % 14.15 C
2449 07-09-2018 12:00:00 19.2 C 71 % 13.82 C
2450 07-09-2018 12:05:00 19.3 C 71 % 13.91 C
Sensor: Nr:Datum:Temp:Feuchte:Taupunkt:
Aussen-T/F 2451 07-09-2018 12:10:00 19.3 C 71 % 13.91 C
2452 07-09-2018 12:15:00 19.4 C 70 % 13.79 C
2453 07-09-2018 12:20:00 19.3 C 71 % 13.91 C
2454 07-09-2018 12:25:00 19.3 C 71 % 13.91 C
2455 07-09-2018 12:30:00 19.2 C 71 % 13.82 C
2456 07-09-2018 12:35:00 19 C 71 % 13.63 C
2457 07-09-2018 12:40:00 18.8 C 72 % 13.65 C
2458 07-09-2018 12:45:00 18.7 C 73 % 13.76 C
2459 07-09-2018 12:50:00 18.6 C 74 % 13.88 C
2460 07-09-2018 12:55:00 18.4 C 74 % 13.68 C
2461 07-09-2018 13:00:00 18.4 C 74 % 13.68 C
2462 07-09-2018 13:05:00 18.4 C 75 % 13.89 C
2463 07-09-2018 13:10:00 18.5 C 75 % 13.99 C
2464 07-09-2018 13:15:00 18.6 C 75 % 14.08 C
2465 07-09-2018 13:20:00 18.6 C 75 % 14.08 C
2466 07-09-2018 13:25:00 18.8 C 74 % 14.07 C
2467 07-09-2018 13:30:00 18.8 C 74 % 14.07 C
2468 07-09-2018 13:35:00 18.7 C 74 % 13.97 C
2469 07-09-2018 13:40:00 18.7 C 74 % 13.97 C
2470 07-09-2018 13:45:00 18.7 C 74 % 13.97 C
2471 07-09-2018 13:50:00 18.8 C 74 % 14.07 C
2472 07-09-2018 13:55:00 18.9 C 75 % 14.37 C
2473 07-09-2018 14:00:00 19.1 C 73 % 14.15 C
2474 07-09-2018 14:05:00 19.2 C 72 % 14.03 C
2475 07-09-2018 14:10:00 19.3 C 73 % 14.34 C
Sensor: Nr:Datum:Temp:Feuchte:Taupunkt:
Aussen-T/F 2476 07-09-2018 14:15:00 19.4 C 72 % 14.22 C
2477 07-09-2018 14:20:00 19.4 C 72 % 14.22 C
2478 07-09-2018 14:25:00 19.4 C 72 % 14.22 C
2479 07-09-2018 14:30:00 19.3 C 72 % 14.13 C
2480 07-09-2018 14:35:00 19.3 C 72 % 14.13 C
2481 07-09-2018 14:40:00 19.3 C 72 % 14.13 C
2482 07-09-2018 14:45:00 19.3 C 71 % 13.91 C
2483 07-09-2018 14:50:00 19.6 C 71 % 14.2 C
2484 07-09-2018 14:55:00 19.7 C 70 % 14.08 C
2485 07-09-2018 15:00:00 19.7 C 70 % 14.08 C
2486 07-09-2018 15:05:00 19.7 C 71 % 14.3 C
2487 07-09-2018 15:10:00 19.6 C 71 % 14.2 C
2488 07-09-2018 15:15:00 19.5 C 71 % 14.1 C
2489 07-09-2018 15:20:00 19.4 C 72 % 14.22 C
2490 07-09-2018 15:25:00 19.3 C 72 % 14.13 C
2491 07-09-2018 15:30:00 19.2 C 73 % 14.25 C
2492 07-09-2018 15:35:00 18.9 C 77 % 14.78 C
2493 07-09-2018 15:40:00 18.7 C 79 % 14.99 C
2494 07-09-2018 15:45:00 18.7 C 80 % 15.18 C
2495 07-09-2018 15:50:00 18.6 C 79 % 14.89 C
2496 07-09-2018 15:55:00 18.4 C 79 % 14.69 C
2497 07-09-2018 16:00:00 18.4 C 80 % 14.89 C
2498 07-09-2018 16:05:00 18.2 C 79 % 14.5 C
2499 07-09-2018 16:10:00 17.8 C 79 % 14.11 C
2500 07-09-2018 16:15:00 17.4 C 80 % 13.92 C
Sensor: Nr:Datum:Temp:Feuchte:Taupunkt:
Aussen-T/F 2501 07-09-2018 16:20:00 17.1 C 82 % 14 C
2502 07-09-2018 16:25:00 16.5 C 83 % 13.6 C
2503 07-09-2018 16:30:00 16.2 C 84 % 13.5 C
2504 07-09-2018 16:35:00 16 C 85 % 13.48 C
2505 07-09-2018 16:40:00 15.9 C 85 % 13.38 C
2506 07-09-2018 16:45:00 15.8 C 86 % 13.46 C
2507 07-09-2018 16:50:00 15.7 C 87 % 13.54 C
2508 07-09-2018 16:55:00 15.6 C 88 % 13.62 C
2509 07-09-2018 17:00:00 15.6 C 88 % 13.62 C
2510 07-09-2018 17:05:00 15.6 C 90 % 13.97 C
2511 07-09-2018 17:10:00 15.6 C 90 % 13.97 C
2512 07-09-2018 17:15:00 15.5 C 89 % 13.7 C
2513 07-09-2018 17:20:00 15.5 C 89 % 13.7 C
2514 07-09-2018 17:25:00 15.6 C 87 % 13.45 C
2515 07-09-2018 17:30:00 15.6 C 87 % 13.45 C
2516 07-09-2018 17:35:00 15.7 C 88 % 13.72 C
2517 07-09-2018 17:40:00 15.8 C 85 % 13.28 C
2518 07-09-2018 17:45:00 16 C 85 % 13.48 C
2519 07-09-2018 17:50:00 16.2 C 84 % 13.5 C
2520 07-09-2018 17:55:00 16.3 C 84 % 13.59 C
2521 07-09-2018 18:00:00 16.3 C 83 % 13.41 C
2522 07-09-2018 18:05:00 16.3 C 82 % 13.22 C
2523 07-09-2018 18:10:00 16.3 C 83 % 13.41 C
2524 07-09-2018 18:15:00 16.4 C 86 % 14.05 C
2525 07-09-2018 18:20:00 16.5 C 86 % 14.15 C
Sensor: Nr:Datum:Temp:Feuchte:Taupunkt:
Aussen-T/F 2526 07-09-2018 18:25:00 16.6 C 87 % 14.43 C
2527 07-09-2018 18:30:00 16.5 C 86 % 14.15 C
2528 07-09-2018 18:35:00 16.4 C 87 % 14.23 C
2529 07-09-2018 18:40:00 16.3 C 87 % 14.13 C
2530 07-09-2018 18:45:00 16.3 C 87 % 14.13 C
2531 07-09-2018 18:50:00 16.2 C 88 % 14.21 C
2532 07-09-2018 18:55:00 16.1 C 86 % 13.76 C
2533 07-09-2018 19:00:00 16 C 88 % 14.01 C
2534 07-09-2018 19:05:00 16 C 88 % 14.01 C
2535 07-09-2018 19:10:00 16.2 C 89 % 14.39 C
2536 07-09-2018 19:15:00 16.4 C 90 % 14.76 C
2537 07-09-2018 19:20:00 16.6 C 87 % 14.43 C
2538 07-09-2018 19:25:00 16.5 C 79 % 12.85 C
2539 07-09-2018 19:30:00 16.4 C 75 % 11.96 C
2540 07-09-2018 19:35:00 16.4 C 78 % 12.56 C
2541 07-09-2018 19:40:00 16.3 C 78 % 12.46 C
2542 07-09-2018 19:45:00 15.9 C 78 % 12.07 C
2543 07-09-2018 19:50:00 15.6 C 79 % 11.97 C
2544 07-09-2018 19:55:00 15.3 C 80 % 11.87 C
2545 07-09-2018 20:00:00 15.1 C 81 % 11.87 C
2546 07-09-2018 20:05:00 14.8 C 81 % 11.57 C
2547 07-09-2018 20:10:00 14.4 C 81 % 11.18 C
2548 07-09-2018 20:15:00 14.2 C 82 % 11.17 C
2549 07-09-2018 20:20:00 13.9 C 82 % 10.88 C
2550 07-09-2018 20:25:00 13.8 C 84 % 11.15 C
Sensor: Nr:Datum:Temp:Feuchte:Taupunkt:
Aussen-T/F 2551 07-09-2018 20:30:00 13.6 C 84 % 10.95 C
2552 07-09-2018 20:35:00 13.4 C 84 % 10.75 C
2553 07-09-2018 20:40:00 13.2 C 84 % 10.56 C
2554 07-09-2018 20:45:00 13.2 C 85 % 10.74 C
2555 07-09-2018 20:50:00 13.1 C 84 % 10.46 C
2556 07-09-2018 20:55:00 12.9 C 84 % 10.26 C
2557 07-09-2018 21:00:00 12.8 C 84 % 10.17 C
2558 07-09-2018 21:05:00 12.8 C 84 % 10.17 C
2559 07-09-2018 21:10:00 12.7 C 84 % 10.07 C
2560 07-09-2018 21:15:00 12.7 C 84 % 10.07 C
2561 07-09-2018 21:20:00 12.7 C 84 % 10.07 C
2562 07-09-2018 21:25:00 12.7 C 84 % 10.07 C
2563 07-09-2018 21:30:00 12.6 C 85 % 10.15 C
2564 07-09-2018 21:35:00 12.6 C 84 % 9.97 C
2565 07-09-2018 21:40:00 12.4 C 85 % 9.95 C
2566 07-09-2018 21:45:00 12.4 C 85 % 9.95 C
2567 07-09-2018 21:50:00 12.3 C 86 % 10.03 C
2568 07-09-2018 21:55:00 12.3 C 86 % 10.03 C
2569 07-09-2018 22:00:00 12.2 C 86 % 9.93 C
2570 07-09-2018 22:05:00 12.2 C 86 % 9.93 C
2571 07-09-2018 22:10:00 12.1 C 86 % 9.83 C
2572 07-09-2018 22:15:00 12 C 86 % 9.73 C
2573 07-09-2018 22:20:00 11.9 C 87 % 9.81 C
2574 07-09-2018 22:25:00 11.8 C 87 % 9.71 C
2575 07-09-2018 22:30:00 11.8 C 87 % 9.71 C
Sensor: Nr:Datum:Temp:Feuchte:Taupunkt:
Aussen-T/F 2576 07-09-2018 22:35:00 11.7 C 87 % 9.61 C
2577 07-09-2018 22:40:00 11.7 C 87 % 9.61 C
2578 07-09-2018 22:45:00 11.6 C 88 % 9.68 C
2579 07-09-2018 22:50:00 11.5 C 87 % 9.41 C
2580 07-09-2018 22:55:00 11.4 C 87 % 9.32 C
2581 07-09-2018 23:00:00 11.3 C 88 % 9.39 C
2582 07-09-2018 23:05:00 11.3 C 88 % 9.39 C
2583 07-09-2018 23:10:00 11.2 C 88 % 9.29 C
2584 07-09-2018 23:15:00 11.2 C 88 % 9.29 C
2585 07-09-2018 23:20:00 11.1 C 88 % 9.19 C
2586 07-09-2018 23:25:00 11 C 88 % 9.09 C
2587 07-09-2018 23:30:00 10.9 C 88 % 8.99 C
2588 07-09-2018 23:35:00 10.8 C 88 % 8.89 C
2589 07-09-2018 23:40:00 10.7 C 88 % 8.8 C
2590 07-09-2018 23:45:00 10.6 C 88 % 8.7 C
2591 07-09-2018 23:50:00 10.4 C 88 % 8.5 C
2592 07-09-2018 23:55:00 10.3 C 89 % 8.57 C
2593 08-09-2018 00:00:00 10.2 C 89 % 8.47 C
2594 08-09-2018 00:05:00 10.1 C 89 % 8.37 C
2595 08-09-2018 00:10:00 10.1 C 89 % 8.37 C
2596 08-09-2018 00:15:00 9.9 C 89 % 8.17 C
2597 08-09-2018 00:20:00 9.9 C 89 % 8.17 C
2598 08-09-2018 00:25:00 9.8 C 90 % 8.24 C
2599 08-09-2018 00:30:00 9.8 C 90 % 8.24 C
2600 08-09-2018 00:35:00 9.7 C 90 % 8.14 C
Sensor: Nr:Datum:Temp:Feuchte:Taupunkt:
Aussen-T/F 2601 08-09-2018 00:40:00 9.7 C 90 % 8.14 C
2602 08-09-2018 00:45:00 9.7 C 90 % 8.14 C
2603 08-09-2018 00:50:00 9.6 C 90 % 8.04 C
2604 08-09-2018 00:55:00 9.6 C 90 % 8.04 C
2605 08-09-2018 01:00:00 9.6 C 90 % 8.04 C
2606 08-09-2018 01:05:00 9.5 C 91 % 8.11 C
2607 08-09-2018 01:10:00 9.5 C 91 % 8.11 C
2608 08-09-2018 01:15:00 9.5 C 91 % 8.11 C
2609 08-09-2018 01:20:00 9.4 C 91 % 8.01 C
2610 08-09-2018 01:25:00 9.4 C 91 % 8.01 C
2611 08-09-2018 01:30:00 9.4 C 91 % 8.01 C
2612 08-09-2018 01:35:00 9.4 C 91 % 8.01 C
2613 08-09-2018 01:40:00 9.4 C 91 % 8.01 C
2614 08-09-2018 01:45:00 9.4 C 91 % 8.01 C
2615 08-09-2018 01:50:00 9.3 C 91 % 7.91 C
2616 08-09-2018 01:55:00 9.4 C 92 % 8.17 C
2617 08-09-2018 02:00:00 9.3 C 92 % 8.07 C
2618 08-09-2018 02:05:00 9.3 C 92 % 8.07 C
2619 08-09-2018 02:10:00 9.3 C 92 % 8.07 C
2620 08-09-2018 02:15:00 9.3 C 92 % 8.07 C
2621 08-09-2018 02:20:00 9.3 C 92 % 8.07 C
2622 08-09-2018 02:25:00 9.3 C 92 % 8.07 C
2623 08-09-2018 02:30:00 9.3 C 92 % 8.07 C
2624 08-09-2018 02:35:00 9.3 C 92 % 8.07 C
2625 08-09-2018 02:40:00 9.2 C 92 % 7.97 C
Sensor: Nr:Datum:Temp:Feuchte:Taupunkt:
Aussen-T/F 2626 08-09-2018 02:45:00 9.2 C 92 % 7.97 C
2627 08-09-2018 02:50:00 9.2 C 92 % 7.97 C
2628 08-09-2018 02:55:00 9.1 C 92 % 7.87 C
2629 08-09-2018 03:00:00 9.1 C 92 % 7.87 C
2630 08-09-2018 03:05:00 9 C 92 % 7.77 C
2631 08-09-2018 03:10:00 8.9 C 92 % 7.67 C
2632 08-09-2018 03:15:00 8.9 C 93 % 7.83 C
2633 08-09-2018 03:20:00 8.8 C 93 % 7.73 C
2634 08-09-2018 03:25:00 8.8 C 93 % 7.73 C
2635 08-09-2018 03:30:00 8.8 C 93 % 7.73 C
2636 08-09-2018 03:35:00 8.8 C 93 % 7.73 C
2637 08-09-2018 03:40:00 8.7 C 93 % 7.63 C
2638 08-09-2018 03:45:00 8.7 C 93 % 7.63 C
2639 08-09-2018 03:50:00 8.5 C 92 % 7.28 C
2640 08-09-2018 03:55:00 8.4 C 93 % 7.34 C
2641 08-09-2018 04:00:00 8.3 C 93 % 7.24 C
2642 08-09-2018 04:05:00 8.3 C 93 % 7.24 C
2643 08-09-2018 04:10:00 8.2 C 93 % 7.14 C
2644 08-09-2018 04:15:00 8.1 C 93 % 7.04 C
2645 08-09-2018 04:20:00 8.1 C 93 % 7.04 C
2646 08-09-2018 04:25:00 8 C 93 % 6.94 C
2647 08-09-2018 04:30:00 7.9 C 93 % 6.84 C
2648 08-09-2018 04:35:00 7.9 C 93 % 6.84 C
2649 08-09-2018 04:40:00 7.8 C 93 % 6.74 C
2650 08-09-2018 04:45:00 7.8 C 93 % 6.74 C
Sensor: Nr:Datum:Temp:Feuchte:Taupunkt:
Aussen-T/F 2651 08-09-2018 04:50:00 7.8 C 93 % 6.74 C
2652 08-09-2018 04:55:00 7.8 C 94 % 6.9 C
2653 08-09-2018 05:00:00 7.9 C 94 % 7 C
2654 08-09-2018 05:05:00 8 C 94 % 7.09 C
2655 08-09-2018 05:10:00 7.8 C 93 % 6.74 C
2656 08-09-2018 05:15:00 7.7 C 93 % 6.64 C
2657 08-09-2018 05:20:00 7.7 C 94 % 6.8 C
2658 08-09-2018 05:25:00 7.7 C 94 % 6.8 C
2659 08-09-2018 05:30:00 7.6 C 93 % 6.54 C
2660 08-09-2018 05:35:00 7.4 C 93 % 6.34 C
2661 08-09-2018 05:40:00 7.4 C 94 % 6.5 C
2662 08-09-2018 05:45:00 7.5 C 94 % 6.6 C
2663 08-09-2018 05:50:00 7.5 C 94 % 6.6 C
2664 08-09-2018 05:55:00 7.4 C 94 % 6.5 C
2665 08-09-2018 06:00:00 7.5 C 94 % 6.6 C
2666 08-09-2018 06:05:00 7.6 C 95 % 6.85 C
2667 08-09-2018 06:10:00 7.7 C 95 % 6.95 C
2668 08-09-2018 06:15:00 7.8 C 95 % 7.05 C
2669 08-09-2018 06:20:00 7.8 C 94 % 6.9 C
2670 08-09-2018 06:25:00 7.6 C 94 % 6.7 C
2671 08-09-2018 06:30:00 7.4 C 94 % 6.5 C
2672 08-09-2018 06:35:00 7.3 C 94 % 6.4 C
2673 08-09-2018 06:40:00 7.2 C 94 % 6.3 C
2674 08-09-2018 06:45:00 7.1 C 94 % 6.2 C
2675 08-09-2018 06:50:00 7 C 94 % 6.1 C
Sensor: Nr:Datum:Temp:Feuchte:Taupunkt:
Aussen-T/F 2676 08-09-2018 06:55:00 6.9 C 94 % 6 C
2677 08-09-2018 07:00:00 6.9 C 94 % 6 C
2678 08-09-2018 07:05:00 6.8 C 94 % 5.9 C
2679 08-09-2018 07:10:00 6.8 C 94 % 5.9 C
2680 08-09-2018 07:15:00 6.8 C 94 % 5.9 C
2681 08-09-2018 07:20:00 6.8 C 94 % 5.9 C
2682 08-09-2018 07:25:00 6.8 C 94 % 5.9 C
2683 08-09-2018 07:30:00 6.8 C 94 % 5.9 C
2684 08-09-2018 07:35:00 6.8 C 94 % 5.9 C
2685 08-09-2018 07:40:00 6.8 C 94 % 5.9 C
2686 08-09-2018 07:45:00 6.8 C 94 % 5.9 C
2687 08-09-2018 07:50:00 6.8 C 95 % 6.06 C
2688 08-09-2018 07:55:00 6.8 C 95 % 6.06 C
2689 08-09-2018 08:00:00 6.9 C 95 % 6.16 C
2690 08-09-2018 08:05:00 6.9 C 95 % 6.16 C
2691 08-09-2018 08:10:00 6.9 C 95 % 6.16 C
2692 08-09-2018 08:15:00 7 C 95 % 6.26 C
2693 08-09-2018 08:20:00 7 C 95 % 6.26 C
2694 08-09-2018 08:25:00 7.1 C 95 % 6.35 C
2695 08-09-2018 08:30:00 7.2 C 95 % 6.45 C
2696 08-09-2018 08:35:00 7.2 C 95 % 6.45 C
2697 08-09-2018 08:40:00 7.3 C 95 % 6.55 C
2698 08-09-2018 08:45:00 7.3 C 95 % 6.55 C
2699 08-09-2018 08:50:00 7.3 C 95 % 6.55 C
2700 08-09-2018 08:55:00 7.4 C 95 % 6.65 C
Sensor: Nr:Datum:Temp:Feuchte:Taupunkt:
Aussen-T/F 2701 08-09-2018 09:00:00 7.5 C 95 % 6.75 C
2702 08-09-2018 09:05:00 7.5 C 95 % 6.75 C
2703 08-09-2018 09:10:00 7.6 C 95 % 6.85 C
2704 08-09-2018 09:15:00 7.6 C 95 % 6.85 C
2705 08-09-2018 09:20:00 7.6 C 95 % 6.85 C
2706 08-09-2018 09:25:00 7.7 C 95 % 6.95 C
2707 08-09-2018 09:30:00 7.8 C 95 % 7.05 C
2708 08-09-2018 09:35:00 7.9 C 95 % 7.15 C
2709 08-09-2018 09:40:00 8.1 C 96 % 7.5 C
2710 08-09-2018 09:45:00 8.2 C 96 % 7.6 C
2711 08-09-2018 09:50:00 8.4 C 96 % 7.8 C
2712 08-09-2018 09:55:00 8.7 C 96 % 8.1 C
2713 08-09-2018 10:00:00 8.9 C 96 % 8.3 C
2714 08-09-2018 10:05:00 9.2 C 96 % 8.6 C
2715 08-09-2018 10:10:00 9.4 C 96 % 8.8 C
2716 08-09-2018 10:15:00 9.7 C 96 % 9.09 C
2717 08-09-2018 10:20:00 9.9 C 96 % 9.29 C
2718 08-09-2018 10:25:00 10.1 C 96 % 9.49 C
2719 08-09-2018 10:30:00 10.3 C 96 % 9.69 C
2720 08-09-2018 10:35:00 10.4 C 96 % 9.79 C
2721 08-09-2018 10:40:00 10.7 C 95 % 9.93 C
2722 08-09-2018 10:45:00 10.9 C 94 % 9.97 C
2723 08-09-2018 10:50:00 11.2 C 94 % 10.27 C
2724 08-09-2018 10:55:00 11.6 C 92 % 10.35 C
2725 08-09-2018 11:00:00 12 C 90 % 10.41 C
Sensor: Nr:Datum:Temp:Feuchte:Taupunkt:
Aussen-T/F 2726 08-09-2018 11:05:00 12.4 C 88 % 10.47 C
2727 08-09-2018 11:10:00 12.7 C 87 % 10.59 C
2728 08-09-2018 11:15:00 13.1 C 85 % 10.64 C
2729 08-09-2018 11:20:00 13.4 C 80 % 10.02 C
2730 08-09-2018 11:25:00 14 C 78 % 10.23 C
2731 08-09-2018 11:30:00 14.3 C 76 % 10.13 C
2732 08-09-2018 11:35:00 14.7 C 74 % 10.12 C
2733 08-09-2018 11:40:00 15 C 71 % 9.79 C
2734 08-09-2018 11:45:00 15.2 C 71 % 9.98 C
2735 08-09-2018 11:50:00 15.3 C 70 % 9.87 C
2736 08-09-2018 11:55:00 15.5 C 68 % 9.63 C
2737 08-09-2018 12:00:00 15.7 C 67 % 9.6 C
2738 08-09-2018 12:05:00 15.8 C 66 % 9.47 C
2739 08-09-2018 12:10:00 15.9 C 66 % 9.56 C
2740 08-09-2018 12:15:00 16.1 C 65 % 9.53 C
2741 08-09-2018 12:20:00 16.2 C 65 % 9.62 C
2742 08-09-2018 12:25:00 16.3 C 63 % 9.25 C
2743 08-09-2018 12:30:00 16.3 C 62 % 9.01 C
2744 08-09-2018 12:35:00 16.4 C 62 % 9.11 C
2745 08-09-2018 12:40:00 16.4 C 64 % 9.58 C
2746 08-09-2018 12:45:00 16.6 C 62 % 9.3 C
2747 08-09-2018 12:50:00 16.6 C 62 % 9.3 C
2748 08-09-2018 12:55:00 16.7 C 62 % 9.39 C
2749 08-09-2018 13:00:00 16.7 C 63 % 9.63 C
2750 08-09-2018 13:05:00 16.9 C 62 % 9.58 C
Sensor: Nr:Datum:Temp:Feuchte:Taupunkt:
Aussen-T/F 2751 08-09-2018 13:10:00 17.1 C 60 % 9.28 C
2752 08-09-2018 13:15:00 17.2 C 60 % 9.37 C
2753 08-09-2018 13:20:00 17.2 C 60 % 9.37 C
2754 08-09-2018 13:25:00 17.2 C 61 % 9.62 C
2755 08-09-2018 13:30:00 17.3 C 61 % 9.71 C
2756 08-09-2018 13:35:00 17.4 C 60 % 9.56 C
2757 08-09-2018 13:40:00 17.5 C 61 % 9.9 C
2758 08-09-2018 13:45:00 17.7 C 61 % 10.09 C
2759 08-09-2018 13:50:00 17.8 C 58 % 9.43 C
2760 08-09-2018 13:55:00 17.9 C 59 % 9.78 C
2761 08-09-2018 14:00:00 18.1 C 59 % 9.97 C
2762 08-09-2018 14:05:00 18.2 C 58 % 9.81 C
2763 08-09-2018 14:10:00 18.3 C 57 % 9.64 C
2764 08-09-2018 14:15:00 18.4 C 57 % 9.74 C
2765 08-09-2018 14:20:00 18.6 C 56 % 9.66 C
2766 08-09-2018 14:25:00 18.6 C 56 % 9.66 C
2767 08-09-2018 14:30:00 18.6 C 55 % 9.39 C
2768 08-09-2018 14:35:00 18.7 C 56 % 9.75 C
2769 08-09-2018 14:40:00 18.8 C 56 % 9.84 C
2770 08-09-2018 14:45:00 18.9 C 56 % 9.94 C
2771 08-09-2018 14:50:00 19.2 C 57 % 10.48 C
2772 08-09-2018 14:55:00 19.2 C 53 % 9.4 C
2773 08-09-2018 15:00:00 19.2 C 53 % 9.4 C
2774 08-09-2018 15:05:00 19.2 C 53 % 9.4 C
2775 08-09-2018 15:10:00 19.3 C 53 % 9.49 C
Sensor: Nr:Datum:Temp:Feuchte:Taupunkt:
Aussen-T/F 2776 08-09-2018 15:15:00 19.4 C 53 % 9.58 C
2777 08-09-2018 15:20:00 19.6 C 52 % 9.48 C
2778 08-09-2018 15:25:00 19.7 C 52 % 9.58 C
2779 08-09-2018 15:30:00 19.8 C 52 % 9.67 C
2780 08-09-2018 15:35:00 19.9 C 51 % 9.47 C
2781 08-09-2018 15:40:00 20.1 C 51 % 9.66 C
2782 08-09-2018 15:45:00 20.2 C 51 % 9.75 C
2783 08-09-2018 15:50:00 20.3 C 50 % 9.54 C
2784 08-09-2018 15:55:00 20.3 C 50 % 9.54 C
2785 08-09-2018 16:00:00 20.4 C 51 % 9.93 C
2786 08-09-2018 16:05:00 20.5 C 49 % 9.43 C
2787 08-09-2018 16:10:00 20.6 C 50 % 9.82 C
2788 08-09-2018 16:15:00 20.6 C 50 % 9.82 C
2789 08-09-2018 16:20:00 20.8 C 49 % 9.7 C
2790 08-09-2018 16:25:00 20.9 C 49 % 9.79 C
2791 08-09-2018 16:30:00 21 C 49 % 9.89 C
2792 08-09-2018 16:35:00 21.2 C 49 % 10.07 C
2793 08-09-2018 16:40:00 21.4 C 47 % 9.63 C
2794 08-09-2018 16:45:00 21.7 C 48 % 10.22 C
2795 08-09-2018 16:50:00 21.9 C 47 % 10.09 C
2796 08-09-2018 16:55:00 22.1 C 46 % 9.95 C
2797 08-09-2018 17:00:00 22.4 C 46 % 10.22 C
2798 08-09-2018 17:05:00 22.7 C 44 % 9.83 C
2799 08-09-2018 17:10:00 22.8 C 43 % 9.58 C
2800 08-09-2018 17:15:00 23.1 C 45 % 10.53 C
Sensor: Nr:Datum:Temp:Feuchte:Taupunkt:
Aussen-T/F 2801 08-09-2018 17:20:00 23.3 C 44 % 10.37 C
2802 08-09-2018 17:25:00 23.4 C 43 % 10.12 C
2803 08-09-2018 17:30:00 23.1 C 42 % 9.5 C
2804 08-09-2018 17:35:00 22.5 C 44 % 9.65 C
2805 08-09-2018 17:40:00 22.2 C 46 % 10.04 C
2806 08-09-2018 17:45:00 21.9 C 47 % 10.09 C
2807 08-09-2018 17:50:00 21.7 C 47 % 9.9 C
2808 08-09-2018 17:55:00 21.5 C 47 % 9.72 C
2809 08-09-2018 18:00:00 21.4 C 50 % 10.55 C
2810 08-09-2018 18:05:00 21.3 C 51 % 10.76 C
2811 08-09-2018 18:10:00 21.2 C 51 % 10.67 C
2812 08-09-2018 18:15:00 21.1 C 51 % 10.58 C
2813 08-09-2018 18:20:00 21.1 C 51 % 10.58 C
2814 08-09-2018 18:25:00 21.1 C 53 % 11.15 C
2815 08-09-2018 18:30:00 21.1 C 53 % 11.15 C
2816 08-09-2018 18:35:00 21.1 C 54 % 11.44 C
2817 08-09-2018 18:40:00 21.2 C 54 % 11.53 C
2818 08-09-2018 18:45:00 21.2 C 51 % 10.67 C
2819 08-09-2018 18:50:00 21.1 C 53 % 11.15 C
2820 08-09-2018 18:55:00 20.9 C 55 % 11.53 C
2821 08-09-2018 19:00:00 20.7 C 56 % 11.61 C
2822 08-09-2018 19:05:00 20.4 C 56 % 11.33 C
2823 08-09-2018 19:10:00 20.1 C 58 % 11.58 C
2824 08-09-2018 19:15:00 19.7 C 59 % 11.47 C
2825 08-09-2018 19:20:00 19.4 C 60 % 11.44 C
Sensor: Nr:Datum:Temp:Feuchte:Taupunkt:
Aussen-T/F 2826 08-09-2018 19:25:00 19.2 C 61 % 11.5 C
2827 08-09-2018 19:30:00 18.9 C 61 % 11.22 C
2828 08-09-2018 19:35:00 18.6 C 62 % 11.18 C
2829 08-09-2018 19:40:00 18.3 C 64 % 11.38 C
2830 08-09-2018 19:45:00 18.1 C 64 % 11.19 C
2831 08-09-2018 19:50:00 17.7 C 65 % 11.04 C
2832 08-09-2018 19:55:00 17.6 C 66 % 11.18 C
2833 08-09-2018 20:00:00 17.3 C 67 % 11.12 C
2834 08-09-2018 20:05:00 17.2 C 67 % 11.02 C
2835 08-09-2018 20:10:00 17 C 68 % 11.06 C
2836 08-09-2018 20:15:00 16.9 C 69 % 11.18 C
2837 08-09-2018 20:20:00 16.8 C 69 % 11.09 C
2838 08-09-2018 20:25:00 16.7 C 69 % 10.99 C
2839 08-09-2018 20:30:00 16.6 C 70 % 11.11 C
2840 08-09-2018 20:35:00 16.6 C 70 % 11.11 C
2841 08-09-2018 20:40:00 16.5 C 71 % 11.23 C
2842 08-09-2018 20:45:00 16.4 C 71 % 11.13 C
2843 08-09-2018 20:50:00 16.4 C 70 % 10.92 C
2844 08-09-2018 20:55:00 16.3 C 70 % 10.82 C
2845 08-09-2018 21:00:00 16.3 C 71 % 11.04 C
2846 08-09-2018 21:05:00 16.2 C 71 % 10.94 C
2847 08-09-2018 21:10:00 16.2 C 72 % 11.15 C
2848 08-09-2018 21:15:00 16.1 C 72 % 11.06 C
2849 08-09-2018 21:20:00 16 C 72 % 10.96 C
2850 08-09-2018 21:25:00 15.9 C 72 % 10.86 C
Sensor: Nr:Datum:Temp:Feuchte:Taupunkt:
Aussen-T/F 2851 08-09-2018 21:30:00 15.9 C 72 % 10.86 C
2852 08-09-2018 21:35:00 15.8 C 73 % 10.97 C
2853 08-09-2018 21:40:00 15.8 C 73 % 10.97 C
2854 08-09-2018 21:45:00 15.7 C 73 % 10.88 C
2855 08-09-2018 21:50:00 15.7 C 73 % 10.88 C
2856 08-09-2018 21:55:00 15.6 C 74 % 10.99 C
2857 08-09-2018 22:00:00 15.6 C 74 % 10.99 C
2858 08-09-2018 22:05:00 15.5 C 75 % 11.09 C
2859 08-09-2018 22:10:00 15.5 C 74 % 10.89 C
2860 08-09-2018 22:15:00 15.4 C 74 % 10.79 C
2861 08-09-2018 22:20:00 15.4 C 74 % 10.79 C
2862 08-09-2018 22:25:00 15.4 C 74 % 10.79 C
2863 08-09-2018 22:30:00 15.4 C 75 % 11 C
2864 08-09-2018 22:35:00 15.3 C 75 % 10.9 C
2865 08-09-2018 22:40:00 15.3 C 75 % 10.9 C
2866 08-09-2018 22:45:00 15.2 C 75 % 10.8 C
2867 08-09-2018 22:50:00 15.2 C 76 % 11 C
2868 08-09-2018 22:55:00 15.2 C 75 % 10.8 C
2869 08-09-2018 23:00:00 15.1 C 76 % 10.9 C
2870 08-09-2018 23:05:00 15 C 76 % 10.81 C
2871 08-09-2018 23:10:00 14.8 C 77 % 10.81 C
2872 08-09-2018 23:15:00 14.7 C 76 % 10.52 C
2873 08-09-2018 23:20:00 14.7 C 77 % 10.71 C
2874 08-09-2018 23:25:00 14.6 C 77 % 10.62 C
2875 08-09-2018 23:30:00 14.6 C 77 % 10.62 C
Sensor: Nr:Datum:Temp:Feuchte:Taupunkt:
Aussen-T/F 2876 08-09-2018 23:35:00 14.6 C 77 % 10.62 C
2877 08-09-2018 23:40:00 14.7 C 77 % 10.71 C
2878 08-09-2018 23:45:00 14.7 C 77 % 10.71 C
2879 08-09-2018 23:50:00 14.8 C 77 % 10.81 C
2880 08-09-2018 23:55:00 14.9 C 77 % 10.91 C
2881 09-09-2018 00:00:00 14.9 C 77 % 10.91 C
2882 09-09-2018 00:05:00 14.8 C 78 % 11 C
2883 09-09-2018 00:10:00 14.8 C 78 % 11 C
2884 09-09-2018 00:15:00 14.7 C 78 % 10.91 C
2885 09-09-2018 00:20:00 14.6 C 78 % 10.81 C
2886 09-09-2018 00:25:00 14.4 C 78 % 10.62 C
2887 09-09-2018 00:30:00 14.3 C 79 % 10.71 C
2888 09-09-2018 00:35:00 14.2 C 79 % 10.61 C
2889 09-09-2018 00:40:00 14.1 C 79 % 10.52 C
2890 09-09-2018 00:45:00 14 C 80 % 10.61 C
2891 09-09-2018 00:50:00 13.8 C 80 % 10.41 C
2892 09-09-2018 00:55:00 13.7 C 80 % 10.32 C
2893 09-09-2018 01:00:00 13.6 C 80 % 10.22 C
2894 09-09-2018 01:05:00 13.4 C 80 % 10.02 C
2895 09-09-2018 01:10:00 13.4 C 81 % 10.21 C
2896 09-09-2018 01:15:00 13.5 C 82 % 10.49 C
2897 09-09-2018 01:20:00 13.6 C 82 % 10.59 C
2898 09-09-2018 01:25:00 13.7 C 81 % 10.5 C
2899 09-09-2018 01:30:00 13.7 C 81 % 10.5 C
2900 09-09-2018 01:35:00 13.7 C 81 % 10.5 C
Sensor: Nr:Datum:Temp:Feuchte:Taupunkt:
Aussen-T/F 2901 09-09-2018 01:40:00 13.6 C 81 % 10.4 C
2902 09-09-2018 01:45:00 13.4 C 81 % 10.21 C
2903 09-09-2018 01:50:00 13.3 C 81 % 10.11 C
2904 09-09-2018 01:55:00 13.2 C 82 % 10.2 C
2905 09-09-2018 02:00:00 13.1 C 82 % 10.1 C
2906 09-09-2018 02:05:00 12.9 C 82 % 9.9 C
2907 09-09-2018 02:10:00 12.9 C 83 % 10.09 C
2908 09-09-2018 02:15:00 12.8 C 83 % 9.99 C
2909 09-09-2018 02:20:00 12.7 C 83 % 9.89 C
2910 09-09-2018 02:25:00 12.6 C 83 % 9.79 C
2911 09-09-2018 02:30:00 12.4 C 83 % 9.6 C
2912 09-09-2018 02:35:00 12.3 C 83 % 9.5 C
2913 09-09-2018 02:40:00 12.2 C 84 % 9.58 C
2914 09-09-2018 02:45:00 12.1 C 85 % 9.66 C
2915 09-09-2018 02:50:00 12.1 C 85 % 9.66 C
2916 09-09-2018 02:55:00 12.1 C 86 % 9.83 C
2917 09-09-2018 03:00:00 12.2 C 86 % 9.93 C
2918 09-09-2018 03:05:00 12.1 C 86 % 9.83 C
2919 09-09-2018 03:10:00 12.1 C 86 % 9.83 C
2920 09-09-2018 03:15:00 12 C 86 % 9.73 C
2921 09-09-2018 03:20:00 11.9 C 86 % 9.64 C
2922 09-09-2018 03:25:00 11.9 C 86 % 9.64 C
2923 09-09-2018 03:30:00 11.8 C 86 % 9.54 C
2924 09-09-2018 03:35:00 11.7 C 87 % 9.61 C
2925 09-09-2018 03:40:00 11.7 C 87 % 9.61 C
Sensor: Nr:Datum:Temp:Feuchte:Taupunkt:
Aussen-T/F 2926 09-09-2018 03:45:00 11.6 C 87 % 9.51 C
2927 09-09-2018 03:50:00 11.5 C 87 % 9.41 C
2928 09-09-2018 03:55:00 11.4 C 87 % 9.32 C
2929 09-09-2018 04:00:00 11.4 C 87 % 9.32 C
2930 09-09-2018 04:05:00 11.3 C 87 % 9.22 C
2931 09-09-2018 04:10:00 11.2 C 88 % 9.29 C
2932 09-09-2018 04:15:00 11.1 C 88 % 9.19 C
2933 09-09-2018 04:20:00 11.1 C 88 % 9.19 C
2934 09-09-2018 04:25:00 11.1 C 89 % 9.36 C
2935 09-09-2018 04:30:00 11.1 C 89 % 9.36 C
2936 09-09-2018 04:35:00 11.1 C 89 % 9.36 C
2937 09-09-2018 04:40:00 11.1 C 89 % 9.36 C
2938 09-09-2018 04:45:00 11.1 C 89 % 9.36 C
2939 09-09-2018 04:50:00 11.2 C 89 % 9.46 C
2940 09-09-2018 04:55:00 11.1 C 89 % 9.36 C
2941 09-09-2018 05:00:00 11 C 88 % 9.09 C
2942 09-09-2018 05:05:00 10.9 C 88 % 8.99 C
2943 09-09-2018 05:10:00 10.8 C 89 % 9.06 C
2944 09-09-2018 05:15:00 10.8 C 90 % 9.23 C
2945 09-09-2018 05:20:00 10.9 C 90 % 9.33 C
2946 09-09-2018 05:25:00 10.9 C 90 % 9.33 C
2947 09-09-2018 05:30:00 10.9 C 90 % 9.33 C
2948 09-09-2018 05:35:00 11 C 90 % 9.42 C
2949 09-09-2018 05:40:00 11.1 C 91 % 9.69 C
2950 09-09-2018 05:45:00 11.2 C 91 % 9.79 C
Sensor: Nr:Datum:Temp:Feuchte:Taupunkt:
Aussen-T/F 2951 09-09-2018 05:50:00 11.2 C 91 % 9.79 C
2952 09-09-2018 05:55:00 11.2 C 91 % 9.79 C
2953 09-09-2018 06:00:00 11.3 C 90 % 9.72 C
2954 09-09-2018 06:05:00 11.3 C 90 % 9.72 C
2955 09-09-2018 06:10:00 11.3 C 90 % 9.72 C
2956 09-09-2018 06:15:00 11.3 C 90 % 9.72 C
2957 09-09-2018 06:20:00 11.3 C 90 % 9.72 C
2958 09-09-2018 06:25:00 11.4 C 90 % 9.82 C
2959 09-09-2018 06:30:00 11.3 C 90 % 9.72 C
2960 09-09-2018 06:35:00 11.4 C 90 % 9.82 C
2961 09-09-2018 06:40:00 11.4 C 90 % 9.82 C
2962 09-09-2018 06:45:00 11.4 C 90 % 9.82 C
2963 09-09-2018 06:50:00 11.5 C 90 % 9.92 C
2964 09-09-2018 06:55:00 11.6 C 90 % 10.02 C
2965 09-09-2018 07:00:00 11.6 C 90 % 10.02 C
2966 09-09-2018 07:05:00 11.6 C 90 % 10.02 C
2967 09-09-2018 07:10:00 11.6 C 90 % 10.02 C
2968 09-09-2018 07:15:00 11.6 C 90 % 10.02 C
2969 09-09-2018 07:20:00 11.6 C 90 % 10.02 C
2970 09-09-2018 07:25:00 11.5 C 90 % 9.92 C
2971 09-09-2018 07:30:00 11.5 C 90 % 9.92 C
2972 09-09-2018 07:35:00 11.5 C 90 % 9.92 C
2973 09-09-2018 07:40:00 11.5 C 90 % 9.92 C
2974 09-09-2018 07:45:00 11.5 C 90 % 9.92 C
2975 09-09-2018 07:50:00 11.6 C 90 % 10.02 C
Sensor: Nr:Datum:Temp:Feuchte:Taupunkt:
Aussen-T/F 2976 09-09-2018 07:55:00 11.7 C 90 % 10.12 C
2977 09-09-2018 08:00:00 11.7 C 90 % 10.12 C
2978 09-09-2018 08:05:00 11.8 C 90 % 10.21 C
2979 09-09-2018 08:10:00 11.9 C 90 % 10.31 C
2980 09-09-2018 08:15:00 11.9 C 90 % 10.31 C
2981 09-09-2018 08:20:00 12.1 C 90 % 10.51 C
2982 09-09-2018 08:25:00 12.2 C 90 % 10.61 C
2983 09-09-2018 08:30:00 12.3 C 90 % 10.71 C
2984 09-09-2018 08:35:00 12.4 C 89 % 10.64 C
2985 09-09-2018 08:40:00 12.6 C 89 % 10.84 C
2986 09-09-2018 08:45:00 12.7 C 88 % 10.77 C
2987 09-09-2018 08:50:00 12.8 C 88 % 10.86 C
2988 09-09-2018 08:55:00 12.9 C 87 % 10.79 C
2989 09-09-2018 09:00:00 13.2 C 87 % 11.09 C
2990 09-09-2018 09:05:00 13.3 C 87 % 11.18 C
2991 09-09-2018 09:10:00 13.4 C 86 % 11.11 C
2992 09-09-2018 09:15:00 13.6 C 84 % 10.95 C
2993 09-09-2018 09:20:00 13.8 C 84 % 11.15 C
2994 09-09-2018 09:25:00 13.9 C 84 % 11.24 C
2995 09-09-2018 09:30:00 14.1 C 84 % 11.44 C
2996 09-09-2018 09:35:00 14.2 C 83 % 11.36 C
2997 09-09-2018 09:40:00 14.4 C 82 % 11.37 C
2998 09-09-2018 09:45:00 14.6 C 82 % 11.56 C
2999 09-09-2018 09:50:00 14.6 C 81 % 11.38 C
3000 09-09-2018 09:55:00 14.8 C 81 % 11.57 C
Sensor: Nr:Datum:Temp:Feuchte:Taupunkt:
Aussen-T/F 3001 09-09-2018 10:00:00 14.9 C 80 % 11.48 C
3002 09-09-2018 10:05:00 15 C 80 % 11.58 C
3003 09-09-2018 10:10:00 15.1 C 80 % 11.68 C
3004 09-09-2018 10:15:00 15.2 C 80 % 11.78 C
3005 09-09-2018 10:20:00 15.3 C 79 % 11.68 C
3006 09-09-2018 10:25:00 15.4 C 80 % 11.97 C
3007 09-09-2018 10:30:00 15.6 C 80 % 12.16 C
3008 09-09-2018 10:35:00 15.8 C 80 % 12.36 C
3009 09-09-2018 10:40:00 16.2 C 78 % 12.36 C
3010 09-09-2018 10:45:00 16.6 C 77 % 12.55 C
3011 09-09-2018 10:50:00 16.9 C 77 % 12.84 C
3012 09-09-2018 10:55:00 17.2 C 73 % 12.32 C
3013 09-09-2018 11:00:00 17.5 C 71 % 12.19 C
3014 09-09-2018 11:05:00 17.8 C 71 % 12.47 C
3015 09-09-2018 11:10:00 18 C 70 % 12.45 C
3016 09-09-2018 11:15:00 18.2 C 70 % 12.64 C
3017 09-09-2018 11:20:00 18.3 C 69 % 12.52 C
3018 09-09-2018 11:25:00 18.6 C 69 % 12.8 C
3019 09-09-2018 11:30:00 18.7 C 66 % 12.22 C
3020 09-09-2018 11:35:00 18.8 C 67 % 12.55 C
3021 09-09-2018 11:40:00 19 C 66 % 12.51 C
3022 09-09-2018 11:45:00 19.2 C 65 % 12.47 C
3023 09-09-2018 11:50:00 19.3 C 65 % 12.56 C
3024 09-09-2018 11:55:00 19.4 C 64 % 12.42 C
3025 09-09-2018 12:00:00 19.5 C 63 % 12.27 C
Sensor: Nr:Datum:Temp:Feuchte:Taupunkt:
Aussen-T/F 3026 09-09-2018 12:05:00 19.6 C 63 % 12.37 C
3027 09-09-2018 12:10:00 19.7 C 63 % 12.46 C
3028 09-09-2018 12:15:00 19.7 C 61 % 11.97 C
3029 09-09-2018 12:20:00 19.7 C 61 % 11.97 C
3030 09-09-2018 12:25:00 19.7 C 61 % 11.97 C
3031 09-09-2018 12:30:00 19.8 C 60 % 11.82 C
3032 09-09-2018 12:35:00 19.8 C 59 % 11.56 C
3033 09-09-2018 12:40:00 19.8 C 60 % 11.82 C
3034 09-09-2018 12:45:00 19.9 C 58 % 11.4 C
3035 09-09-2018 12:50:00 19.9 C 58 % 11.4 C
3036 09-09-2018 12:55:00 19.9 C 58 % 11.4 C
3037 09-09-2018 13:00:00 20.1 C 55 % 10.78 C
3038 09-09-2018 13:05:00 20.3 C 56 % 11.24 C
3039 09-09-2018 13:10:00 20.3 C 56 % 11.24 C
3040 09-09-2018 13:15:00 20.3 C 55 % 10.97 C
3041 09-09-2018 13:20:00 20.4 C 54 % 10.79 C
3042 09-09-2018 13:25:00 20.7 C 56 % 11.61 C
3043 09-09-2018 13:30:00 20.7 C 55 % 11.34 C
3044 09-09-2018 13:35:00 20.8 C 53 % 10.88 C
3045 09-09-2018 13:40:00 20.9 C 54 % 11.25 C
3046 09-09-2018 13:45:00 21.1 C 53 % 11.15 C
3047 09-09-2018 13:50:00 21.2 C 52 % 10.96 C
3048 09-09-2018 13:55:00 21.3 C 52 % 11.05 C
3049 09-09-2018 14:00:00 21.4 C 52 % 11.14 C
3050 09-09-2018 14:05:00 21.6 C 53 % 11.62 C
Sensor: Nr:Datum:Temp:Feuchte:Taupunkt:
Aussen-T/F 3051 09-09-2018 14:10:00 21.7 C 51 % 11.13 C
3052 09-09-2018 14:15:00 21.8 C 48 % 10.31 C
3053 09-09-2018 14:20:00 21.9 C 49 % 10.71 C
3054 09-09-2018 14:25:00 22.1 C 49 % 10.89 C
3055 09-09-2018 14:30:00 22.3 C 47 % 10.45 C
3056 09-09-2018 14:35:00 22.6 C 47 % 10.72 C
3057 09-09-2018 14:40:00 22.7 C 46 % 10.49 C
3058 09-09-2018 14:45:00 22.8 C 46 % 10.58 C
3059 09-09-2018 14:50:00 23.1 C 46 % 10.86 C
3060 09-09-2018 14:55:00 23.2 C 45 % 10.62 C
3061 09-09-2018 15:00:00 23.3 C 46 % 11.04 C
3062 09-09-2018 15:05:00 23.5 C 46 % 11.22 C
3063 09-09-2018 15:10:00 23.7 C 46 % 11.4 C
3064 09-09-2018 15:15:00 23.8 C 46 % 11.49 C
3065 09-09-2018 15:20:00 23.9 C 46 % 11.58 C
3066 09-09-2018 15:25:00 23.8 C 45 % 11.16 C
3067 09-09-2018 15:30:00 23.8 C 45 % 11.16 C
3068 09-09-2018 15:35:00 23.8 C 45 % 11.16 C
3069 09-09-2018 15:40:00 23.8 C 46 % 11.49 C
3070 09-09-2018 15:45:00 24.1 C 46 % 11.76 C
3071 09-09-2018 15:50:00 24.2 C 46 % 11.85 C
3072 09-09-2018 15:55:00 24.3 C 45 % 11.61 C
3073 09-09-2018 16:00:00 24.6 C 45 % 11.88 C
3074 09-09-2018 16:05:00 24.6 C 44 % 11.54 C
3075 09-09-2018 16:10:00 24.5 C 45 % 11.79 C
Sensor: Nr:Datum:Temp:Feuchte:Taupunkt:
Aussen-T/F 3076 09-09-2018 16:15:00 24.4 C 47 % 12.36 C
3077 09-09-2018 16:20:00 24.4 C 47 % 12.36 C
3078 09-09-2018 16:25:00 24.4 C 47 % 12.36 C
3079 09-09-2018 16:30:00 24.5 C 45 % 11.79 C
3080 09-09-2018 16:35:00 24.6 C 47 % 12.54 C
3081 09-09-2018 16:40:00 24.6 C 47 % 12.54 C
3082 09-09-2018 16:45:00 24.7 C 47 % 12.64 C
3083 09-09-2018 16:50:00 24.7 C 48 % 12.96 C
3084 09-09-2018 16:55:00 24.8 C 47 % 12.73 C
3085 09-09-2018 17:00:00 24.9 C 46 % 12.49 C
3086 09-09-2018 17:05:00 24.9 C 45 % 12.16 C
3087 09-09-2018 17:10:00 24.9 C 48 % 13.14 C
3088 09-09-2018 17:15:00 25 C 47 % 12.91 C
3089 09-09-2018 17:20:00 25.2 C 46 % 12.76 C
3090 09-09-2018 17:25:00 25.4 C 44 % 12.27 C
3091 09-09-2018 17:30:00 25.6 C 45 % 12.79 C
3092 09-09-2018 17:35:00 26.1 C 43 % 12.55 C
3093 09-09-2018 17:40:00 26.5 C 41 % 12.18 C
3094 09-09-2018 17:45:00 26.6 C 41 % 12.27 C
3095 09-09-2018 17:50:00 26.6 C 42 % 12.64 C
3096 09-09-2018 17:55:00 26.6 C 41 % 12.27 C
3097 09-09-2018 18:00:00 26.3 C 42 % 12.37 C
3098 09-09-2018 18:05:00 26.1 C 46 % 13.58 C
3099 09-09-2018 18:10:00 25.8 C 46 % 13.31 C
3100 09-09-2018 18:15:00 25.4 C 49 % 13.91 C
Sensor: Nr:Datum:Temp:Feuchte:Taupunkt:
Aussen-T/F 3101 09-09-2018 18:20:00 25 C 50 % 13.86 C
3102 09-09-2018 18:25:00 24.7 C 50 % 13.58 C
3103 09-09-2018 18:30:00 24.4 C 51 % 13.61 C
3104 09-09-2018 18:35:00 24.2 C 52 % 13.73 C
3105 09-09-2018 18:40:00 23.9 C 52 % 13.45 C
3106 09-09-2018 18:45:00 23.8 C 53 % 13.65 C
3107 09-09-2018 18:50:00 23.7 C 53 % 13.56 C
3108 09-09-2018 18:55:00 23.7 C 53 % 13.56 C
3109 09-09-2018 19:00:00 23.4 C 53 % 13.28 C
3110 09-09-2018 19:05:00 23.2 C 53 % 13.09 C
3111 09-09-2018 19:10:00 22.9 C 53 % 12.82 C
3112 09-09-2018 19:15:00 22.7 C 54 % 12.92 C
3113 09-09-2018 19:20:00 22.4 C 54 % 12.64 C
3114 09-09-2018 19:25:00 22.1 C 55 % 12.64 C
3115 09-09-2018 19:30:00 21.8 C 56 % 12.64 C
3116 09-09-2018 19:35:00 21.5 C 57 % 12.63 C
3117 09-09-2018 19:40:00 21.2 C 57 % 12.35 C
3118 09-09-2018 19:45:00 21 C 59 % 12.69 C
3119 09-09-2018 19:50:00 20.7 C 59 % 12.41 C
3120 09-09-2018 19:55:00 20.4 C 59 % 12.12 C
3121 09-09-2018 20:00:00 20.2 C 60 % 12.19 C
3122 09-09-2018 20:05:00 20.1 C 61 % 12.35 C
3123 09-09-2018 20:10:00 19.8 C 61 % 12.07 C
3124 09-09-2018 20:15:00 19.7 C 61 % 11.97 C
3125 09-09-2018 20:20:00 19.6 C 61 % 11.88 C
Sensor: Nr:Datum:Temp:Feuchte:Taupunkt:
Aussen-T/F 3126 09-09-2018 20:25:00 19.4 C 62 % 11.94 C
3127 09-09-2018 20:30:00 19.3 C 62 % 11.84 C
3128 09-09-2018 20:35:00 19.1 C 64 % 12.14 C
3129 09-09-2018 20:40:00 18.8 C 63 % 11.61 C
3130 09-09-2018 20:45:00 18.6 C 65 % 11.9 C
3131 09-09-2018 20:50:00 18.2 C 65 % 11.52 C
3132 09-09-2018 20:55:00 17.9 C 66 % 11.46 C
3133 09-09-2018 21:00:00 17.7 C 67 % 11.5 C
3134 09-09-2018 21:05:00 17.5 C 66 % 11.08 C
3135 09-09-2018 21:10:00 17.3 C 67 % 11.12 C
3136 09-09-2018 21:15:00 17.2 C 68 % 11.25 C
3137 09-09-2018 21:20:00 17 C 68 % 11.06 C
3138 09-09-2018 21:25:00 16.8 C 68 % 10.87 C
3139 09-09-2018 21:30:00 16.7 C 69 % 10.99 C
3140 09-09-2018 21:35:00 16.6 C 70 % 11.11 C
3141 09-09-2018 21:40:00 16.3 C 70 % 10.82 C
3142 09-09-2018 21:45:00 16.2 C 71 % 10.94 C
3143 09-09-2018 21:50:00 16 C 71 % 10.75 C
3144 09-09-2018 21:55:00 15.8 C 72 % 10.77 C
3145 09-09-2018 22:00:00 15.8 C 72 % 10.77 C
3146 09-09-2018 22:05:00 15.7 C 72 % 10.67 C
3147 09-09-2018 22:10:00 15.7 C 72 % 10.67 C
3148 09-09-2018 22:15:00 15.6 C 72 % 10.57 C
3149 09-09-2018 22:20:00 15.4 C 73 % 10.59 C
3150 09-09-2018 22:25:00 15.3 C 73 % 10.49 C
Sensor: Nr:Datum:Temp:Feuchte:Taupunkt:
Aussen-T/F 3151 09-09-2018 22:30:00 15.3 C 74 % 10.7 C
3152 09-09-2018 22:35:00 15.2 C 74 % 10.6 C
3153 09-09-2018 22:40:00 15 C 75 % 10.61 C
3154 09-09-2018 22:45:00 14.8 C 75 % 10.42 C
3155 09-09-2018 22:50:00 14.6 C 76 % 10.42 C
3156 09-09-2018 22:55:00 14.5 C 77 % 10.52 C
3157 09-09-2018 23:00:00 14.4 C 77 % 10.42 C
3158 09-09-2018 23:05:00 14.3 C 78 % 10.52 C
3159 09-09-2018 23:10:00 14.1 C 78 % 10.33 C
3160 09-09-2018 23:15:00 14.1 C 78 % 10.33 C
3161 09-09-2018 23:20:00 14 C 79 % 10.42 C
3162 09-09-2018 23:25:00 14.1 C 80 % 10.71 C
3163 09-09-2018 23:30:00 14.1 C 78 % 10.33 C
3164 09-09-2018 23:35:00 13.9 C 79 % 10.32 C
3165 09-09-2018 23:40:00 13.9 C 79 % 10.32 C
3166 09-09-2018 23:45:00 13.8 C 80 % 10.41 C
3167 09-09-2018 23:50:00 13.8 C 80 % 10.41 C
3168 09-09-2018 23:55:00 13.7 C 80 % 10.32 C
3169 10-09-2018 00:00:00 13.7 C 80 % 10.32 C
3170 10-09-2018 00:05:00 13.6 C 80 % 10.22 C
3171 10-09-2018 00:10:00 13.6 C 80 % 10.22 C
3172 10-09-2018 00:15:00 13.5 C 80 % 10.12 C
3173 10-09-2018 00:20:00 13.4 C 80 % 10.02 C
3174 10-09-2018 00:25:00 13.3 C 81 % 10.11 C
3175 10-09-2018 00:30:00 13.2 C 81 % 10.01 C
Sensor: Nr:Datum:Temp:Feuchte:Taupunkt:
Aussen-T/F 3176 10-09-2018 00:35:00 13.2 C 81 % 10.01 C
3177 10-09-2018 00:40:00 13.1 C 81 % 9.92 C
3178 10-09-2018 00:45:00 12.9 C 82 % 9.9 C
3179 10-09-2018 00:50:00 12.9 C 82 % 9.9 C
3180 10-09-2018 00:55:00 12.9 C 82 % 9.9 C
3181 10-09-2018 01:00:00 12.9 C 82 % 9.9 C
3182 10-09-2018 01:05:00 12.9 C 82 % 9.9 C
3183 10-09-2018 01:10:00 13 C 82 % 10 C
3184 10-09-2018 01:15:00 12.9 C 81 % 9.72 C
3185 10-09-2018 01:20:00 12.8 C 81 % 9.62 C
3186 10-09-2018 01:25:00 12.7 C 82 % 9.71 C
3187 10-09-2018 01:30:00 12.6 C 82 % 9.61 C
3188 10-09-2018 01:35:00 12.5 C 82 % 9.51 C
3189 10-09-2018 01:40:00 12.4 C 83 % 9.6 C
3190 10-09-2018 01:45:00 12.3 C 83 % 9.5 C
3191 10-09-2018 01:50:00 12.2 C 83 % 9.4 C
3192 10-09-2018 01:55:00 12.2 C 84 % 9.58 C
3193 10-09-2018 02:00:00 12.2 C 84 % 9.58 C
3194 10-09-2018 02:05:00 12.1 C 84 % 9.48 C
3195 10-09-2018 02:10:00 12.1 C 84 % 9.48 C
3196 10-09-2018 02:15:00 11.9 C 84 % 9.29 C
3197 10-09-2018 02:20:00 11.9 C 85 % 9.46 C
3198 10-09-2018 02:25:00 11.8 C 85 % 9.36 C
3199 10-09-2018 02:30:00 11.8 C 85 % 9.36 C
3200 10-09-2018 02:35:00 11.8 C 85 % 9.36 C
Sensor: Nr:Datum:Temp:Feuchte:Taupunkt:
Aussen-T/F 3201 10-09-2018 02:40:00 11.7 C 86 % 9.44 C
3202 10-09-2018 02:45:00 11.6 C 86 % 9.34 C
3203 10-09-2018 02:50:00 11.5 C 86 % 9.24 C
3204 10-09-2018 02:55:00 11.5 C 86 % 9.24 C
3205 10-09-2018 03:00:00 11.6 C 87 % 9.51 C
3206 10-09-2018 03:05:00 11.6 C 86 % 9.34 C
3207 10-09-2018 03:10:00 11.5 C 86 % 9.24 C
3208 10-09-2018 03:15:00 11.5 C 87 % 9.41 C
3209 10-09-2018 03:20:00 11.6 C 88 % 9.68 C
3210 10-09-2018 03:25:00 11.8 C 87 % 9.71 C
3211 10-09-2018 03:30:00 11.8 C 86 % 9.54 C
3212 10-09-2018 03:35:00 11.7 C 86 % 9.44 C
3213 10-09-2018 03:40:00 11.7 C 86 % 9.44 C
3214 10-09-2018 03:45:00 11.7 C 86 % 9.44 C
3215 10-09-2018 03:50:00 11.7 C 87 % 9.61 C
3216 10-09-2018 03:55:00 11.8 C 87 % 9.71 C
3217 10-09-2018 04:00:00 11.9 C 87 % 9.81 C
3218 10-09-2018 04:05:00 12.1 C 87 % 10 C
3219 10-09-2018 04:10:00 12.1 C 87 % 10 C
3220 10-09-2018 04:15:00 12.2 C 87 % 10.1 C
3221 10-09-2018 04:20:00 12.2 C 86 % 9.93 C
3222 10-09-2018 04:25:00 12.1 C 86 % 9.83 C
3223 10-09-2018 04:30:00 12.1 C 86 % 9.83 C
3224 10-09-2018 04:35:00 12.1 C 86 % 9.83 C
3225 10-09-2018 04:40:00 12.1 C 87 % 10 C
Sensor: Nr:Datum:Temp:Feuchte:Taupunkt:
Aussen-T/F 3226 10-09-2018 04:45:00 12 C 86 % 9.73 C
3227 10-09-2018 04:50:00 11.9 C 86 % 9.64 C
3228 10-09-2018 04:55:00 11.8 C 86 % 9.54 C
3229 10-09-2018 05:00:00 11.8 C 87 % 9.71 C
3230 10-09-2018 05:05:00 11.7 C 87 % 9.61 C
3231 10-09-2018 05:10:00 11.7 C 87 % 9.61 C
3232 10-09-2018 05:15:00 11.6 C 87 % 9.51 C
3233 10-09-2018 05:20:00 11.5 C 87 % 9.41 C
3234 10-09-2018 05:25:00 11.4 C 87 % 9.32 C
3235 10-09-2018 05:30:00 11.4 C 88 % 9.49 C
3236 10-09-2018 05:35:00 11.3 C 88 % 9.39 C
3237 10-09-2018 05:40:00 11.2 C 88 % 9.29 C
3238 10-09-2018 05:45:00 11.1 C 88 % 9.19 C
3239 10-09-2018 05:50:00 11 C 88 % 9.09 C
3240 10-09-2018 05:55:00 10.8 C 88 % 8.89 C
3241 10-09-2018 06:00:00 10.8 C 88 % 8.89 C
3242 10-09-2018 06:05:00 10.7 C 89 % 8.96 C
3243 10-09-2018 06:10:00 10.7 C 89 % 8.96 C
3244 10-09-2018 06:15:00 10.6 C 89 % 8.86 C
3245 10-09-2018 06:20:00 10.6 C 89 % 8.86 C
3246 10-09-2018 06:25:00 10.7 C 90 % 9.13 C
3247 10-09-2018 06:30:00 10.8 C 90 % 9.23 C
3248 10-09-2018 06:35:00 10.8 C 90 % 9.23 C
3249 10-09-2018 06:40:00 10.8 C 90 % 9.23 C
3250 10-09-2018 06:45:00 10.7 C 89 % 8.96 C
Sensor: Nr:Datum:Temp:Feuchte:Taupunkt:
Aussen-T/F 3251 10-09-2018 06:50:00 10.7 C 89 % 8.96 C
3252 10-09-2018 06:55:00 10.6 C 90 % 9.03 C
3253 10-09-2018 07:00:00 10.7 C 90 % 9.13 C
3254 10-09-2018 07:05:00 10.7 C 90 % 9.13 C
3255 10-09-2018 07:10:00 10.8 C 90 % 9.23 C
3256 10-09-2018 07:15:00 10.8 C 91 % 9.39 C
3257 10-09-2018 07:20:00 10.9 C 91 % 9.49 C
3258 10-09-2018 07:25:00 11 C 91 % 9.59 C
3259 10-09-2018 07:30:00 11.1 C 91 % 9.69 C
3260 10-09-2018 07:35:00 11.2 C 91 % 9.79 C
3261 10-09-2018 07:40:00 11.3 C 91 % 9.89 C
3262 10-09-2018 07:45:00 11.3 C 91 % 9.89 C
3263 10-09-2018 07:50:00 11.5 C 91 % 10.08 C
3264 10-09-2018 07:55:00 11.6 C 91 % 10.18 C
3265 10-09-2018 08:00:00 11.8 C 91 % 10.38 C
3266 10-09-2018 08:05:00 11.9 C 91 % 10.48 C
3267 10-09-2018 08:10:00 12.2 C 91 % 10.78 C
3268 10-09-2018 08:15:00 12.3 C 90 % 10.71 C
3269 10-09-2018 08:20:00 12.6 C 90 % 11 C
3270 10-09-2018 08:25:00 12.7 C 90 % 11.1 C
3271 10-09-2018 08:30:00 12.9 C 90 % 11.3 C
3272 10-09-2018 08:35:00 13.1 C 90 % 11.5 C
3273 10-09-2018 08:40:00 13.2 C 89 % 11.43 C
3274 10-09-2018 08:45:00 13.3 C 88 % 11.36 C
3275 10-09-2018 08:50:00 13.5 C 88 % 11.55 C
Sensor: Nr:Datum:Temp:Feuchte:Taupunkt:
Aussen-T/F 3276 10-09-2018 08:55:00 13.6 C 88 % 11.65 C
3277 10-09-2018 09:00:00 13.7 C 87 % 11.58 C
3278 10-09-2018 09:05:00 13.8 C 86 % 11.5 C
3279 10-09-2018 09:10:00 14 C 86 % 11.7 C
3280 10-09-2018 09:15:00 14.1 C 85 % 11.62 C
3281 10-09-2018 09:20:00 14.3 C 85 % 11.81 C
3282 10-09-2018 09:25:00 14.4 C 85 % 11.91 C
3283 10-09-2018 09:30:00 14.7 C 85 % 12.21 C
3284 10-09-2018 09:35:00 14.8 C 84 % 12.12 C
3285 10-09-2018 09:40:00 15 C 84 % 12.32 C
3286 10-09-2018 09:45:00 15.2 C 83 % 12.33 C
3287 10-09-2018 09:50:00 15.3 C 83 % 12.43 C
3288 10-09-2018 09:55:00 15.5 C 82 % 12.44 C
3289 10-09-2018 10:00:00 15.7 C 81 % 12.45 C
3290 10-09-2018 10:05:00 15.8 C 81 % 12.55 C
3291 10-09-2018 10:10:00 15.9 C 79 % 12.27 C
3292 10-09-2018 10:15:00 16 C 79 % 12.36 C
3293 10-09-2018 10:20:00 16.1 C 78 % 12.27 C
3294 10-09-2018 10:25:00 16.2 C 78 % 12.36 C
3295 10-09-2018 10:30:00 16.3 C 77 % 12.26 C
3296 10-09-2018 10:35:00 16.5 C 77 % 12.46 C
3297 10-09-2018 10:40:00 16.7 C 76 % 12.45 C
3298 10-09-2018 10:45:00 16.8 C 76 % 12.55 C
3299 10-09-2018 10:50:00 16.9 C 74 % 12.24 C
3300 10-09-2018 10:55:00 17.1 C 73 % 12.23 C
Sensor: Nr:Datum:Temp:Feuchte:Taupunkt:
Aussen-T/F 3301 10-09-2018 11:00:00 17.2 C 73 % 12.32 C
3302 10-09-2018 11:05:00 17.3 C 72 % 12.21 C
3303 10-09-2018 11:10:00 17.5 C 72 % 12.4 C
3304 10-09-2018 11:15:00 17.8 C 72 % 12.69 C
3305 10-09-2018 11:20:00 18.1 C 71 % 12.76 C
3306 10-09-2018 11:25:00 18.3 C 70 % 12.74 C
3307 10-09-2018 11:30:00 18.6 C 70 % 13.02 C
3308 10-09-2018 11:35:00 18.8 C 69 % 13 C
3309 10-09-2018 11:40:00 19 C 70 % 13.41 C
3310 10-09-2018 11:45:00 19.2 C 67 % 12.93 C
3311 10-09-2018 11:50:00 19.5 C 67 % 13.21 C
3312 10-09-2018 11:55:00 19.8 C 66 % 13.27 C
3313 10-09-2018 12:00:00 20 C 64 % 12.99 C
3314 10-09-2018 12:05:00 20.2 C 65 % 13.41 C
3315 10-09-2018 12:10:00 20.3 C 62 % 12.79 C
3316 10-09-2018 12:15:00 20.5 C 61 % 12.73 C
3317 10-09-2018 12:20:00 20.7 C 61 % 12.91 C
3318 10-09-2018 12:25:00 20.8 C 60 % 12.76 C
3319 10-09-2018 12:30:00 21.2 C 59 % 12.87 C
3320 10-09-2018 12:35:00 21.4 C 57 % 12.53 C
3321 10-09-2018 12:40:00 21.7 C 57 % 12.81 C
3322 10-09-2018 12:45:00 22 C 55 % 12.55 C
3323 10-09-2018 12:50:00 22.2 C 54 % 12.45 C
3324 10-09-2018 12:55:00 22.3 C 55 % 12.83 C
3325 10-09-2018 13:00:00 22.4 C 55 % 12.92 C
Sensor: Nr:Datum:Temp:Feuchte:Taupunkt:
Aussen-T/F 3326 10-09-2018 13:05:00 22.6 C 52 % 12.25 C
3327 10-09-2018 13:10:00 22.7 C 53 % 12.63 C
3328 10-09-2018 13:15:00 22.8 C 54 % 13.01 C
3329 10-09-2018 13:20:00 23.1 C 54 % 13.29 C
3330 10-09-2018 13:25:00 23.3 C 53 % 13.19 C
3331 10-09-2018 13:30:00 23.6 C 52 % 13.17 C
3332 10-09-2018 13:35:00 23.8 C 52 % 13.36 C
3333 10-09-2018 13:40:00 23.9 C 51 % 13.15 C
3334 10-09-2018 13:45:00 24.2 C 51 % 13.43 C
3335 10-09-2018 13:50:00 24.5 C 51 % 13.7 C
3336 10-09-2018 13:55:00 24.8 C 50 % 13.67 C
3337 10-09-2018 14:00:00 25.1 C 49 % 13.64 C
3338 10-09-2018 14:05:00 25.3 C 48 % 13.5 C
3339 10-09-2018 14:10:00 25.5 C 48 % 13.69 C
3340 10-09-2018 14:15:00 25.6 C 48 % 13.78 C
3341 10-09-2018 14:20:00 25.8 C 48 % 13.96 C
3342 10-09-2018 14:25:00 25.9 C 48 % 14.05 C
3343 10-09-2018 14:30:00 26.1 C 48 % 14.23 C
3344 10-09-2018 14:35:00 26.3 C 48 % 14.42 C
3345 10-09-2018 14:40:00 26.5 C 47 % 14.27 C
3346 10-09-2018 14:45:00 26.7 C 46 % 14.12 C
3347 10-09-2018 14:50:00 26.8 C 46 % 14.21 C
3348 10-09-2018 14:55:00 26.8 C 46 % 14.21 C
3349 10-09-2018 15:00:00 26.9 C 47 % 14.64 C
3350 10-09-2018 15:05:00 27.1 C 46 % 14.49 C
Sensor: Nr:Datum:Temp:Feuchte:Taupunkt:
Aussen-T/F 3351 10-09-2018 15:10:00 27.3 C 45 % 14.33 C
3352 10-09-2018 15:15:00 27.3 C 45 % 14.33 C
3353 10-09-2018 15:20:00 27.4 C 45 % 14.42 C
3354 10-09-2018 15:25:00 27.3 C 44 % 13.98 C
3355 10-09-2018 15:30:00 27.1 C 45 % 14.15 C
3356 10-09-2018 15:35:00 26.6 C 46 % 14.03 C
3357 10-09-2018 15:40:00 26.3 C 47 % 14.09 C
3358 10-09-2018 15:45:00 26 C 47 % 13.82 C
3359 10-09-2018 15:50:00 25.8 C 47 % 13.64 C
3360 10-09-2018 15:55:00 25.7 C 48 % 13.87 C
3361 10-09-2018 16:00:00 25.6 C 48 % 13.78 C
3362 10-09-2018 16:05:00 25.6 C 48 % 13.78 C
3363 10-09-2018 16:10:00 25.6 C 48 % 13.78 C
3364 10-09-2018 16:15:00 25.8 C 48 % 13.96 C
3365 10-09-2018 16:20:00 25.9 C 46 % 13.4 C
3366 10-09-2018 16:25:00 25.9 C 47 % 13.73 C
3367 10-09-2018 16:30:00 25.8 C 46 % 13.31 C
3368 10-09-2018 16:35:00 25.6 C 47 % 13.45 C
3369 10-09-2018 16:40:00 25.4 C 47 % 13.27 C
3370 10-09-2018 16:45:00 25.3 C 48 % 13.5 C
3371 10-09-2018 16:50:00 25.3 C 48 % 13.5 C
3372 10-09-2018 16:55:00 25.2 C 48 % 13.41 C
3373 10-09-2018 17:00:00 25.1 C 48 % 13.32 C
3374 10-09-2018 17:05:00 24.9 C 48 % 13.14 C
3375 10-09-2018 17:10:00 24.7 C 49 % 13.27 C
Sensor: Nr:Datum:Temp:Feuchte:Taupunkt:
Aussen-T/F 3376 10-09-2018 17:15:00 24.5 C 50 % 13.4 C
3377 10-09-2018 17:20:00 24.3 C 50 % 13.22 C
3378 10-09-2018 17:25:00 24.2 C 51 % 13.43 C
3379 10-09-2018 17:30:00 24.1 C 51 % 13.34 C
3380 10-09-2018 17:35:00 24 C 52 % 13.54 C
3381 10-09-2018 17:40:00 23.9 C 53 % 13.74 C
3382 10-09-2018 17:45:00 23.8 C 53 % 13.65 C
3383 10-09-2018 17:50:00 23.7 C 54 % 13.84 C
3384 10-09-2018 17:55:00 23.7 C 54 % 13.84 C
3385 10-09-2018 18:00:00 23.7 C 55 % 14.13 C
3386 10-09-2018 18:05:00 23.6 C 55 % 14.03 C
3387 10-09-2018 18:10:00 23.6 C 54 % 13.75 C
3388 10-09-2018 18:15:00 23.5 C 54 % 13.66 C
3389 10-09-2018 18:20:00 23.5 C 54 % 13.66 C
3390 10-09-2018 18:25:00 23.6 C 54 % 13.75 C
3391 10-09-2018 18:30:00 23.7 C 54 % 13.84 C
3392 10-09-2018 18:35:00 23.7 C 53 % 13.56 C
3393 10-09-2018 18:40:00 23.7 C 53 % 13.56 C
3394 10-09-2018 18:45:00 23.6 C 53 % 13.46 C
3395 10-09-2018 18:50:00 23.4 C 54 % 13.57 C
3396 10-09-2018 18:55:00 23.4 C 53 % 13.28 C
3397 10-09-2018 19:00:00 23.2 C 54 % 13.38 C
3398 10-09-2018 19:05:00 22.9 C 55 % 13.38 C
3399 10-09-2018 19:10:00 22.7 C 56 % 13.47 C
3400 10-09-2018 19:15:00 22.6 C 56 % 13.38 C
Sensor: Nr:Datum:Temp:Feuchte:Taupunkt:
Aussen-T/F 3401 10-09-2018 19:20:00 22.3 C 57 % 13.37 C
3402 10-09-2018 19:25:00 22.2 C 57 % 13.28 C
3403 10-09-2018 19:30:00 22 C 58 % 13.36 C
3404 10-09-2018 19:35:00 21.9 C 59 % 13.53 C
3405 10-09-2018 19:40:00 21.8 C 59 % 13.44 C
3406 10-09-2018 19:45:00 21.7 C 60 % 13.6 C
3407 10-09-2018 19:50:00 21.6 C 60 % 13.51 C
3408 10-09-2018 19:55:00 21.4 C 60 % 13.32 C
3409 10-09-2018 20:00:00 21.3 C 61 % 13.48 C
3410 10-09-2018 20:05:00 21.1 C 62 % 13.54 C
3411 10-09-2018 20:10:00 20.8 C 63 % 13.5 C
3412 10-09-2018 20:15:00 20.6 C 63 % 13.31 C
3413 10-09-2018 20:20:00 20.3 C 65 % 13.51 C
3414 10-09-2018 20:25:00 20.1 C 65 % 13.32 C
3415 10-09-2018 20:30:00 19.8 C 66 % 13.27 C
3416 10-09-2018 20:35:00 19.5 C 67 % 13.21 C
3417 10-09-2018 20:40:00 19.3 C 68 % 13.25 C
3418 10-09-2018 20:45:00 19.1 C 69 % 13.28 C
3419 10-09-2018 20:50:00 18.9 C 69 % 13.09 C
3420 10-09-2018 20:55:00 18.7 C 70 % 13.12 C
3421 10-09-2018 21:00:00 18.6 C 71 % 13.24 C
3422 10-09-2018 21:05:00 18.4 C 71 % 13.05 C
3423 10-09-2018 21:10:00 18.3 C 72 % 13.17 C
3424 10-09-2018 21:15:00 18.2 C 72 % 13.07 C
3425 10-09-2018 21:20:00 18.1 C 72 % 12.98 C
Sensor: Nr:Datum:Temp:Feuchte:Taupunkt:
Aussen-T/F 3426 10-09-2018 21:25:00 18.1 C 73 % 13.19 C
3427 10-09-2018 21:30:00 17.9 C 73 % 12.99 C
3428 10-09-2018 21:35:00 17.9 C 74 % 13.2 C
3429 10-09-2018 21:40:00 17.8 C 74 % 13.11 C
3430 10-09-2018 21:45:00 17.7 C 74 % 13.01 C
3431 10-09-2018 21:50:00 17.7 C 74 % 13.01 C
3432 10-09-2018 21:55:00 17.6 C 75 % 13.12 C
3433 10-09-2018 22:00:00 17.5 C 75 % 13.02 C
3434 10-09-2018 22:05:00 17.5 C 75 % 13.02 C
3435 10-09-2018 22:10:00 17.4 C 75 % 12.93 C
3436 10-09-2018 22:15:00 17.3 C 75 % 12.83 C
3437 10-09-2018 22:20:00 17.3 C 75 % 12.83 C
3438 10-09-2018 22:25:00 17.1 C 76 % 12.84 C
3439 10-09-2018 22:30:00 16.9 C 76 % 12.65 C
3440 10-09-2018 22:35:00 16.8 C 76 % 12.55 C
3441 10-09-2018 22:40:00 16.6 C 77 % 12.55 C
3442 10-09-2018 22:45:00 16.4 C 78 % 12.56 C
3443 10-09-2018 22:50:00 16.2 C 78 % 12.36 C
3444 10-09-2018 22:55:00 16 C 79 % 12.36 C
3445 10-09-2018 23:00:00 15.8 C 80 % 12.36 C
3446 10-09-2018 23:05:00 15.8 C 80 % 12.36 C
3447 10-09-2018 23:10:00 15.7 C 81 % 12.45 C
3448 10-09-2018 23:15:00 15.6 C 81 % 12.35 C
3449 10-09-2018 23:20:00 15.6 C 81 % 12.35 C
3450 10-09-2018 23:25:00 15.5 C 82 % 12.44 C
Sensor: Nr:Datum:Temp:Feuchte:Taupunkt:
Aussen-T/F 3451 10-09-2018 23:30:00 15.4 C 82 % 12.35 C
3452 10-09-2018 23:35:00 15.3 C 82 % 12.25 C
3453 10-09-2018 23:40:00 15.3 C 83 % 12.43 C
3454 10-09-2018 23:45:00 15.3 C 83 % 12.43 C
3455 10-09-2018 23:50:00 15.2 C 83 % 12.33 C
3456 10-09-2018 23:55:00 15.2 C 83 % 12.33 C
3457 11-09-2018 00:00:00 15.1 C 83 % 12.24 C
3458 11-09-2018 00:05:00 15.1 C 83 % 12.24 C
3459 11-09-2018 00:10:00 15 C 84 % 12.32 C
3460 11-09-2018 00:15:00 14.9 C 84 % 12.22 C
3461 11-09-2018 00:20:00 14.9 C 84 % 12.22 C
3462 11-09-2018 00:25:00 14.9 C 85 % 12.4 C
3463 11-09-2018 00:30:00 14.8 C 84 % 12.12 C
3464 11-09-2018 00:35:00 14.8 C 84 % 12.12 C
3465 11-09-2018 00:40:00 14.7 C 84 % 12.03 C
3466 11-09-2018 00:45:00 14.6 C 84 % 11.93 C
3467 11-09-2018 00:50:00 14.5 C 85 % 12.01 C
3468 11-09-2018 00:55:00 14.4 C 85 % 11.91 C
3469 11-09-2018 01:00:00 14.4 C 85 % 11.91 C
3470 11-09-2018 01:05:00 14.3 C 86 % 11.99 C
3471 11-09-2018 01:10:00 14.3 C 86 % 11.99 C
3472 11-09-2018 01:15:00 14.3 C 86 % 11.99 C
3473 11-09-2018 01:20:00 14.3 C 86 % 11.99 C
3474 11-09-2018 01:25:00 14.3 C 87 % 12.17 C
3475 11-09-2018 01:30:00 14.3 C 87 % 12.17 C
Sensor: Nr:Datum:Temp:Feuchte:Taupunkt:
Aussen-T/F 3476 11-09-2018 01:35:00 14.3 C 87 % 12.17 C
3477 11-09-2018 01:40:00 14.3 C 87 % 12.17 C
3478 11-09-2018 01:45:00 14.3 C 87 % 12.17 C
3479 11-09-2018 01:50:00 14.3 C 87 % 12.17 C
3480 11-09-2018 01:55:00 14.3 C 87 % 12.17 C
3481 11-09-2018 02:00:00 14.2 C 87 % 12.07 C
3482 11-09-2018 02:05:00 14.2 C 87 % 12.07 C
3483 11-09-2018 02:10:00 14.2 C 87 % 12.07 C
3484 11-09-2018 02:15:00 14.1 C 87 % 11.97 C
3485 11-09-2018 02:20:00 14.1 C 87 % 11.97 C
3486 11-09-2018 02:25:00 14.1 C 87 % 11.97 C
3487 11-09-2018 02:30:00 14 C 87 % 11.87 C
3488 11-09-2018 02:35:00 13.9 C 87 % 11.77 C
3489 11-09-2018 02:40:00 13.9 C 87 % 11.77 C
3490 11-09-2018 02:45:00 13.9 C 87 % 11.77 C
3491 11-09-2018 02:50:00 13.8 C 88 % 11.85 C
3492 11-09-2018 02:55:00 13.8 C 88 % 11.85 C
3493 11-09-2018 03:00:00 13.8 C 88 % 11.85 C
3494 11-09-2018 03:05:00 13.8 C 88 % 11.85 C
3495 11-09-2018 03:10:00 13.7 C 88 % 11.75 C
3496 11-09-2018 03:15:00 13.7 C 89 % 11.92 C
3497 11-09-2018 03:20:00 13.6 C 88 % 11.65 C
3498 11-09-2018 03:25:00 13.4 C 88 % 11.45 C
3499 11-09-2018 03:30:00 13.3 C 89 % 11.53 C
3500 11-09-2018 03:35:00 13.2 C 88 % 11.26 C
Sensor: Nr:Datum:Temp:Feuchte:Taupunkt:
Aussen-T/F 3501 11-09-2018 03:40:00 12.9 C 88 % 10.96 C
3502 11-09-2018 03:45:00 12.8 C 89 % 11.03 C
3503 11-09-2018 03:50:00 12.7 C 89 % 10.94 C
3504 11-09-2018 03:55:00 12.6 C 89 % 10.84 C
3505 11-09-2018 04:00:00 12.4 C 90 % 10.81 C
3506 11-09-2018 04:05:00 12.4 C 90 % 10.81 C
3507 11-09-2018 04:10:00 12.3 C 90 % 10.71 C
3508 11-09-2018 04:15:00 12.4 C 91 % 10.97 C
3509 11-09-2018 04:20:00 12.5 C 91 % 11.07 C
3510 11-09-2018 04:25:00 12.5 C 91 % 11.07 C
3511 11-09-2018 04:30:00 12.5 C 92 % 11.24 C
3512 11-09-2018 04:35:00 12.6 C 92 % 11.34 C
3513 11-09-2018 04:40:00 12.6 C 92 % 11.34 C
3514 11-09-2018 04:45:00 12.6 C 92 % 11.34 C
3515 11-09-2018 04:50:00 12.5 C 92 % 11.24 C
3516 11-09-2018 04:55:00 12.5 C 92 % 11.24 C
3517 11-09-2018 05:00:00 12.5 C 92 % 11.24 C
3518 11-09-2018 05:05:00 12.5 C 92 % 11.24 C
3519 11-09-2018 05:10:00 12.5 C 92 % 11.24 C
3520 11-09-2018 05:15:00 12.4 C 92 % 11.14 C
3521 11-09-2018 05:20:00 12.3 C 91 % 10.87 C
3522 11-09-2018 05:25:00 12.2 C 91 % 10.78 C
3523 11-09-2018 05:30:00 12.1 C 91 % 10.68 C
3524 11-09-2018 05:35:00 12.1 C 92 % 10.84 C
3525 11-09-2018 05:40:00 12.1 C 92 % 10.84 C
Sensor: Nr:Datum:Temp:Feuchte:Taupunkt:
Aussen-T/F 3526 11-09-2018 05:45:00 12 C 92 % 10.74 C
3527 11-09-2018 05:50:00 12 C 92 % 10.74 C
3528 11-09-2018 05:55:00 11.9 C 92 % 10.64 C
3529 11-09-2018 06:00:00 11.9 C 92 % 10.64 C
3530 11-09-2018 06:05:00 11.9 C 92 % 10.64 C
3531 11-09-2018 06:10:00 11.8 C 92 % 10.54 C
3532 11-09-2018 06:15:00 11.8 C 92 % 10.54 C
3533 11-09-2018 06:20:00 11.8 C 93 % 10.71 C
3534 11-09-2018 06:25:00 11.8 C 93 % 10.71 C
3535 11-09-2018 06:30:00 11.8 C 93 % 10.71 C
3536 11-09-2018 06:35:00 11.7 C 93 % 10.61 C
3537 11-09-2018 06:40:00 11.7 C 93 % 10.61 C
3538 11-09-2018 06:45:00 11.7 C 93 % 10.61 C
3539 11-09-2018 06:50:00 11.7 C 93 % 10.61 C
3540 11-09-2018 06:55:00 11.7 C 93 % 10.61 C
3541 11-09-2018 07:00:00 11.7 C 93 % 10.61 C
3542 11-09-2018 07:05:00 11.8 C 93 % 10.71 C
3543 11-09-2018 07:10:00 11.9 C 93 % 10.81 C
3544 11-09-2018 07:15:00 11.8 C 93 % 10.71 C
3545 11-09-2018 07:20:00 11.6 C 92 % 10.35 C
3546 11-09-2018 07:25:00 11.5 C 92 % 10.25 C
3547 11-09-2018 07:30:00 11.5 C 93 % 10.41 C
3548 11-09-2018 07:35:00 11.6 C 93 % 10.51 C
3549 11-09-2018 07:40:00 11.6 C 93 % 10.51 C
3550 11-09-2018 07:45:00 11.7 C 94 % 10.77 C
Sensor: Nr:Datum:Temp:Feuchte:Taupunkt:
Aussen-T/F 3551 11-09-2018 07:50:00 11.8 C 94 % 10.87 C
3552 11-09-2018 07:55:00 11.9 C 94 % 10.97 C
3553 11-09-2018 08:00:00 12 C 94 % 11.07 C
3554 11-09-2018 08:05:00 12.2 C 94 % 11.26 C
3555 11-09-2018 08:10:00 12.3 C 94 % 11.36 C
3556 11-09-2018 08:15:00 12.3 C 94 % 11.36 C
3557 11-09-2018 08:20:00 12.4 C 94 % 11.46 C
3558 11-09-2018 08:25:00 12.7 C 94 % 11.76 C
3559 11-09-2018 08:30:00 12.8 C 94 % 11.86 C
3560 11-09-2018 08:35:00 12.9 C 94 % 11.96 C
3561 11-09-2018 08:40:00 13.1 C 93 % 11.99 C
3562 11-09-2018 08:45:00 13.2 C 92 % 11.93 C
3563 11-09-2018 08:50:00 13.3 C 92 % 12.03 C
3564 11-09-2018 08:55:00 13.3 C 91 % 11.86 C
3565 11-09-2018 09:00:00 13.5 C 91 % 12.06 C
3566 11-09-2018 09:05:00 13.6 C 91 % 12.16 C
3567 11-09-2018 09:10:00 13.7 C 91 % 12.26 C
3568 11-09-2018 09:15:00 13.8 C 91 % 12.36 C
3569 11-09-2018 09:20:00 13.9 C 91 % 12.46 C
3570 11-09-2018 09:25:00 14 C 91 % 12.56 C
3571 11-09-2018 09:30:00 14.2 C 91 % 12.75 C
3572 11-09-2018 09:35:00 14.4 C 91 % 12.95 C
3573 11-09-2018 09:40:00 14.6 C 91 % 13.15 C
3574 11-09-2018 09:45:00 14.8 C 91 % 13.35 C
3575 11-09-2018 09:50:00 15.1 C 90 % 13.47 C
Sensor: Nr:Datum:Temp:Feuchte:Taupunkt:
Aussen-T/F 3576 11-09-2018 09:55:00 15.7 C 87 % 13.54 C
3577 11-09-2018 10:00:00 16.2 C 85 % 13.68 C
3578 11-09-2018 10:05:00 16.8 C 82 % 13.71 C
3579 11-09-2018 10:10:00 17.3 C 79 % 13.63 C
3580 11-09-2018 10:15:00 17.8 C 78 % 13.91 C
3581 11-09-2018 10:20:00 18 C 77 % 13.91 C
3582 11-09-2018 10:25:00 18.2 C 76 % 13.9 C
3583 11-09-2018 10:30:00 18.4 C 75 % 13.89 C
3584 11-09-2018 10:35:00 18.5 C 75 % 13.99 C
3585 11-09-2018 10:40:00 18.6 C 74 % 13.88 C
3586 11-09-2018 10:45:00 18.7 C 74 % 13.97 C
3587 11-09-2018 10:50:00 18.7 C 74 % 13.97 C
3588 11-09-2018 10:55:00 18.8 C 74 % 14.07 C
3589 11-09-2018 11:00:00 18.8 C 73 % 13.86 C
3590 11-09-2018 11:05:00 18.9 C 73 % 13.96 C
3591 11-09-2018 11:10:00 19 C 72 % 13.84 C
3592 11-09-2018 11:15:00 19.1 C 72 % 13.94 C
3593 11-09-2018 11:20:00 19.2 C 71 % 13.82 C
3594 11-09-2018 11:25:00 19.2 C 72 % 14.03 C
3595 11-09-2018 11:30:00 19.2 C 72 % 14.03 C
3596 11-09-2018 11:35:00 19.3 C 71 % 13.91 C
3597 11-09-2018 11:40:00 19.3 C 71 % 13.91 C
3598 11-09-2018 11:45:00 19.4 C 71 % 14.01 C
3599 11-09-2018 11:50:00 19.6 C 70 % 13.98 C
3600 11-09-2018 11:55:00 19.8 C 70 % 14.17 C
Sensor: Nr:Datum:Temp:Feuchte:Taupunkt:
Aussen-T/F 3601 11-09-2018 12:00:00 20.1 C 69 % 14.24 C
3602 11-09-2018 12:05:00 20.2 C 69 % 14.33 C
3603 11-09-2018 12:10:00 20.4 C 68 % 14.3 C
3604 11-09-2018 12:15:00 20.6 C 67 % 14.26 C
3605 11-09-2018 12:20:00 20.8 C 66 % 14.22 C
3606 11-09-2018 12:25:00 21 C 66 % 14.41 C
3607 11-09-2018 12:30:00 21.2 C 65 % 14.36 C
3608 11-09-2018 12:35:00 21.3 C 65 % 14.46 C
3609 11-09-2018 12:40:00 21.4 C 64 % 14.31 C
3610 11-09-2018 12:45:00 21.6 C 63 % 14.26 C
3611 11-09-2018 12:50:00 21.8 C 63 % 14.45 C
3612 11-09-2018 12:55:00 22 C 62 % 14.39 C
3613 11-09-2018 13:00:00 22.2 C 61 % 14.32 C
3614 11-09-2018 13:05:00 22.3 C 61 % 14.42 C
3615 11-09-2018 13:10:00 22.5 C 60 % 14.35 C
3616 11-09-2018 13:15:00 22.7 C 59 % 14.28 C
3617 11-09-2018 13:20:00 22.8 C 57 % 13.84 C
3618 11-09-2018 13:25:00 22.9 C 58 % 14.2 C
3619 11-09-2018 13:30:00 23.1 C 57 % 14.12 C
3620 11-09-2018 13:35:00 23.1 C 56 % 13.85 C
3621 11-09-2018 13:40:00 23.3 C 56 % 14.03 C
3622 11-09-2018 13:45:00 23.4 C 56 % 14.13 C
3623 11-09-2018 13:50:00 23.6 C 55 % 14.03 C
3624 11-09-2018 13:55:00 23.7 C 55 % 14.13 C
3625 11-09-2018 14:00:00 23.8 C 54 % 13.94 C
Sensor: Nr:Datum:Temp:Feuchte:Taupunkt:
Aussen-T/F 3626 11-09-2018 14:05:00 23.9 C 53 % 13.74 C
3627 11-09-2018 14:10:00 24.1 C 53 % 13.93 C
3628 11-09-2018 14:15:00 24.2 C 53 % 14.02 C
3629 11-09-2018 14:20:00 24.3 C 53 % 14.11 C
3630 11-09-2018 14:25:00 24.4 C 52 % 13.91 C
3631 11-09-2018 14:30:00 24.7 C 52 % 14.19 C
3632 11-09-2018 14:35:00 24.8 C 52 % 14.28 C
3633 11-09-2018 14:40:00 24.9 C 51 % 14.07 C
3634 11-09-2018 14:45:00 25.1 C 51 % 14.25 C
3635 11-09-2018 14:50:00 25.2 C 50 % 14.04 C
3636 11-09-2018 14:55:00 25.2 C 50 % 14.04 C
3637 11-09-2018 15:00:00 25.3 C 50 % 14.13 C
3638 11-09-2018 15:05:00 25.4 C 51 % 14.53 C
3639 11-09-2018 15:10:00 25.6 C 47 % 13.45 C
3640 11-09-2018 15:15:00 25.8 C 46 % 13.31 C
3641 11-09-2018 15:20:00 25.9 C 46 % 13.4 C
3642 11-09-2018 15:25:00 26.1 C 46 % 13.58 C
3643 11-09-2018 15:30:00 26.2 C 46 % 13.67 C
3644 11-09-2018 15:35:00 26.2 C 45 % 13.33 C
3645 11-09-2018 15:40:00 26.2 C 45 % 13.33 C
3646 11-09-2018 15:45:00 26.2 C 44 % 12.99 C
3647 11-09-2018 15:50:00 26.3 C 44 % 13.08 C
3648 11-09-2018 15:55:00 26.4 C 44 % 13.17 C
3649 11-09-2018 16:00:00 26.6 C 44 % 13.35 C
3650 11-09-2018 16:05:00 26.7 C 43 % 13.09 C
Sensor: Nr:Datum:Temp:Feuchte:Taupunkt:
Aussen-T/F 3651 11-09-2018 16:10:00 26.8 C 43 % 13.18 C
3652 11-09-2018 16:15:00 26.9 C 43 % 13.27 C
3653 11-09-2018 16:20:00 27.2 C 42 % 13.18 C
3654 11-09-2018 16:25:00 27.3 C 42 % 13.27 C
3655 11-09-2018 16:30:00 27.3 C 41 % 12.9 C
3656 11-09-2018 16:35:00 27.4 C 41 % 12.99 C
3657 11-09-2018 16:40:00 27.6 C 42 % 13.53 C
3658 11-09-2018 16:45:00 27.8 C 41 % 13.34 C
3659 11-09-2018 16:50:00 28.1 C 40 % 13.23 C
3660 11-09-2018 16:55:00 28.3 C 41 % 13.79 C
3661 11-09-2018 17:00:00 28.6 C 40 % 13.68 C
3662 11-09-2018 17:05:00 28.8 C 39 % 13.47 C
3663 11-09-2018 17:10:00 28.9 C 39 % 13.56 C
3664 11-09-2018 17:15:00 28.9 C 39 % 13.56 C
3665 11-09-2018 17:20:00 29 C 39 % 13.65 C
3666 11-09-2018 17:25:00 29 C 38 % 13.25 C
3667 11-09-2018 17:30:00 28.9 C 40 % 13.95 C
3668 11-09-2018 17:35:00 29.2 C 39 % 13.82 C
3669 11-09-2018 17:40:00 29.2 C 38 % 13.42 C
3670 11-09-2018 17:45:00 29.3 C 38 % 13.51 C
3671 11-09-2018 17:50:00 29.2 C 38 % 13.42 C
3672 11-09-2018 17:55:00 29.3 C 38 % 13.51 C
3673 11-09-2018 18:00:00 29.1 C 38 % 13.34 C
3674 11-09-2018 18:05:00 28.9 C 38 % 13.16 C
3675 11-09-2018 18:10:00 28.9 C 39 % 13.56 C
Sensor: Nr:Datum:Temp:Feuchte:Taupunkt:
Aussen-T/F 3676 11-09-2018 18:15:00 28.9 C 40 % 13.95 C
3677 11-09-2018 18:20:00 29.1 C 38 % 13.34 C
3678 11-09-2018 18:25:00 28.9 C 38 % 13.16 C
3679 11-09-2018 18:30:00 28.8 C 38 % 13.07 C
3680 11-09-2018 18:35:00 28.6 C 39 % 13.29 C
3681 11-09-2018 18:40:00 28.5 C 40 % 13.59 C
3682 11-09-2018 18:45:00 28.4 C 41 % 13.88 C
3683 11-09-2018 18:50:00 28.3 C 38 % 12.63 C
3684 11-09-2018 18:55:00 28.1 C 39 % 12.85 C
3685 11-09-2018 19:00:00 27.8 C 40 % 12.97 C
3686 11-09-2018 19:05:00 27.8 C 42 % 13.71 C
3687 11-09-2018 19:10:00 27.6 C 41 % 13.16 C
3688 11-09-2018 19:15:00 27.4 C 41 % 12.99 C
3689 11-09-2018 19:20:00 27.2 C 43 % 13.54 C
3690 11-09-2018 19:25:00 26.9 C 49 % 15.28 C
3691 11-09-2018 19:30:00 26.3 C 46 % 13.76 C
3692 11-09-2018 19:35:00 25.4 C 47 % 13.27 C
3693 11-09-2018 19:40:00 24.8 C 48 % 13.05 C
3694 11-09-2018 19:45:00 24.3 C 50 % 13.22 C
3695 11-09-2018 19:50:00 23.7 C 50 % 12.67 C
3696 11-09-2018 19:55:00 23.2 C 52 % 12.8 C
3697 11-09-2018 20:00:00 22.8 C 53 % 12.73 C
3698 11-09-2018 20:05:00 22.5 C 55 % 13.01 C
3699 11-09-2018 20:10:00 22.3 C 54 % 12.55 C
3700 11-09-2018 20:15:00 22.1 C 55 % 12.64 C
Sensor: Nr:Datum:Temp:Feuchte:Taupunkt:
Aussen-T/F 3701 11-09-2018 20:20:00 21.8 C 56 % 12.64 C
3702 11-09-2018 20:25:00 21.7 C 57 % 12.81 C
3703 11-09-2018 20:30:00 21.4 C 57 % 12.53 C
3704 11-09-2018 20:35:00 21.2 C 59 % 12.87 C
3705 11-09-2018 20:40:00 21 C 59 % 12.69 C
3706 11-09-2018 20:45:00 20.8 C 60 % 12.76 C
3707 11-09-2018 20:50:00 20.7 C 60 % 12.66 C
3708 11-09-2018 20:55:00 20.6 C 61 % 12.82 C
3709 11-09-2018 21:00:00 20.5 C 61 % 12.73 C
3710 11-09-2018 21:05:00 20.4 C 62 % 12.88 C
3711 11-09-2018 21:10:00 20.3 C 62 % 12.79 C
3712 11-09-2018 21:15:00 20.1 C 62 % 12.6 C
3713 11-09-2018 21:20:00 19.9 C 62 % 12.41 C
3714 11-09-2018 21:25:00 19.8 C 63 % 12.56 C
3715 11-09-2018 21:30:00 19.7 C 63 % 12.46 C
3716 11-09-2018 21:35:00 19.6 C 63 % 12.37 C
3717 11-09-2018 21:40:00 19.6 C 63 % 12.37 C
3718 11-09-2018 21:45:00 19.5 C 64 % 12.51 C
3719 11-09-2018 21:50:00 19.5 C 63 % 12.27 C
3720 11-09-2018 21:55:00 19.5 C 64 % 12.51 C
3721 11-09-2018 22:00:00 19.4 C 64 % 12.42 C
3722 11-09-2018 22:05:00 19.4 C 64 % 12.42 C
3723 11-09-2018 22:10:00 19.3 C 64 % 12.32 C
3724 11-09-2018 22:15:00 19.3 C 64 % 12.32 C
3725 11-09-2018 22:20:00 19.2 C 65 % 12.47 C
Sensor: Nr:Datum:Temp:Feuchte:Taupunkt:
Aussen-T/F 3726 11-09-2018 22:25:00 19.1 C 65 % 12.37 C
3727 11-09-2018 22:30:00 19 C 65 % 12.28 C
3728 11-09-2018 22:35:00 18.9 C 66 % 12.41 C
3729 11-09-2018 22:40:00 18.8 C 66 % 12.32 C
3730 11-09-2018 22:45:00 18.7 C 67 % 12.45 C
3731 11-09-2018 22:50:00 18.6 C 67 % 12.36 C
3732 11-09-2018 22:55:00 18.4 C 68 % 12.39 C
3733 11-09-2018 23:00:00 18.3 C 68 % 12.3 C
3734 11-09-2018 23:05:00 18.2 C 69 % 12.42 C
3735 11-09-2018 23:10:00 18.1 C 69 % 12.33 C
3736 11-09-2018 23:15:00 17.9 C 70 % 12.35 C
3737 11-09-2018 23:20:00 17.8 C 70 % 12.26 C
3738 11-09-2018 23:25:00 17.7 C 70 % 12.16 C
3739 11-09-2018 23:30:00 17.7 C 71 % 12.38 C
3740 11-09-2018 23:35:00 17.6 C 71 % 12.28 C
3741 11-09-2018 23:40:00 17.5 C 72 % 12.4 C
3742 11-09-2018 23:45:00 17.4 C 72 % 12.3 C
3743 11-09-2018 23:50:00 17.3 C 72 % 12.21 C
3744 11-09-2018 23:55:00 17.2 C 73 % 12.32 C
3745 12-09-2018 00:00:00 17.1 C 73 % 12.23 C
3746 12-09-2018 00:05:00 17 C 74 % 12.34 C
3747 12-09-2018 00:10:00 16.9 C 74 % 12.24 C
3748 12-09-2018 00:15:00 16.8 C 74 % 12.14 C
3749 12-09-2018 00:20:00 16.7 C 74 % 12.05 C
3750 12-09-2018 00:25:00 16.7 C 74 % 12.05 C
Sensor: Nr:Datum:Temp:Feuchte:Taupunkt:
Aussen-T/F 3751 12-09-2018 00:30:00 16.6 C 74 % 11.95 C
3752 12-09-2018 00:35:00 16.4 C 75 % 11.96 C
3753 12-09-2018 00:40:00 16.3 C 75 % 11.86 C
3754 12-09-2018 00:45:00 16.2 C 75 % 11.77 C
3755 12-09-2018 00:50:00 16.2 C 77 % 12.17 C
3756 12-09-2018 00:55:00 16.2 C 77 % 12.17 C
3757 12-09-2018 01:00:00 16.1 C 77 % 12.07 C
3758 12-09-2018 01:05:00 15.8 C 77 % 11.78 C
3759 12-09-2018 01:10:00 15.6 C 78 % 11.78 C
3760 12-09-2018 01:15:00 15.5 C 78 % 11.68 C
3761 12-09-2018 01:20:00 15.4 C 79 % 11.78 C
3762 12-09-2018 01:25:00 15.4 C 78 % 11.59 C
3763 12-09-2018 01:30:00 15.4 C 78 % 11.59 C
3764 12-09-2018 01:35:00 15.3 C 80 % 11.87 C
3765 12-09-2018 01:40:00 15.2 C 80 % 11.78 C
3766 12-09-2018 01:45:00 15 C 80 % 11.58 C
3767 12-09-2018 01:50:00 14.9 C 80 % 11.48 C
3768 12-09-2018 01:55:00 14.8 C 81 % 11.57 C
3769 12-09-2018 02:00:00 14.8 C 81 % 11.57 C
3770 12-09-2018 02:05:00 14.8 C 80 % 11.39 C
3771 12-09-2018 02:10:00 14.7 C 81 % 11.48 C
3772 12-09-2018 02:15:00 14.5 C 81 % 11.28 C
3773 12-09-2018 02:20:00 14.3 C 81 % 11.09 C
3774 12-09-2018 02:25:00 14.2 C 82 % 11.17 C
3775 12-09-2018 02:30:00 14.1 C 83 % 11.26 C
Sensor: Nr:Datum:Temp:Feuchte:Taupunkt:
Aussen-T/F 3776 12-09-2018 02:35:00 14 C 83 % 11.16 C
3777 12-09-2018 02:40:00 14 C 84 % 11.34 C
3778 12-09-2018 02:45:00 13.9 C 84 % 11.24 C
3779 12-09-2018 02:50:00 13.9 C 84 % 11.24 C
3780 12-09-2018 02:55:00 13.8 C 84 % 11.15 C
3781 12-09-2018 03:00:00 13.8 C 85 % 11.32 C
3782 12-09-2018 03:05:00 14.1 C 86 % 11.8 C
3783 12-09-2018 03:10:00 14.1 C 83 % 11.26 C
3784 12-09-2018 03:15:00 13.9 C 84 % 11.24 C
3785 12-09-2018 03:20:00 13.9 C 84 % 11.24 C
3786 12-09-2018 03:25:00 13.9 C 84 % 11.24 C
3787 12-09-2018 03:30:00 13.8 C 84 % 11.15 C
3788 12-09-2018 03:35:00 13.7 C 84 % 11.05 C
3789 12-09-2018 03:40:00 13.6 C 84 % 10.95 C
3790 12-09-2018 03:45:00 13.4 C 84 % 10.75 C
3791 12-09-2018 03:50:00 13.3 C 85 % 10.83 C
3792 12-09-2018 03:55:00 13.2 C 86 % 10.91 C
3793 12-09-2018 04:00:00 13.2 C 86 % 10.91 C
3794 12-09-2018 04:05:00 13.2 C 86 % 10.91 C
3795 12-09-2018 04:10:00 13.2 C 86 % 10.91 C
3796 12-09-2018 04:15:00 13.1 C 86 % 10.81 C
3797 12-09-2018 04:20:00 13 C 86 % 10.72 C
3798 12-09-2018 04:25:00 12.9 C 86 % 10.62 C
3799 12-09-2018 04:30:00 12.9 C 86 % 10.62 C
3800 12-09-2018 04:35:00 12.9 C 87 % 10.79 C
Sensor: Nr:Datum:Temp:Feuchte:Taupunkt:
Aussen-T/F 3801 12-09-2018 04:40:00 12.9 C 87 % 10.79 C
3802 12-09-2018 04:45:00 12.9 C 87 % 10.79 C
3803 12-09-2018 04:50:00 12.8 C 87 % 10.69 C
3804 12-09-2018 04:55:00 12.8 C 87 % 10.69 C
3805 12-09-2018 05:00:00 12.7 C 87 % 10.59 C
3806 12-09-2018 05:05:00 12.7 C 88 % 10.77 C
3807 12-09-2018 05:10:00 12.7 C 87 % 10.59 C
3808 12-09-2018 05:15:00 12.7 C 87 % 10.59 C
3809 12-09-2018 05:20:00 12.6 C 87 % 10.5 C
3810 12-09-2018 05:25:00 12.5 C 87 % 10.4 C
3811 12-09-2018 05:30:00 12.5 C 88 % 10.57 C
3812 12-09-2018 05:35:00 12.4 C 88 % 10.47 C
3813 12-09-2018 05:40:00 12.3 C 88 % 10.37 C
3814 12-09-2018 05:45:00 12.3 C 88 % 10.37 C
3815 12-09-2018 05:50:00 12.3 C 89 % 10.54 C
3816 12-09-2018 05:55:00 12.3 C 89 % 10.54 C
3817 12-09-2018 06:00:00 12.2 C 88 % 10.27 C
3818 12-09-2018 06:05:00 12.2 C 89 % 10.44 C
3819 12-09-2018 06:10:00 12.1 C 89 % 10.34 C
3820 12-09-2018 06:15:00 12.1 C 89 % 10.34 C
3821 12-09-2018 06:20:00 12.1 C 89 % 10.34 C
3822 12-09-2018 06:25:00 12 C 89 % 10.25 C
3823 12-09-2018 06:30:00 11.9 C 89 % 10.15 C
3824 12-09-2018 06:35:00 11.9 C 89 % 10.15 C
3825 12-09-2018 06:40:00 11.8 C 89 % 10.05 C
Sensor: Nr:Datum:Temp:Feuchte:Taupunkt:
Aussen-T/F 3826 12-09-2018 06:45:00 11.7 C 89 % 9.95 C
3827 12-09-2018 06:50:00 11.7 C 90 % 10.12 C
3828 12-09-2018 06:55:00 11.6 C 90 % 10.02 C
3829 12-09-2018 07:00:00 11.6 C 90 % 10.02 C
3830 12-09-2018 07:05:00 11.5 C 90 % 9.92 C
3831 12-09-2018 07:10:00 11.6 C 91 % 10.18 C
3832 12-09-2018 07:15:00 11.7 C 92 % 10.44 C
3833 12-09-2018 07:20:00 11.7 C 91 % 10.28 C
3834 12-09-2018 07:25:00 11.7 C 91 % 10.28 C
3835 12-09-2018 07:30:00 11.6 C 91 % 10.18 C
3836 12-09-2018 07:35:00 11.6 C 91 % 10.18 C
3837 12-09-2018 07:40:00 11.6 C 91 % 10.18 C
3838 12-09-2018 07:45:00 11.6 C 91 % 10.18 C
3839 12-09-2018 07:50:00 11.6 C 92 % 10.35 C
3840 12-09-2018 07:55:00 11.7 C 91 % 10.28 C
3841 12-09-2018 08:00:00 11.7 C 92 % 10.44 C
3842 12-09-2018 08:05:00 11.7 C 92 % 10.44 C
3843 12-09-2018 08:10:00 11.8 C 92 % 10.54 C
3844 12-09-2018 08:15:00 11.8 C 91 % 10.38 C
3845 12-09-2018 08:20:00 11.8 C 92 % 10.54 C
3846 12-09-2018 08:25:00 11.8 C 92 % 10.54 C
3847 12-09-2018 08:30:00 11.9 C 92 % 10.64 C
3848 12-09-2018 08:35:00 12 C 92 % 10.74 C
3849 12-09-2018 08:40:00 12.1 C 92 % 10.84 C
3850 12-09-2018 08:45:00 12.2 C 92 % 10.94 C
Sensor: Nr:Datum:Temp:Feuchte:Taupunkt:
Aussen-T/F 3851 12-09-2018 08:50:00 12.3 C 92 % 11.04 C
3852 12-09-2018 08:55:00 12.4 C 92 % 11.14 C
3853 12-09-2018 09:00:00 12.6 C 92 % 11.34 C
3854 12-09-2018 09:05:00 12.7 C 91 % 11.27 C
3855 12-09-2018 09:10:00 12.8 C 91 % 11.37 C
3856 12-09-2018 09:15:00 12.9 C 91 % 11.47 C
3857 12-09-2018 09:20:00 13.1 C 90 % 11.5 C
3858 12-09-2018 09:25:00 13.2 C 90 % 11.6 C
3859 12-09-2018 09:30:00 13.3 C 90 % 11.7 C
3860 12-09-2018 09:35:00 13.4 C 90 % 11.79 C
3861 12-09-2018 09:40:00 13.5 C 90 % 11.89 C
3862 12-09-2018 09:45:00 13.7 C 90 % 12.09 C
3863 12-09-2018 09:50:00 14 C 89 % 12.22 C
3864 12-09-2018 09:55:00 14.3 C 88 % 12.34 C
3865 12-09-2018 10:00:00 14.7 C 87 % 12.56 C
3866 12-09-2018 10:05:00 15 C 86 % 12.68 C
3867 12-09-2018 10:10:00 15.4 C 85 % 12.89 C
3868 12-09-2018 10:15:00 15.8 C 84 % 13.1 C
3869 12-09-2018 10:20:00 16 C 82 % 12.93 C
3870 12-09-2018 10:25:00 16.3 C 82 % 13.22 C
3871 12-09-2018 10:30:00 16.6 C 81 % 13.33 C
3872 12-09-2018 10:35:00 16.9 C 79 % 13.24 C
3873 12-09-2018 10:40:00 17.3 C 77 % 13.23 C
3874 12-09-2018 10:45:00 17.8 C 74 % 13.11 C
3875 12-09-2018 10:50:00 18.3 C 73 % 13.38 C
Sensor: Nr:Datum:Temp:Feuchte:Taupunkt:
Aussen-T/F 3876 12-09-2018 10:55:00 18.7 C 72 % 13.55 C
3877 12-09-2018 11:00:00 19.1 C 71 % 13.72 C
3878 12-09-2018 11:05:00 19.3 C 70 % 13.69 C
3879 12-09-2018 11:10:00 19.6 C 70 % 13.98 C